<?xml version='1.0' encoding='UTF-8'?><gpx version="1.1" creator="JPX - https://github.com/jenetics/jpx" xmlns="http://www.topografix.com/GPX/1/1"><trk><trkseg><trkpt lat="43.2251102315339" lon="12.181127253681874"><ele>432.0</ele><time>2026-04-26T15:20:15Z</time></trkpt><trkpt lat="43.225228923949935" lon="12.181152829547626"><ele>432.00000000000006</ele><time>2026-04-26T15:20:17Z</time></trkpt><trkpt lat="43.225307388313404" lon="12.181171665150874"><ele>432.00000000000006</ele><time>2026-04-26T15:20:19Z</time></trkpt><trkpt lat="43.225338147515494" lon="12.181092198968638"><ele>432.0</ele><time>2026-04-26T15:20:21Z</time></trkpt><trkpt lat="43.2253222802972" lon="12.180943552251014"><ele>432.0</ele><time>2026-04-26T15:20:23Z</time></trkpt><trkpt lat="43.225297903175154" lon="12.180843583556898"><ele>432.0</ele><time>2026-04-26T15:20:24Z</time></trkpt><trkpt lat="43.22527516038496" lon="12.180754720925039"><ele>432.00000000000006</ele><time>2026-04-26T15:20:25Z</time></trkpt><trkpt lat="43.22522188544472" lon="12.180618321401706"><ele>432.00000000000006</ele><time>2026-04-26T15:20:27Z</time></trkpt><trkpt lat="43.225147482534936" lon="12.180498234188395"><ele>432.0</ele><time>2026-04-26T15:20:29Z</time></trkpt><trkpt lat="43.22505182848279" lon="12.1803979571153"><ele>432.0</ele><time>2026-04-26T15:20:31Z</time></trkpt><trkpt lat="43.224999787190264" lon="12.18033092332414"><ele>431.3333333333333</ele><time>2026-04-26T15:20:32Z</time></trkpt><trkpt lat="43.224956571303665" lon="12.180261579523254"><ele>430.66666666666663</ele><time>2026-04-26T15:20:33Z</time></trkpt><trkpt lat="43.2248488156061" lon="12.180194731928156"><ele>430.0</ele><time>2026-04-26T15:20:35Z</time></trkpt><trkpt lat="43.224781351383335" lon="12.18019017133598"><ele>429.3333333333333</ele><time>2026-04-26T15:20:36Z</time></trkpt><trkpt lat="43.22471759532293" lon="12.180178652503864"><ele>428.66666666666663</ele><time>2026-04-26T15:20:37Z</time></trkpt><trkpt lat="43.224672351428225" lon="12.180079965540195"><ele>428.0</ele><time>2026-04-26T15:20:39Z</time></trkpt><trkpt lat="43.22470824415735" lon="12.180008482363403"><ele>427.99999999999994</ele><time>2026-04-26T15:20:41Z</time></trkpt><trkpt lat="43.22475956891577" lon="12.179908962746312"><ele>428.0</ele><time>2026-04-26T15:20:43Z</time></trkpt><trkpt lat="43.2248049887242" lon="12.179755558934474"><ele>428.0</ele><time>2026-04-26T15:20:45Z</time></trkpt><trkpt lat="43.22485809642965" lon="12.179675087008265"><ele>428.0</ele><time>2026-04-26T15:20:47Z</time></trkpt><trkpt lat="43.22494493254006" lon="12.179646903986502"><ele>427.99999999999994</ele><time>2026-04-26T15:20:49Z</time></trkpt><trkpt lat="43.22500936658353" lon="12.179623827452167"><ele>428.0</ele><time>2026-04-26T15:20:50Z</time></trkpt><trkpt lat="43.22509023066511" lon="12.179598451797013"><ele>430.66666666666663</ele><time>2026-04-26T15:20:51Z</time></trkpt><trkpt lat="43.22517151341091" lon="12.179560763837229"><ele>433.3333333333333</ele><time>2026-04-26T15:20:52Z</time></trkpt><trkpt lat="43.225240925099754" lon="12.17952192819267"><ele>436.0</ele><time>2026-04-26T15:20:53Z</time></trkpt><trkpt lat="43.22531030525275" lon="12.179480352146511"><ele>438.66666666666663</ele><time>2026-04-26T15:20:54Z</time></trkpt><trkpt lat="43.225370474801075" lon="12.179445181722759"><ele>441.3333333333333</ele><time>2026-04-26T15:20:55Z</time></trkpt><trkpt lat="43.22544131272702" lon="12.179322298975649"><ele>444.0</ele><time>2026-04-26T15:20:57Z</time></trkpt><trkpt lat="43.22543842397702" lon="12.179219729255399"><ele>444.0</ele><time>2026-04-26T15:20:58Z</time></trkpt><trkpt lat="43.22546106367659" lon="12.179129686275946"><ele>444.0</ele><time>2026-04-26T15:21:00Z</time></trkpt><trkpt lat="43.22553274299997" lon="12.179090210390587"><ele>444.0</ele><time>2026-04-26T15:21:02Z</time></trkpt><trkpt lat="43.22561777300709" lon="12.178987580656885"><ele>444.0</ele><time>2026-04-26T15:21:04Z</time></trkpt><trkpt lat="43.22557717385175" lon="12.178864323302616"><ele>444.0</ele><time>2026-04-26T15:21:06Z</time></trkpt><trkpt lat="43.22555465257934" lon="12.178756193217305"><ele>444.0</ele><time>2026-04-26T15:21:08Z</time></trkpt><trkpt lat="43.22550063162311" lon="12.17864991930637"><ele>445.4</ele><time>2026-04-26T15:21:11Z</time></trkpt><trkpt lat="43.22556316306995" lon="12.178577931232347"><ele>446.79999999999995</ele><time>2026-04-26T15:21:13Z</time></trkpt><trkpt lat="43.22566489969393" lon="12.178530418919525"><ele>448.20000000000005</ele><time>2026-04-26T15:21:15Z</time></trkpt><trkpt lat="43.22574620619999" lon="12.178429181840562"><ele>449.6</ele><time>2026-04-26T15:21:17Z</time></trkpt><trkpt lat="43.22574201581032" lon="12.178264460556438"><ele>451.0</ele><time>2026-04-26T15:21:19Z</time></trkpt><trkpt lat="43.22572734426367" lon="12.178178419208386"><ele>452.6666666666667</ele><time>2026-04-26T15:21:20Z</time></trkpt><trkpt lat="43.225743809876455" lon="12.178069434302321"><ele>454.33333333333337</ele><time>2026-04-26T15:21:21Z</time></trkpt><trkpt lat="43.22574842256338" lon="12.177972874995277"><ele>456.0</ele><time>2026-04-26T15:21:22Z</time></trkpt><trkpt lat="43.22572302625646" lon="12.177867015091843"><ele>457.66666666666663</ele><time>2026-04-26T15:21:23Z</time></trkpt><trkpt lat="43.225688186294384" lon="12.177742510271859"><ele>459.3333333333333</ele><time>2026-04-26T15:21:24Z</time></trkpt><trkpt lat="43.22567138942605" lon="12.177642946845578"><ele>461.0</ele><time>2026-04-26T15:21:25Z</time></trkpt><trkpt lat="43.22567314124423" lon="12.177551050015046"><ele>461.0</ele><time>2026-04-26T15:21:26Z</time></trkpt><trkpt lat="43.22568005143281" lon="12.177389094550414"><ele>461.0</ele><time>2026-04-26T15:21:28Z</time></trkpt><trkpt lat="43.225689517383415" lon="12.177293902357846"><ele>461.0</ele><time>2026-04-26T15:21:29Z</time></trkpt><trkpt lat="43.225705227138256" lon="12.177170681375333"><ele>461.0</ele><time>2026-04-26T15:21:30Z</time></trkpt><trkpt lat="43.22571826208279" lon="12.177065532464834"><ele>461.0</ele><time>2026-04-26T15:21:31Z</time></trkpt><trkpt lat="43.22574059124356" lon="12.176907965781348"><ele>461.66666666666663</ele><time>2026-04-26T15:21:33Z</time></trkpt><trkpt lat="43.22575395544043" lon="12.17681090717005"><ele>462.3333333333333</ele><time>2026-04-26T15:21:34Z</time></trkpt><trkpt lat="43.225822223505766" lon="12.176698434403512"><ele>463.0</ele><time>2026-04-26T15:21:36Z</time></trkpt><trkpt lat="43.22590630125165" lon="12.176626134593114"><ele>463.66666666666663</ele><time>2026-04-26T15:21:38Z</time></trkpt><trkpt lat="43.225947998574426" lon="12.176550086572629"><ele>464.3333333333333</ele><time>2026-04-26T15:21:39Z</time></trkpt><trkpt lat="43.225979805051054" lon="12.17647504640564"><ele>465.0</ele><time>2026-04-26T15:21:40Z</time></trkpt><trkpt lat="43.22603772558444" lon="12.17635761977798"><ele>466.3333333333333</ele><time>2026-04-26T15:21:42Z</time></trkpt><trkpt lat="43.226064054735794" lon="12.17626775479193"><ele>467.66666666666663</ele><time>2026-04-26T15:21:43Z</time></trkpt><trkpt lat="43.226107563523676" lon="12.176137842670634"><ele>469.0</ele><time>2026-04-26T15:21:45Z</time></trkpt><trkpt lat="43.226145342463184" lon="12.176059404009708"><ele>470.3333333333333</ele><time>2026-04-26T15:21:47Z</time></trkpt><trkpt lat="43.22615366230815" lon="12.17593386274616"><ele>471.66666666666663</ele><time>2026-04-26T15:21:50Z</time></trkpt><trkpt lat="43.226148561443374" lon="12.17578823259334"><ele>473.0</ele><time>2026-04-26T15:21:52Z</time></trkpt><trkpt lat="43.226187577242" lon="12.17568454502464"><ele>475.16666666666663</ele><time>2026-04-26T15:21:54Z</time></trkpt><trkpt lat="43.22623066194335" lon="12.175614045945627"><ele>477.3333333333333</ele><time>2026-04-26T15:21:56Z</time></trkpt><trkpt lat="43.22623448017388" lon="12.175477657740164"><ele>479.5</ele><time>2026-04-26T15:21:58Z</time></trkpt><trkpt lat="43.22620641595395" lon="12.175365185093384"><ele>481.66666666666663</ele><time>2026-04-26T15:22:00Z</time></trkpt><trkpt lat="43.22621751444547" lon="12.17527338258021"><ele>483.8333333333333</ele><time>2026-04-26T15:22:04Z</time></trkpt><trkpt lat="43.22624439670386" lon="12.175150249725302"><ele>486.0</ele><time>2026-04-26T15:22:47Z</time></trkpt><trkpt lat="43.226236391550835" lon="12.175061909854511"><ele>486.0</ele><time>2026-04-26T15:23:02Z</time></trkpt><trkpt lat="43.2261936070166" lon="12.174968553510904"><ele>486.0</ele><time>2026-04-26T15:23:22Z</time></trkpt><trkpt lat="43.22615464984291" lon="12.17488154733964"><ele>486.0</ele><time>2026-04-26T15:23:25Z</time></trkpt><trkpt lat="43.22611646597829" lon="12.174781869156526"><ele>486.0</ele><time>2026-04-26T15:23:27Z</time></trkpt><trkpt lat="43.22606441973525" lon="12.174698101240494"><ele>486.0</ele><time>2026-04-26T15:23:29Z</time></trkpt><trkpt lat="43.22601945528323" lon="12.174623868021932"><ele>486.0</ele><time>2026-04-26T15:23:31Z</time></trkpt><trkpt lat="43.22597804979292" lon="12.174552039144208"><ele>488.0</ele><time>2026-04-26T15:23:34Z</time></trkpt><trkpt lat="43.22593526434952" lon="12.17446132818518"><ele>490.0</ele><time>2026-04-26T15:23:36Z</time></trkpt><trkpt lat="43.225948666506746" lon="12.17436077246583"><ele>492.0</ele><time>2026-04-26T15:23:39Z</time></trkpt><trkpt lat="43.22601956948326" lon="12.174334495040577"><ele>494.0</ele><time>2026-04-26T15:23:41Z</time></trkpt><trkpt lat="43.22610230329012" lon="12.174291695681923"><ele>496.0</ele><time>2026-04-26T15:23:44Z</time></trkpt><trkpt lat="43.22617617125514" lon="12.174235286013563"><ele>498.0</ele><time>2026-04-26T15:23:47Z</time></trkpt><trkpt lat="43.22627295233395" lon="12.17420604824212"><ele>498.0</ele><time>2026-04-26T15:23:50Z</time></trkpt><trkpt lat="43.226346107896596" lon="12.174157521266995"><ele>498.0</ele><time>2026-04-26T15:23:53Z</time></trkpt><trkpt lat="43.226417323306784" lon="12.17411066971565"><ele>498.0</ele><time>2026-04-26T15:23:56Z</time></trkpt><trkpt lat="43.226482355280524" lon="12.174087057931954"><ele>498.0</ele><time>2026-04-26T15:23:58Z</time></trkpt><trkpt lat="43.22654496820037" lon="12.174072124471497"><ele>498.0</ele><time>2026-04-26T15:24:00Z</time></trkpt><trkpt lat="43.22661772729586" lon="12.174008479320127"><ele>498.0</ele><time>2026-04-26T15:24:03Z</time></trkpt><trkpt lat="43.226697694075504" lon="12.173987848146757"><ele>502.1666666666667</ele><time>2026-04-26T15:24:05Z</time></trkpt><trkpt lat="43.226786228850244" lon="12.173991764748362"><ele>506.33333333333337</ele><time>2026-04-26T15:24:07Z</time></trkpt><trkpt lat="43.226860404203016" lon="12.173985624432227"><ele>510.5</ele><time>2026-04-26T15:24:09Z</time></trkpt><trkpt lat="43.22695265964117" lon="12.17392369205014"><ele>514.6666666666667</ele><time>2026-04-26T15:24:12Z</time></trkpt><trkpt lat="43.22698356698732" lon="12.173843171305734"><ele>518.8333333333334</ele><time>2026-04-26T15:24:14Z</time></trkpt><trkpt lat="43.22691665159236" lon="12.173796632293506"><ele>523.0</ele><time>2026-04-26T15:24:17Z</time></trkpt><trkpt lat="43.22685979211198" lon="12.173726103771354"><ele>523.0</ele><time>2026-04-26T15:24:20Z</time></trkpt><trkpt lat="43.22683905696827" lon="12.173607379496186"><ele>523.0</ele><time>2026-04-26T15:24:24Z</time></trkpt><trkpt lat="43.226774664379846" lon="12.173544621645055"><ele>523.0</ele><time>2026-04-26T15:24:26Z</time></trkpt><trkpt lat="43.22672579259726" lon="12.173416753031656"><ele>523.0</ele><time>2026-04-26T15:24:29Z</time></trkpt><trkpt lat="43.22671565639911" lon="12.173265005136594"><ele>523.0</ele><time>2026-04-26T15:24:31Z</time></trkpt><trkpt lat="43.22675273785251" lon="12.173176425750889"><ele>525.0</ele><time>2026-04-26T15:24:33Z</time></trkpt><trkpt lat="43.22684914285138" lon="12.1731176015974"><ele>527.0</ele><time>2026-04-26T15:24:36Z</time></trkpt><trkpt lat="43.22691716613234" lon="12.173104583727286"><ele>529.0</ele><time>2026-04-26T15:24:38Z</time></trkpt><trkpt lat="43.22693465167997" lon="12.172998762346209"><ele>531.0</ele><time>2026-04-26T15:24:40Z</time></trkpt><trkpt lat="43.22688509042851" lon="12.172928422432745"><ele>533.0</ele><time>2026-04-26T15:24:43Z</time></trkpt><trkpt lat="43.226879973858054" lon="12.172810377723929"><ele>535.0</ele><time>2026-04-26T15:24:44Z</time></trkpt><trkpt lat="43.22689477050613" lon="12.172670138834441"><ele>535.0</ele><time>2026-04-26T15:24:47Z</time></trkpt><trkpt lat="43.226922410623615" lon="12.17257727820137"><ele>535.0</ele><time>2026-04-26T15:24:49Z</time></trkpt><trkpt lat="43.22694887686411" lon="12.172491938292415"><ele>535.0</ele><time>2026-04-26T15:24:51Z</time></trkpt><trkpt lat="43.226940749850606" lon="12.1724046481611"><ele>535.0</ele><time>2026-04-26T15:24:53Z</time></trkpt><trkpt lat="43.226920733751655" lon="12.172305057289002"><ele>535.0</ele><time>2026-04-26T15:24:55Z</time></trkpt><trkpt lat="43.22691656148394" lon="12.172181200222287"><ele>535.0</ele><time>2026-04-26T15:24:58Z</time></trkpt><trkpt lat="43.226857702013554" lon="12.172080082317072"><ele>537.5</ele><time>2026-04-26T15:25:00Z</time></trkpt><trkpt lat="43.22678870571234" lon="12.171979750527717"><ele>540.0</ele><time>2026-04-26T15:25:02Z</time></trkpt><trkpt lat="43.22673785950384" lon="12.171886200946714"><ele>542.5</ele><time>2026-04-26T15:25:04Z</time></trkpt><trkpt lat="43.226660785773966" lon="12.171797641750908"><ele>545.0</ele><time>2026-04-26T15:25:06Z</time></trkpt><trkpt lat="43.22660478704179" lon="12.171708511943603"><ele>547.5</ele><time>2026-04-26T15:25:08Z</time></trkpt><trkpt lat="43.22659164123727" lon="12.171619940947997"><ele>550.0</ele><time>2026-04-26T15:25:10Z</time></trkpt><trkpt lat="43.226649890279724" lon="12.171531248572704"><ele>551.6666666666667</ele><time>2026-04-26T15:25:13Z</time></trkpt><trkpt lat="43.2267429134998" lon="12.17148473441149"><ele>553.3333333333334</ele><time>2026-04-26T15:25:15Z</time></trkpt><trkpt lat="43.226865770754465" lon="12.171489671715703"><ele>555.0</ele><time>2026-04-26T15:25:17Z</time></trkpt><trkpt lat="43.226934899495944" lon="12.171471631404332"><ele>556.6666666666666</ele><time>2026-04-26T15:25:18Z</time></trkpt><trkpt lat="43.22701670013493" lon="12.171453617723738"><ele>558.3333333333333</ele><time>2026-04-26T15:25:20Z</time></trkpt><trkpt lat="43.22705663434274" lon="12.17137777397735"><ele>560.0</ele><time>2026-04-26T15:25:22Z</time></trkpt><trkpt lat="43.22703283216634" lon="12.171263204347621"><ele>560.0</ele><time>2026-04-26T15:25:24Z</time></trkpt><trkpt lat="43.226957397173884" lon="12.171163855350446"><ele>560.0</ele><time>2026-04-26T15:25:26Z</time></trkpt><trkpt lat="43.22690356981639" lon="12.171078587522134"><ele>560.0</ele><time>2026-04-26T15:25:28Z</time></trkpt><trkpt lat="43.22681414658047" lon="12.171014610435162"><ele>560.0</ele><time>2026-04-26T15:25:30Z</time></trkpt><trkpt lat="43.2267685389726" lon="12.170952835402204"><ele>560.0</ele><time>2026-04-26T15:25:32Z</time></trkpt><trkpt lat="43.22674576933493" lon="12.170818229303517"><ele>560.8333333333333</ele><time>2026-04-26T15:25:34Z</time></trkpt><trkpt lat="43.226776985517155" lon="12.170676306875823"><ele>561.6666666666666</ele><time>2026-04-26T15:25:36Z</time></trkpt><trkpt lat="43.22676623404459" lon="12.170577907703315"><ele>562.5</ele><time>2026-04-26T15:25:38Z</time></trkpt><trkpt lat="43.22682906216978" lon="12.170550007068888"><ele>563.3333333333334</ele><time>2026-04-26T15:25:40Z</time></trkpt><trkpt lat="43.226929756191545" lon="12.170599776844623"><ele>564.1666666666667</ele><time>2026-04-26T15:25:42Z</time></trkpt><trkpt lat="43.22699074744221" lon="12.170633640099737"><ele>565.0</ele><time>2026-04-26T15:25:43Z</time></trkpt><trkpt lat="43.22706129304069" lon="12.170657080983851"><ele>564.9999999999999</ele><time>2026-04-26T15:25:44Z</time></trkpt><trkpt lat="43.227124840184466" lon="12.170673080175426"><ele>565.0</ele><time>2026-04-26T15:25:45Z</time></trkpt><trkpt lat="43.22718945124451" lon="12.170697137524597"><ele>565.0</ele><time>2026-04-26T15:25:46Z</time></trkpt><trkpt lat="43.227250006298945" lon="12.170724098848437"><ele>565.0</ele><time>2026-04-26T15:25:47Z</time></trkpt><trkpt lat="43.22734443476356" lon="12.170729699684818"><ele>565.0</ele><time>2026-04-26T15:25:49Z</time></trkpt><trkpt lat="43.22738727763064" lon="12.170654649906032"><ele>564.9999999999999</ele><time>2026-04-26T15:25:53Z</time></trkpt><trkpt lat="43.227343030081215" lon="12.170569737340198"><ele>565.0</ele><time>2026-04-26T15:25:55Z</time></trkpt><trkpt lat="43.227289654552656" lon="12.170504884757731"><ele>565.0</ele><time>2026-04-26T15:25:57Z</time></trkpt><trkpt lat="43.22722011590267" lon="12.170397216606323"><ele>565.0</ele><time>2026-04-26T15:25:59Z</time></trkpt><trkpt lat="43.22715377831971" lon="12.170262575422308"><ele>565.0</ele><time>2026-04-26T15:26:01Z</time></trkpt><trkpt lat="43.22709667226012" lon="12.170117563977458"><ele>565.0</ele><time>2026-04-26T15:26:03Z</time></trkpt><trkpt lat="43.227060126601536" lon="12.170039136194951"><ele>565.0</ele><time>2026-04-26T15:26:04Z</time></trkpt><trkpt lat="43.22701205376955" lon="12.169891392679393"><ele>565.6</ele><time>2026-04-26T15:26:06Z</time></trkpt><trkpt lat="43.226993727135984" lon="12.16976201101766"><ele>566.2</ele><time>2026-04-26T15:26:08Z</time></trkpt><trkpt lat="43.22697077516432" lon="12.169667830017621"><ele>566.8</ele><time>2026-04-26T15:26:10Z</time></trkpt><trkpt lat="43.22698835725284" lon="12.169536724277284"><ele>567.4</ele><time>2026-04-26T15:26:13Z</time></trkpt><trkpt lat="43.226984072814716" lon="12.169360494005733"><ele>568.0</ele><time>2026-04-26T15:26:15Z</time></trkpt><trkpt lat="43.22698342990697" lon="12.169219210040401"><ele>568.0</ele><time>2026-04-26T15:26:17Z</time></trkpt><trkpt lat="43.22699165469608" lon="12.169048989372687"><ele>568.0</ele><time>2026-04-26T15:26:19Z</time></trkpt><trkpt lat="43.22698653124137" lon="12.168909920653878"><ele>568.0</ele><time>2026-04-26T15:26:21Z</time></trkpt><trkpt lat="43.226986457717366" lon="12.168794001979775"><ele>568.0</ele><time>2026-04-26T15:26:23Z</time></trkpt><trkpt lat="43.22698323715383" lon="12.16866502498264"><ele>568.0</ele><time>2026-04-26T15:26:25Z</time></trkpt><trkpt lat="43.226980473076104" lon="12.16855129933006"><ele>568.0</ele><time>2026-04-26T15:26:27Z</time></trkpt><trkpt lat="43.226992123365434" lon="12.168453410326267"><ele>568.0</ele><time>2026-04-26T15:26:29Z</time></trkpt><trkpt lat="43.22705474791841" lon="12.168333687126498"><ele>568.0</ele><time>2026-04-26T15:26:31Z</time></trkpt><trkpt lat="43.22712118967023" lon="12.16827748554623"><ele>568.0</ele><time>2026-04-26T15:26:32Z</time></trkpt><trkpt lat="43.22720052755629" lon="12.168208765410471"><ele>568.0</ele><time>2026-04-26T15:26:33Z</time></trkpt><trkpt lat="43.22729641712322" lon="12.168174126222656"><ele>572.1999999999999</ele><time>2026-04-26T15:26:34Z</time></trkpt><trkpt lat="43.227386813885914" lon="12.168096212960632"><ele>576.4</ele><time>2026-04-26T15:26:35Z</time></trkpt><trkpt lat="43.227435303556845" lon="12.168030698343758"><ele>580.5999999999999</ele><time>2026-04-26T15:26:36Z</time></trkpt><trkpt lat="43.22749427103238" lon="12.16792704235995"><ele>584.8</ele><time>2026-04-26T15:26:38Z</time></trkpt><trkpt lat="43.22754372446464" lon="12.167795124635557"><ele>589.0</ele><time>2026-04-26T15:26:40Z</time></trkpt><trkpt lat="43.22760000848101" lon="12.167722624000476"><ele>589.0</ele><time>2026-04-26T15:26:41Z</time></trkpt><trkpt lat="43.22764753071667" lon="12.16762621357562"><ele>589.0</ele><time>2026-04-26T15:26:42Z</time></trkpt><trkpt lat="43.22768536445462" lon="12.167542012652177"><ele>589.0</ele><time>2026-04-26T15:26:43Z</time></trkpt><trkpt lat="43.227691442986284" lon="12.167432562312811"><ele>589.0</ele><time>2026-04-26T15:26:44Z</time></trkpt><trkpt lat="43.22769596792334" lon="12.167335101498342"><ele>589.0</ele><time>2026-04-26T15:26:45Z</time></trkpt><trkpt lat="43.22766940196401" lon="12.167193879208124"><ele>589.0</ele><time>2026-04-26T15:26:46Z</time></trkpt><trkpt lat="43.22765045890673" lon="12.167071223919159"><ele>590.4</ele><time>2026-04-26T15:26:47Z</time></trkpt><trkpt lat="43.22762578189411" lon="12.166946398339608"><ele>591.8</ele><time>2026-04-26T15:26:48Z</time></trkpt><trkpt lat="43.227619274662935" lon="12.16681098451983"><ele>593.2</ele><time>2026-04-26T15:26:49Z</time></trkpt><trkpt lat="43.22761767374008" lon="12.166697782100924"><ele>594.6</ele><time>2026-04-26T15:26:50Z</time></trkpt><trkpt lat="43.22761294851032" lon="12.16658333789018"><ele>596.0</ele><time>2026-04-26T15:26:51Z</time></trkpt><trkpt lat="43.227601554341234" lon="12.166457563768432"><ele>596.8</ele><time>2026-04-26T15:26:52Z</time></trkpt><trkpt lat="43.22759075771619" lon="12.166341960054257"><ele>597.6</ele><time>2026-04-26T15:26:53Z</time></trkpt><trkpt lat="43.22762310579506" lon="12.166197352184797"><ele>598.4</ele><time>2026-04-26T15:26:55Z</time></trkpt><trkpt lat="43.22768776863194" lon="12.1661301771473"><ele>599.2</ele><time>2026-04-26T15:26:56Z</time></trkpt><trkpt lat="43.227763430301074" lon="12.166020001539593"><ele>600.0</ele><time>2026-04-26T15:26:57Z</time></trkpt><trkpt lat="43.227836988636206" lon="12.165881456322534"><ele>600.0</ele><time>2026-04-26T15:26:58Z</time></trkpt><trkpt lat="43.22786608332539" lon="12.16575684958266"><ele>600.0</ele><time>2026-04-26T15:27:00Z</time></trkpt><trkpt lat="43.22789345636593" lon="12.16555162934361"><ele>600.0</ele><time>2026-04-26T15:27:02Z</time></trkpt><trkpt lat="43.22792734221767" lon="12.165436167506885"><ele>600.0</ele><time>2026-04-26T15:27:03Z</time></trkpt><trkpt lat="43.22794883920532" lon="12.165309402739545"><ele>600.0</ele><time>2026-04-26T15:27:04Z</time></trkpt><trkpt lat="43.22798658732783" lon="12.165184486802683"><ele>600.6</ele><time>2026-04-26T15:27:05Z</time></trkpt><trkpt lat="43.228052998343635" lon="12.165152550460123"><ele>601.2</ele><time>2026-04-26T15:27:07Z</time></trkpt><trkpt lat="43.228123086701416" lon="12.165092673049191"><ele>601.8</ele><time>2026-04-26T15:27:08Z</time></trkpt><trkpt lat="43.228190721921735" lon="12.164988282255852"><ele>602.4</ele><time>2026-04-26T15:27:09Z</time></trkpt><trkpt lat="43.228271672458646" lon="12.164894546723366"><ele>603.0</ele><time>2026-04-26T15:27:10Z</time></trkpt><trkpt lat="43.228342377833535" lon="12.164817700237524"><ele>606.8</ele><time>2026-04-26T15:27:11Z</time></trkpt><trkpt lat="43.2284274272586" lon="12.16476666056006"><ele>610.5999999999999</ele><time>2026-04-26T15:27:12Z</time></trkpt><trkpt lat="43.228507128848776" lon="12.164716235592255"><ele>614.4000000000001</ele><time>2026-04-26T15:27:13Z</time></trkpt><trkpt lat="43.228592539183715" lon="12.164671134619866"><ele>618.2</ele><time>2026-04-26T15:27:14Z</time></trkpt><trkpt lat="43.228689536629425" lon="12.164631668475415"><ele>622.0</ele><time>2026-04-26T15:27:15Z</time></trkpt><trkpt lat="43.228783123394315" lon="12.164592157723646"><ele>622.0</ele><time>2026-04-26T15:27:16Z</time></trkpt><trkpt lat="43.22885465957946" lon="12.16455688057099"><ele>622.0</ele><time>2026-04-26T15:27:17Z</time></trkpt><trkpt lat="43.22890960490825" lon="12.164496593917127"><ele>622.0</ele><time>2026-04-26T15:27:18Z</time></trkpt><trkpt lat="43.22897330530456" lon="12.164376345252698"><ele>622.0</ele><time>2026-04-26T15:27:20Z</time></trkpt><trkpt lat="43.228996774094604" lon="12.164276808801192"><ele>622.0</ele><time>2026-04-26T15:27:21Z</time></trkpt><trkpt lat="43.229016745177375" lon="12.164177088592385"><ele>622.0</ele><time>2026-04-26T15:27:22Z</time></trkpt><trkpt lat="43.22902902500178" lon="12.164076866219892"><ele>623.8333333333334</ele><time>2026-04-26T15:27:23Z</time></trkpt><trkpt lat="43.22902201202659" lon="12.16396298371239"><ele>625.6666666666667</ele><time>2026-04-26T15:27:24Z</time></trkpt><trkpt lat="43.22902976077938" lon="12.163856029422302"><ele>627.5</ele><time>2026-04-26T15:27:25Z</time></trkpt><trkpt lat="43.2290238220643" lon="12.16372526907338"><ele>629.3333333333334</ele><time>2026-04-26T15:27:26Z</time></trkpt><trkpt lat="43.22900591261217" lon="12.163601322977417"><ele>631.1666666666666</ele><time>2026-04-26T15:27:27Z</time></trkpt><trkpt lat="43.228977259751694" lon="12.163504972662617"><ele>633.0</ele><time>2026-04-26T15:27:28Z</time></trkpt><trkpt lat="43.22894583437184" lon="12.163411942364238"><ele>633.0</ele><time>2026-04-26T15:27:29Z</time></trkpt><trkpt lat="43.22889836026084" lon="12.163335257651639"><ele>633.0</ele><time>2026-04-26T15:27:30Z</time></trkpt><trkpt lat="43.22884754207022" lon="12.163272915068648"><ele>633.0</ele><time>2026-04-26T15:27:31Z</time></trkpt><trkpt lat="43.22881395998054" lon="12.163193717715009"><ele>633.0</ele><time>2026-04-26T15:27:32Z</time></trkpt><trkpt lat="43.228769606220084" lon="12.16310586534934"><ele>633.0</ele><time>2026-04-26T15:27:33Z</time></trkpt><trkpt lat="43.22872330704256" lon="12.163005313973882"><ele>633.0</ele><time>2026-04-26T15:27:34Z</time></trkpt><trkpt lat="43.228662234305716" lon="12.162908332897054"><ele>635.5</ele><time>2026-04-26T15:27:35Z</time></trkpt><trkpt lat="43.22862463485476" lon="12.162817461989643"><ele>638.0</ele><time>2026-04-26T15:27:36Z</time></trkpt><trkpt lat="43.22858506275503" lon="12.162726718135572"><ele>640.5</ele><time>2026-04-26T15:27:37Z</time></trkpt><trkpt lat="43.22854701594152" lon="12.162621225143678"><ele>643.0</ele><time>2026-04-26T15:27:38Z</time></trkpt><trkpt lat="43.22851116803059" lon="12.162536388716909"><ele>645.5</ele><time>2026-04-26T15:27:39Z</time></trkpt><trkpt lat="43.22847892892714" lon="12.162437090758871"><ele>648.0</ele><time>2026-04-26T15:27:40Z</time></trkpt><trkpt lat="43.22846024219951" lon="12.162304729680892"><ele>648.5</ele><time>2026-04-26T15:27:41Z</time></trkpt><trkpt lat="43.2284425307926" lon="12.162193124246452"><ele>649.0</ele><time>2026-04-26T15:27:42Z</time></trkpt><trkpt lat="43.22841662050733" lon="12.1620530387246"><ele>649.5</ele><time>2026-04-26T15:27:44Z</time></trkpt><trkpt lat="43.22840582491445" lon="12.161906123844052"><ele>650.0</ele><time>2026-04-26T15:27:46Z</time></trkpt><trkpt lat="43.22842578991616" lon="12.161807819089379"><ele>650.5</ele><time>2026-04-26T15:27:48Z</time></trkpt><trkpt lat="43.22845568122952" lon="12.161719081730249"><ele>651.0</ele><time>2026-04-26T15:27:50Z</time></trkpt><trkpt lat="43.228459306805725" lon="12.161572478034591"><ele>650.1666666666666</ele><time>2026-04-26T15:27:53Z</time></trkpt><trkpt lat="43.2284602503865" lon="12.161478399374634"><ele>649.3333333333334</ele><time>2026-04-26T15:27:54Z</time></trkpt><trkpt lat="43.228460250387165" lon="12.161367532839806"><ele>648.5</ele><time>2026-04-26T15:27:55Z</time></trkpt><trkpt lat="43.2284530392441" lon="12.16124327730665"><ele>647.6666666666667</ele><time>2026-04-26T15:27:56Z</time></trkpt><trkpt lat="43.22844104445878" lon="12.161125091394647"><ele>646.8333333333334</ele><time>2026-04-26T15:27:57Z</time></trkpt><trkpt lat="43.2284353016682" lon="12.161006790654731"><ele>646.0</ele><time>2026-04-26T15:27:58Z</time></trkpt><trkpt lat="43.22843175686004" lon="12.160902547922092"><ele>646.0</ele><time>2026-04-26T15:27:59Z</time></trkpt><trkpt lat="43.22845446694473" lon="12.16080279046738"><ele>646.0</ele><time>2026-04-26T15:28:00Z</time></trkpt><trkpt lat="43.22848169291728" lon="12.160703794159186"><ele>646.0</ele><time>2026-04-26T15:28:01Z</time></trkpt><trkpt lat="43.22851490263251" lon="12.16062305778102"><ele>646.0</ele><time>2026-04-26T15:28:02Z</time></trkpt><trkpt lat="43.228574477131104" lon="12.160526522313862"><ele>646.0</ele><time>2026-04-26T15:28:03Z</time></trkpt><trkpt lat="43.228652645396686" lon="12.160433779947978"><ele>646.0</ele><time>2026-04-26T15:28:04Z</time></trkpt><trkpt lat="43.22874675158755" lon="12.160345331255844"><ele>645.8</ele><time>2026-04-26T15:28:05Z</time></trkpt><trkpt lat="43.22884685189849" lon="12.160281518717664"><ele>645.5999999999999</ele><time>2026-04-26T15:28:06Z</time></trkpt><trkpt lat="43.228923842441695" lon="12.160223333951114"><ele>645.4</ele><time>2026-04-26T15:28:07Z</time></trkpt><trkpt lat="43.228997630818924" lon="12.160155135054916"><ele>645.2</ele><time>2026-04-26T15:28:08Z</time></trkpt><trkpt lat="43.229060002238654" lon="12.160044702272613"><ele>645.0</ele><time>2026-04-26T15:28:09Z</time></trkpt><trkpt lat="43.22910615637638" lon="12.159938365201214"><ele>644.2</ele><time>2026-04-26T15:28:10Z</time></trkpt><trkpt lat="43.229141816457734" lon="12.159850495510467"><ele>643.4</ele><time>2026-04-26T15:28:11Z</time></trkpt><trkpt lat="43.229190864372576" lon="12.159701001631731"><ele>642.5999999999999</ele><time>2026-04-26T15:28:12Z</time></trkpt><trkpt lat="43.22920028484059" lon="12.159548409485282"><ele>641.8</ele><time>2026-04-26T15:28:13Z</time></trkpt><trkpt lat="43.22920693399236" lon="12.159404176800379"><ele>641.0</ele><time>2026-04-26T15:28:14Z</time></trkpt><trkpt lat="43.22923615015365" lon="12.159290608174466"><ele>641.0</ele><time>2026-04-26T15:28:15Z</time></trkpt><trkpt lat="43.22925363424935" lon="12.159178703053588"><ele>641.0</ele><time>2026-04-26T15:28:16Z</time></trkpt><trkpt lat="43.22927463229419" lon="12.159075792056418"><ele>641.0</ele><time>2026-04-26T15:28:17Z</time></trkpt><trkpt lat="43.22930746945163" lon="12.158980962550753"><ele>641.0</ele><time>2026-04-26T15:28:18Z</time></trkpt><trkpt lat="43.22935650007756" lon="12.158902996737627"><ele>641.0</ele><time>2026-04-26T15:28:19Z</time></trkpt><trkpt lat="43.22941442531919" lon="12.158845938139835"><ele>641.0</ele><time>2026-04-26T15:28:20Z</time></trkpt><trkpt lat="43.22950323361433" lon="12.158782288974049"><ele>641.0</ele><time>2026-04-26T15:28:22Z</time></trkpt><trkpt lat="43.229580802577104" lon="12.158718822757303"><ele>641.0</ele><time>2026-04-26T15:28:27Z</time></trkpt><trkpt lat="43.2296334500568" lon="12.15866647829068"><ele>641.0</ele><time>2026-04-26T15:28:28Z</time></trkpt><trkpt lat="43.22969581345147" lon="12.158596481081517"><ele>641.0</ele><time>2026-04-26T15:28:29Z</time></trkpt><trkpt lat="43.22975832277828" lon="12.158501324346014"><ele>641.0</ele><time>2026-04-26T15:28:30Z</time></trkpt><trkpt lat="43.22981177446113" lon="12.158386152138291"><ele>641.0</ele><time>2026-04-26T15:28:31Z</time></trkpt><trkpt lat="43.22985480790127" lon="12.158264109317697"><ele>641.6666666666666</ele><time>2026-04-26T15:28:32Z</time></trkpt><trkpt lat="43.229898502102735" lon="12.158115870791844"><ele>642.3333333333333</ele><time>2026-04-26T15:28:33Z</time></trkpt><trkpt lat="43.229927128768544" lon="12.157987439639488"><ele>643.0</ele><time>2026-04-26T15:28:34Z</time></trkpt><trkpt lat="43.22994576504856" lon="12.15788830878619"><ele>643.6666666666666</ele><time>2026-04-26T15:28:35Z</time></trkpt><trkpt lat="43.22994860235239" lon="12.157776177248332"><ele>644.3333333333334</ele><time>2026-04-26T15:28:36Z</time></trkpt><trkpt lat="43.229944910539466" lon="12.157682704749137"><ele>645.0</ele><time>2026-04-26T15:28:37Z</time></trkpt><trkpt lat="43.230077998221944" lon="12.157739302976765"><ele>645.0</ele><time>2026-04-26T15:28:43Z</time></trkpt><trkpt lat="43.23018947381061" lon="12.157692803880282"><ele>645.0</ele><time>2026-04-26T15:28:45Z</time></trkpt><trkpt lat="43.2302491699697" lon="12.15764212251297"><ele>645.0</ele><time>2026-04-26T15:28:46Z</time></trkpt><trkpt lat="43.230309880248875" lon="12.157556700476412"><ele>645.0</ele><time>2026-04-26T15:28:47Z</time></trkpt><trkpt lat="43.23037458326174" lon="12.157485552263966"><ele>645.0</ele><time>2026-04-26T15:28:48Z</time></trkpt><trkpt lat="43.23044156360011" lon="12.157430569566063"><ele>645.0</ele><time>2026-04-26T15:28:49Z</time></trkpt><trkpt lat="43.23050380585353" lon="12.157386773412355"><ele>645.6666666666666</ele><time>2026-04-26T15:28:50Z</time></trkpt><trkpt lat="43.230561100415784" lon="12.157341517422337"><ele>646.3333333333334</ele><time>2026-04-26T15:28:51Z</time></trkpt><trkpt lat="43.23063493082141" lon="12.157289203091516"><ele>647.0</ele><time>2026-04-26T15:28:52Z</time></trkpt><trkpt lat="43.23069403977398" lon="12.157243823827939"><ele>647.6666666666667</ele><time>2026-04-26T15:28:53Z</time></trkpt><trkpt lat="43.2307559994528" lon="12.157198666983144"><ele>648.3333333333334</ele><time>2026-04-26T15:28:54Z</time></trkpt><trkpt lat="43.230817227205776" lon="12.157151965073323"><ele>649.0</ele><time>2026-04-26T15:28:55Z</time></trkpt><trkpt lat="43.23091327021165" lon="12.157086775099053"><ele>649.0</ele><time>2026-04-26T15:28:57Z</time></trkpt><trkpt lat="43.230959507501375" lon="12.156979309581741"><ele>649.0</ele><time>2026-04-26T15:28:59Z</time></trkpt><trkpt lat="43.2309903694536" lon="12.156901940714555"><ele>649.0</ele><time>2026-04-26T15:29:00Z</time></trkpt><trkpt lat="43.23103451121974" lon="12.156736711820164"><ele>649.0</ele><time>2026-04-26T15:29:02Z</time></trkpt><trkpt lat="43.23104492488485" lon="12.156643214281711"><ele>649.0</ele><time>2026-04-26T15:29:03Z</time></trkpt><trkpt lat="43.23105802647352" lon="12.15654942522569"><ele>649.0</ele><time>2026-04-26T15:29:04Z</time></trkpt><trkpt lat="43.23106417115425" lon="12.156459901646572"><ele>649.3333333333334</ele><time>2026-04-26T15:29:05Z</time></trkpt><trkpt lat="43.23105430335997" lon="12.156350960682808"><ele>649.6666666666667</ele><time>2026-04-26T15:29:06Z</time></trkpt><trkpt lat="43.23105519730421" lon="12.15623597266716"><ele>650.0</ele><time>2026-04-26T15:29:07Z</time></trkpt><trkpt lat="43.23104807704789" lon="12.156137124430357"><ele>650.3333333333334</ele><time>2026-04-26T15:29:08Z</time></trkpt><trkpt lat="43.23104102557547" lon="12.155990473719369"><ele>650.6666666666666</ele><time>2026-04-26T15:29:10Z</time></trkpt><trkpt lat="43.23103102768452" lon="12.155903971818589"><ele>651.0</ele><time>2026-04-26T15:29:11Z</time></trkpt><trkpt lat="43.23104245707209" lon="12.155749414664049"><ele>651.0</ele><time>2026-04-26T15:29:13Z</time></trkpt><trkpt lat="43.23109642330232" lon="12.155634128086517"><ele>651.0</ele><time>2026-04-26T15:29:15Z</time></trkpt><trkpt lat="43.2311749741263" lon="12.155626834080818"><ele>651.0</ele><time>2026-04-26T15:29:17Z</time></trkpt><trkpt lat="43.23127743724951" lon="12.155685689905487"><ele>651.0</ele><time>2026-04-26T15:29:19Z</time></trkpt><trkpt lat="43.23134084500097" lon="12.15572167056297"><ele>651.0</ele><time>2026-04-26T15:29:20Z</time></trkpt><trkpt lat="43.231412627051625" lon="12.1557546720446"><ele>651.0</ele><time>2026-04-26T15:29:21Z</time></trkpt><trkpt lat="43.23150102738476" lon="12.155802355770776"><ele>649.3333333333334</ele><time>2026-04-26T15:29:22Z</time></trkpt><trkpt lat="43.2315987014663" lon="12.155855734351258"><ele>647.6666666666666</ele><time>2026-04-26T15:29:23Z</time></trkpt><trkpt lat="43.231693545640255" lon="12.155898526450766"><ele>646.0</ele><time>2026-04-26T15:29:24Z</time></trkpt><trkpt lat="43.23176016312756" lon="12.155919394694067"><ele>644.3333333333333</ele><time>2026-04-26T15:29:25Z</time></trkpt><trkpt lat="43.231828442436" lon="12.155925532989349"><ele>642.6666666666666</ele><time>2026-04-26T15:29:26Z</time></trkpt><trkpt lat="43.23191262726774" lon="12.155931404646212"><ele>641.0</ele><time>2026-04-26T15:29:28Z</time></trkpt><trkpt lat="43.232026667752066" lon="12.155916232581628"><ele>641.0</ele><time>2026-04-26T15:29:30Z</time></trkpt><trkpt lat="43.2320940139022" lon="12.155806694951409"><ele>641.0</ele><time>2026-04-26T15:29:32Z</time></trkpt><trkpt lat="43.23210281666531" lon="12.155667598691446"><ele>641.0</ele><time>2026-04-26T15:29:34Z</time></trkpt><trkpt lat="43.232101303474984" lon="12.155567686892756"><ele>641.0</ele><time>2026-04-26T15:29:35Z</time></trkpt><trkpt lat="43.23210946460553" lon="12.155465941031862"><ele>641.0</ele><time>2026-04-26T15:29:36Z</time></trkpt><trkpt lat="43.23214608725076" lon="12.155349555716475"><ele>641.0</ele><time>2026-04-26T15:29:38Z</time></trkpt><trkpt lat="43.23218100385223" lon="12.155236538900743"><ele>640.1666666666666</ele><time>2026-04-26T15:29:40Z</time></trkpt><trkpt lat="43.232194768650444" lon="12.155145000383527"><ele>639.3333333333333</ele><time>2026-04-26T15:29:42Z</time></trkpt><trkpt lat="43.23223551430777" lon="12.155048123608946"><ele>638.5</ele><time>2026-04-26T15:29:45Z</time></trkpt><trkpt lat="43.23236668701818" lon="12.155013858852529"><ele>637.6666666666666</ele><time>2026-04-26T15:29:47Z</time></trkpt><trkpt lat="43.23245340819621" lon="12.154997467024177"><ele>636.8333333333334</ele><time>2026-04-26T15:29:48Z</time></trkpt><trkpt lat="43.232524800728754" lon="12.155000540486567"><ele>636.0</ele><time>2026-04-26T15:29:49Z</time></trkpt><trkpt lat="43.23259576585488" lon="12.155015219390199"><ele>636.0</ele><time>2026-04-26T15:29:50Z</time></trkpt><trkpt lat="43.23266624573887" lon="12.155030416552698"><ele>636.0</ele><time>2026-04-26T15:29:51Z</time></trkpt><trkpt lat="43.232740347079755" lon="12.155040119549911"><ele>636.0</ele><time>2026-04-26T15:29:52Z</time></trkpt><trkpt lat="43.23281375767782" lon="12.155045949734497"><ele>636.0</ele><time>2026-04-26T15:29:53Z</time></trkpt><trkpt lat="43.232877785022694" lon="12.155059842429614"><ele>636.0</ele><time>2026-04-26T15:29:54Z</time></trkpt><trkpt lat="43.23294219263669" lon="12.155072831682642"><ele>636.0</ele><time>2026-04-26T15:29:55Z</time></trkpt><trkpt lat="43.233072053437226" lon="12.155096380358268"><ele>632.5</ele><time>2026-04-26T15:29:57Z</time></trkpt><trkpt lat="43.233166726964186" lon="12.15510825612107"><ele>629.0</ele><time>2026-04-26T15:29:59Z</time></trkpt><trkpt lat="43.23324149606734" lon="12.155154636789474"><ele>625.5</ele><time>2026-04-26T15:30:01Z</time></trkpt><trkpt lat="43.23331144112455" lon="12.155124339677306"><ele>622.0</ele><time>2026-04-26T15:30:03Z</time></trkpt><trkpt lat="43.23336061708296" lon="12.155068338119747"><ele>618.5</ele><time>2026-04-26T15:30:05Z</time></trkpt><trkpt lat="43.2334455708091" lon="12.155138301569382"><ele>615.0</ele><time>2026-04-26T15:30:08Z</time></trkpt><trkpt lat="43.23348584052489" lon="12.15523114850935"><ele>615.0</ele><time>2026-04-26T15:30:10Z</time></trkpt><trkpt lat="43.23352409346897" lon="12.1553236008562"><ele>615.0</ele><time>2026-04-26T15:30:15Z</time></trkpt><trkpt lat="43.23357310375548" lon="12.15539355470902"><ele>615.0</ele><time>2026-04-26T15:30:18Z</time></trkpt><trkpt lat="43.233667045480686" lon="12.155414177475919"><ele>615.0</ele><time>2026-04-26T15:30:20Z</time></trkpt><trkpt lat="43.2337350046784" lon="12.155408612377984"><ele>615.0</ele><time>2026-04-26T15:30:22Z</time></trkpt><trkpt lat="43.23381261994828" lon="12.155377284335119"><ele>615.0</ele><time>2026-04-26T15:30:24Z</time></trkpt><trkpt lat="43.233931471092546" lon="12.155309387321676"><ele>610.5</ele><time>2026-04-26T15:30:26Z</time></trkpt><trkpt lat="43.23401427535812" lon="12.15526954804995"><ele>606.0</ele><time>2026-04-26T15:30:28Z</time></trkpt><trkpt lat="43.234073748303516" lon="12.155185187047922"><ele>601.5</ele><time>2026-04-26T15:30:30Z</time></trkpt><trkpt lat="43.23410874408236" lon="12.155076947564506"><ele>597.0</ele><time>2026-04-26T15:30:32Z</time></trkpt><trkpt lat="43.234116764159474" lon="12.154923892132043"><ele>592.5</ele><time>2026-04-26T15:30:34Z</time></trkpt><trkpt lat="43.23409184865561" lon="12.15483882380962"><ele>588.0</ele><time>2026-04-26T15:30:35Z</time></trkpt><trkpt lat="43.234058389155486" lon="12.154711289584363"><ele>587.0</ele><time>2026-04-26T15:30:37Z</time></trkpt><trkpt lat="43.23400101298585" lon="12.154583756920976"><ele>586.0</ele><time>2026-04-26T15:30:39Z</time></trkpt><trkpt lat="43.233955710980844" lon="12.154428460994316"><ele>585.0</ele><time>2026-04-26T15:30:41Z</time></trkpt><trkpt lat="43.23398719416556" lon="12.154320287342891"><ele>584.0</ele><time>2026-04-26T15:30:43Z</time></trkpt><trkpt lat="43.234041567120734" lon="12.154171771310377"><ele>583.0</ele><time>2026-04-26T15:30:45Z</time></trkpt><trkpt lat="43.23412012406238" lon="12.15408240312517"><ele>583.0</ele><time>2026-04-26T15:30:47Z</time></trkpt><trkpt lat="43.234191713402275" lon="12.154092374487563"><ele>583.0</ele><time>2026-04-26T15:30:49Z</time></trkpt><trkpt lat="43.23427012598356" lon="12.154167515453901"><ele>583.0</ele><time>2026-04-26T15:30:51Z</time></trkpt><trkpt lat="43.234346266065096" lon="12.154282287578528"><ele>583.0</ele><time>2026-04-26T15:30:53Z</time></trkpt><trkpt lat="43.234429216412735" lon="12.154306824123992"><ele>583.0</ele><time>2026-04-26T15:30:55Z</time></trkpt><trkpt lat="43.234504171459214" lon="12.15428949875628"><ele>583.0</ele><time>2026-04-26T15:30:56Z</time></trkpt><trkpt lat="43.23460686080268" lon="12.15424131352814"><ele>583.0</ele><time>2026-04-26T15:30:58Z</time></trkpt><trkpt lat="43.23468630091017" lon="12.154241669016967"><ele>583.0</ele><time>2026-04-26T15:31:00Z</time></trkpt><trkpt lat="43.234772630672786" lon="12.1542442724597"><ele>583.0</ele><time>2026-04-26T15:31:02Z</time></trkpt><trkpt lat="43.234850073816546" lon="12.154266093379066"><ele>583.0</ele><time>2026-04-26T15:31:42Z</time></trkpt><trkpt lat="43.2349029105829" lon="12.15434597262595"><ele>583.0</ele><time>2026-04-26T15:32:15Z</time></trkpt><trkpt lat="43.2349222167665" lon="12.154461136409477"><ele>583.0</ele><time>2026-04-26T15:32:21Z</time></trkpt><trkpt lat="43.23493937307699" lon="12.154545935655731"><ele>578.3333333333334</ele><time>2026-04-26T15:32:25Z</time></trkpt><trkpt lat="43.2350016613394" lon="12.154636214582158"><ele>573.6666666666667</ele><time>2026-04-26T15:32:28Z</time></trkpt><trkpt lat="43.235063638362945" lon="12.15467727943612"><ele>569.0</ele><time>2026-04-26T15:32:30Z</time></trkpt><trkpt lat="43.23512266057294" lon="12.154761730113433"><ele>564.3333333333334</ele><time>2026-04-26T15:32:33Z</time></trkpt><trkpt lat="43.23513902948283" lon="12.154866077727535"><ele>559.6666666666666</ele><time>2026-04-26T15:32:35Z</time></trkpt><trkpt lat="43.23513659952832" lon="12.154994053653992"><ele>555.0</ele><time>2026-04-26T15:32:37Z</time></trkpt><trkpt lat="43.23511649323264" lon="12.155137603888486"><ele>554.8333333333334</ele><time>2026-04-26T15:32:39Z</time></trkpt><trkpt lat="43.23509744631012" lon="12.155257218357375"><ele>554.6666666666666</ele><time>2026-04-26T15:32:41Z</time></trkpt><trkpt lat="43.23508577888558" lon="12.155376207127516"><ele>554.5</ele><time>2026-04-26T15:32:43Z</time></trkpt><trkpt lat="43.23506256375662" lon="12.155457390490257"><ele>554.3333333333333</ele><time>2026-04-26T15:32:46Z</time></trkpt><trkpt lat="43.235043984049014" lon="12.155553477446592"><ele>554.1666666666666</ele><time>2026-04-26T15:32:49Z</time></trkpt><trkpt lat="43.2350736743339" lon="12.155636752820307"><ele>554.0</ele><time>2026-04-26T15:32:51Z</time></trkpt><trkpt lat="43.23509348426024" lon="12.155738595636665"><ele>554.0</ele><time>2026-04-26T15:32:53Z</time></trkpt><trkpt lat="43.235110458289526" lon="12.155861953970971"><ele>554.0</ele><time>2026-04-26T15:32:55Z</time></trkpt><trkpt lat="43.23517469592824" lon="12.155898431193654"><ele>554.0</ele><time>2026-04-26T15:32:57Z</time></trkpt><trkpt lat="43.23523197077845" lon="12.155854861997653"><ele>554.0</ele><time>2026-04-26T15:33:00Z</time></trkpt><trkpt lat="43.23528262699499" lon="12.15580308873085"><ele>554.0</ele><time>2026-04-26T15:33:02Z</time></trkpt><trkpt lat="43.23533853096785" lon="12.155760778208101"><ele>554.0</ele><time>2026-04-26T15:33:04Z</time></trkpt><trkpt lat="43.23542168802825" lon="12.155703848221014"><ele>554.0</ele><time>2026-04-26T15:33:07Z</time></trkpt><trkpt lat="43.23547538832695" lon="12.155658324964367"><ele>554.0</ele><time>2026-04-26T15:33:09Z</time></trkpt><trkpt lat="43.23551657069264" lon="12.155579455493145"><ele>554.0</ele><time>2026-04-26T15:33:11Z</time></trkpt><trkpt lat="43.23556762653845" lon="12.155480183343961"><ele>554.0</ele><time>2026-04-26T15:33:14Z</time></trkpt><trkpt lat="43.23564912370839" lon="12.15540362429095"><ele>554.0</ele><time>2026-04-26T15:33:16Z</time></trkpt><trkpt lat="43.23570696984684" lon="12.155353618249224"><ele>554.0</ele><time>2026-04-26T15:33:17Z</time></trkpt><trkpt lat="43.23577929703789" lon="12.155272175311548"><ele>554.0</ele><time>2026-04-26T15:33:19Z</time></trkpt><trkpt lat="43.235816828465325" lon="12.15517443497319"><ele>545.6666666666666</ele><time>2026-04-26T15:33:21Z</time></trkpt><trkpt lat="43.23587690659136" lon="12.155244505122877"><ele>537.3333333333333</ele><time>2026-04-26T15:33:24Z</time></trkpt><trkpt lat="43.23588478046066" lon="12.155374409410934"><ele>529.0</ele><time>2026-04-26T15:33:28Z</time></trkpt><trkpt lat="43.23594466891202" lon="12.155437830758402"><ele>520.6666666666666</ele><time>2026-04-26T15:33:30Z</time></trkpt><trkpt lat="43.2360281582996" lon="12.155409219350275"><ele>512.3333333333334</ele><time>2026-04-26T15:33:32Z</time></trkpt><trkpt lat="43.23611083653569" lon="12.155364320601322"><ele>504.0</ele><time>2026-04-26T15:33:34Z</time></trkpt><trkpt lat="43.236190108541024" lon="12.155364412304003"><ele>504.0</ele><time>2026-04-26T15:33:36Z</time></trkpt><trkpt lat="43.23630916636371" lon="12.155416312320257"><ele>504.0</ele><time>2026-04-26T15:33:38Z</time></trkpt><trkpt lat="43.236416140873956" lon="12.15550717087496"><ele>504.0</ele><time>2026-04-26T15:33:40Z</time></trkpt><trkpt lat="43.23647404376173" lon="12.155554701206512"><ele>504.0</ele><time>2026-04-26T15:33:41Z</time></trkpt><trkpt lat="43.23659661339743" lon="12.155542037087011"><ele>504.0</ele><time>2026-04-26T15:33:43Z</time></trkpt><trkpt lat="43.23670257917875" lon="12.155492748622637"><ele>499.0</ele><time>2026-04-26T15:33:45Z</time></trkpt><trkpt lat="43.23679783513361" lon="12.155454546779936"><ele>494.0</ele><time>2026-04-26T15:33:47Z</time></trkpt><trkpt lat="43.23686500619943" lon="12.155456748846337"><ele>489.0</ele><time>2026-04-26T15:33:49Z</time></trkpt><trkpt lat="43.236953320447554" lon="12.155516354375584"><ele>484.0</ele><time>2026-04-26T15:33:51Z</time></trkpt><trkpt lat="43.237041672524825" lon="12.155613049193704"><ele>479.0</ele><time>2026-04-26T15:33:53Z</time></trkpt><trkpt lat="43.2371524340281" lon="12.155675595358765"><ele>478.99999999999994</ele><time>2026-04-26T15:33:55Z</time></trkpt><trkpt lat="43.23721711262888" lon="12.155667456901762"><ele>479.0</ele><time>2026-04-26T15:33:56Z</time></trkpt><trkpt lat="43.237303111592645" lon="12.155662331762196"><ele>479.0</ele><time>2026-04-26T15:33:57Z</time></trkpt><trkpt lat="43.237376828010305" lon="12.15569647845931"><ele>479.0</ele><time>2026-04-26T15:33:58Z</time></trkpt><trkpt lat="43.23744835051712" lon="12.155719689965157"><ele>478.99999999999994</ele><time>2026-04-26T15:33:59Z</time></trkpt><trkpt lat="43.23751075124368" lon="12.155751076279676"><ele>479.0</ele><time>2026-04-26T15:34:00Z</time></trkpt><trkpt lat="43.237634782583235" lon="12.155814333623196"><ele>480.2</ele><time>2026-04-26T15:34:02Z</time></trkpt><trkpt lat="43.237699851213364" lon="12.155838174769624"><ele>481.4</ele><time>2026-04-26T15:34:03Z</time></trkpt><trkpt lat="43.23777960413287" lon="12.15585178000487"><ele>482.6</ele><time>2026-04-26T15:34:04Z</time></trkpt><trkpt lat="43.2378969563948" lon="12.155881045786588"><ele>483.8</ele><time>2026-04-26T15:34:06Z</time></trkpt><trkpt lat="43.238013147140016" lon="12.155840175700956"><ele>485.0</ele><time>2026-04-26T15:34:08Z</time></trkpt><trkpt lat="43.23810029867636" lon="12.155798073671503"><ele>483.49999999999994</ele><time>2026-04-26T15:34:10Z</time></trkpt><trkpt lat="43.23817039998468" lon="12.155860564483689"><ele>482.0</ele><time>2026-04-26T15:34:12Z</time></trkpt><trkpt lat="43.23823509504445" lon="12.155919131080221"><ele>480.5</ele><time>2026-04-26T15:34:13Z</time></trkpt><trkpt lat="43.23831040495737" lon="12.155964616139196"><ele>479.0</ele><time>2026-04-26T15:34:14Z</time></trkpt><trkpt lat="43.23837427139093" lon="12.155992403772785"><ele>477.49999999999994</ele><time>2026-04-26T15:34:15Z</time></trkpt><trkpt lat="43.23844578818291" lon="12.156077276444481"><ele>476.0</ele><time>2026-04-26T15:34:17Z</time></trkpt><trkpt lat="43.238491850168316" lon="12.156206525764189"><ele>476.0</ele><time>2026-04-26T15:34:19Z</time></trkpt><trkpt lat="43.238541933933206" lon="12.15631975902503"><ele>476.0</ele><time>2026-04-26T15:34:21Z</time></trkpt><trkpt lat="43.23863461989057" lon="12.15638687562908"><ele>476.0</ele><time>2026-04-26T15:34:23Z</time></trkpt><trkpt lat="43.238742603786136" lon="12.156421069209802"><ele>476.0</ele><time>2026-04-26T15:34:25Z</time></trkpt><trkpt lat="43.23880428117227" lon="12.156444431097693"><ele>476.0</ele><time>2026-04-26T15:34:27Z</time></trkpt><trkpt lat="43.2388939360801" lon="12.15651452069932"><ele>478.8</ele><time>2026-04-26T15:34:28Z</time></trkpt><trkpt lat="43.2389573202815" lon="12.156692299711443"><ele>481.6</ele><time>2026-04-26T15:34:30Z</time></trkpt><trkpt lat="43.238978200111305" lon="12.156787008158027"><ele>484.4</ele><time>2026-04-26T15:34:31Z</time></trkpt><trkpt lat="43.23902402769775" lon="12.156925480322297"><ele>487.2</ele><time>2026-04-26T15:34:33Z</time></trkpt><trkpt lat="43.23910437529199" lon="12.15702734792724"><ele>490.0</ele><time>2026-04-26T15:34:35Z</time></trkpt><trkpt lat="43.23915353465669" lon="12.15708367353322"><ele>484.83333333333337</ele><time>2026-04-26T15:34:37Z</time></trkpt><trkpt lat="43.23921686948439" lon="12.157127848241856"><ele>479.6666666666667</ele><time>2026-04-26T15:34:39Z</time></trkpt><trkpt lat="43.239297530597234" lon="12.157136036760384"><ele>474.5</ele><time>2026-04-26T15:34:41Z</time></trkpt><trkpt lat="43.23936451720756" lon="12.157100720520694"><ele>469.33333333333337</ele><time>2026-04-26T15:34:45Z</time></trkpt><trkpt lat="43.23943027506165" lon="12.15706528676655"><ele>464.1666666666667</ele><time>2026-04-26T15:34:48Z</time></trkpt><trkpt lat="43.239507418626225" lon="12.157100005070186"><ele>459.0</ele><time>2026-04-26T15:34:51Z</time></trkpt><trkpt lat="43.23959119538887" lon="12.157152124813202"><ele>459.0</ele><time>2026-04-26T15:34:53Z</time></trkpt><trkpt lat="43.23966813392537" lon="12.157204864960573"><ele>459.0</ele><time>2026-04-26T15:34:55Z</time></trkpt><trkpt lat="43.23969629805966" lon="12.157321239876126"><ele>459.0</ele><time>2026-04-26T15:34:58Z</time></trkpt><trkpt lat="43.23968231813583" lon="12.15744278916888"><ele>459.0</ele><time>2026-04-26T15:35:00Z</time></trkpt><trkpt lat="43.23967159961315" lon="12.157562273963944"><ele>459.0</ele><time>2026-04-26T15:35:02Z</time></trkpt><trkpt lat="43.239671922290825" lon="12.15765725543974"><ele>459.0</ele><time>2026-04-26T15:35:04Z</time></trkpt><trkpt lat="43.239651853010585" lon="12.157811933387856"><ele>459.0</ele><time>2026-04-26T15:35:06Z</time></trkpt><trkpt lat="43.23964006854084" lon="12.157968300626962"><ele>459.0</ele><time>2026-04-26T15:35:08Z</time></trkpt><trkpt lat="43.23964695755488" lon="12.158067896892941"><ele>459.0</ele><time>2026-04-26T15:35:10Z</time></trkpt><trkpt lat="43.23970815345346" lon="12.158126561881904"><ele>459.0</ele><time>2026-04-26T15:35:13Z</time></trkpt><trkpt lat="43.23974737489481" lon="12.158196785101076"><ele>459.0</ele><time>2026-04-26T15:35:16Z</time></trkpt><trkpt lat="43.239778570024505" lon="12.158303339009088"><ele>459.0</ele><time>2026-04-26T15:35:19Z</time></trkpt><trkpt lat="43.23979209816501" lon="12.158399540911144"><ele>452.4</ele><time>2026-04-26T15:35:21Z</time></trkpt><trkpt lat="43.239801248014246" lon="12.15854906791643"><ele>445.79999999999995</ele><time>2026-04-26T15:35:23Z</time></trkpt><trkpt lat="43.23982095183778" lon="12.15868025335403"><ele>439.20000000000005</ele><time>2026-04-26T15:35:25Z</time></trkpt><trkpt lat="43.239841731416696" lon="12.158826587160982"><ele>432.6</ele><time>2026-04-26T15:35:27Z</time></trkpt><trkpt lat="43.23982591523967" lon="12.15894454930221"><ele>426.0</ele><time>2026-04-26T15:35:29Z</time></trkpt><trkpt lat="43.23990336349345" lon="12.15900901957731"><ele>426.5</ele><time>2026-04-26T15:35:32Z</time></trkpt><trkpt lat="43.24000474020409" lon="12.159045727220535"><ele>427.0</ele><time>2026-04-26T15:35:34Z</time></trkpt><trkpt lat="43.240078483914004" lon="12.159085379790373"><ele>427.5</ele><time>2026-04-26T15:35:36Z</time></trkpt><trkpt lat="43.24014355420841" lon="12.159113899363215"><ele>428.0</ele><time>2026-04-26T15:35:37Z</time></trkpt><trkpt lat="43.24021440774982" lon="12.159185567741142"><ele>428.5</ele><time>2026-04-26T15:35:39Z</time></trkpt><trkpt lat="43.24026917247514" lon="12.159267932741578"><ele>429.0</ele><time>2026-04-26T15:35:41Z</time></trkpt><trkpt lat="43.240210076977874" lon="12.159350768103874"><ele>429.0</ele><time>2026-04-26T15:35:47Z</time></trkpt><trkpt lat="43.240283600372486" lon="12.159339811914341"><ele>429.0</ele><time>2026-04-26T15:37:44Z</time></trkpt><trkpt lat="43.24021839937355" lon="12.159196354662116"><ele>429.0</ele><time>2026-04-26T15:37:59Z</time></trkpt><trkpt lat="43.240145740530274" lon="12.159119364857156"><ele>429.0</ele><time>2026-04-26T15:38:01Z</time></trkpt><trkpt lat="43.240082220072985" lon="12.159084466364872"><ele>429.0</ele><time>2026-04-26T15:38:03Z</time></trkpt><trkpt lat="43.23998581313704" lon="12.159025761252"><ele>428.5</ele><time>2026-04-26T15:38:05Z</time></trkpt><trkpt lat="43.23991107978963" lon="12.158998548625519"><ele>428.0</ele><time>2026-04-26T15:38:07Z</time></trkpt><trkpt lat="43.23982760622709" lon="12.158949579132905"><ele>427.5</ele><time>2026-04-26T15:38:09Z</time></trkpt><trkpt lat="43.2398265095418" lon="12.158774618737205"><ele>427.0</ele><time>2026-04-26T15:38:12Z</time></trkpt><trkpt lat="43.23983024842775" lon="12.158678248426078"><ele>426.5</ele><time>2026-04-26T15:38:13Z</time></trkpt><trkpt lat="43.23980669912064" lon="12.158580902592924"><ele>426.0</ele><time>2026-04-26T15:38:15Z</time></trkpt><trkpt lat="43.23978315533255" lon="12.158415975518865"><ele>432.6</ele><time>2026-04-26T15:38:17Z</time></trkpt><trkpt lat="43.23976889302486" lon="12.158263236624025"><ele>439.20000000000005</ele><time>2026-04-26T15:38:19Z</time></trkpt><trkpt lat="43.239723624336804" lon="12.158149204595848"><ele>445.79999999999995</ele><time>2026-04-26T15:38:22Z</time></trkpt><trkpt lat="43.23964973855671" lon="12.158068989607548"><ele>452.4</ele><time>2026-04-26T15:38:24Z</time></trkpt><trkpt lat="43.23962926759934" lon="12.157959822177748"><ele>459.0</ele><time>2026-04-26T15:38:26Z</time></trkpt><trkpt lat="43.23964096936935" lon="12.157863444271596"><ele>459.0</ele><time>2026-04-26T15:38:27Z</time></trkpt><trkpt lat="43.23966082990197" lon="12.157769227749926"><ele>459.0</ele><time>2026-04-26T15:38:28Z</time></trkpt><trkpt lat="43.23967515506388" lon="12.157599352072872"><ele>459.0</ele><time>2026-04-26T15:38:30Z</time></trkpt><trkpt lat="43.2396808966097" lon="12.157453202836724"><ele>459.0</ele><time>2026-04-26T15:38:32Z</time></trkpt><trkpt lat="43.23969881314565" lon="12.157296221691212"><ele>459.0</ele><time>2026-04-26T15:38:34Z</time></trkpt><trkpt lat="43.23969099015185" lon="12.157164045196373"><ele>459.0</ele><time>2026-04-26T15:38:36Z</time></trkpt><trkpt lat="43.23957904077728" lon="12.157152946010353"><ele>459.0</ele><time>2026-04-26T15:38:39Z</time></trkpt><trkpt lat="43.23947881882212" lon="12.15711212059226"><ele>459.0</ele><time>2026-04-26T15:38:41Z</time></trkpt><trkpt lat="43.239387943242775" lon="12.157073553706043"><ele>459.0</ele><time>2026-04-26T15:38:44Z</time></trkpt><trkpt lat="43.23932682506346" lon="12.157121523717294"><ele>459.0</ele><time>2026-04-26T15:38:45Z</time></trkpt><trkpt lat="43.23923989936402" lon="12.157167072191694"><ele>459.0</ele><time>2026-04-26T15:38:47Z</time></trkpt><trkpt lat="43.23914719866655" lon="12.157089962963141"><ele>459.0</ele><time>2026-04-26T15:38:49Z</time></trkpt><trkpt lat="43.23906158497395" lon="12.156992015065219"><ele>459.0</ele><time>2026-04-26T15:38:51Z</time></trkpt><trkpt lat="43.239004800253014" lon="12.156876773168376"><ele>459.0</ele><time>2026-04-26T15:38:53Z</time></trkpt><trkpt lat="43.23897265130724" lon="12.156796811420987"><ele>459.0</ele><time>2026-04-26T15:38:54Z</time></trkpt><trkpt lat="43.2389467793997" lon="12.156712333798534"><ele>462.4</ele><time>2026-04-26T15:38:55Z</time></trkpt><trkpt lat="43.238927583541425" lon="12.156625224248542"><ele>465.79999999999995</ele><time>2026-04-26T15:38:56Z</time></trkpt><trkpt lat="43.238880657450736" lon="12.156503769639453"><ele>469.20000000000005</ele><time>2026-04-26T15:38:58Z</time></trkpt><trkpt lat="43.238779639750526" lon="12.156425320976322"><ele>472.6</ele><time>2026-04-26T15:39:00Z</time></trkpt><trkpt lat="43.23866680775457" lon="12.156401285023332"><ele>476.0</ele><time>2026-04-26T15:39:02Z</time></trkpt><trkpt lat="43.238598804602816" lon="12.156369216987084"><ele>476.0</ele><time>2026-04-26T15:39:03Z</time></trkpt><trkpt lat="43.23853601206219" lon="12.156288142887796"><ele>476.0</ele><time>2026-04-26T15:39:05Z</time></trkpt><trkpt lat="43.23848163429081" lon="12.156151909592536"><ele>476.0</ele><time>2026-04-26T15:39:08Z</time></trkpt><trkpt lat="43.238429233675866" lon="12.156065594344382"><ele>476.0</ele><time>2026-04-26T15:39:10Z</time></trkpt><trkpt lat="43.23833324146947" lon="12.155976559404708"><ele>476.0</ele><time>2026-04-26T15:39:12Z</time></trkpt><trkpt lat="43.23827018512516" lon="12.155938690865996"><ele>475.99999999999994</ele><time>2026-04-26T15:39:13Z</time></trkpt><trkpt lat="43.238204723059184" lon="12.155907486090463"><ele>476.0</ele><time>2026-04-26T15:39:14Z</time></trkpt><trkpt lat="43.238143058740164" lon="12.155865703960483"><ele>476.0</ele><time>2026-04-26T15:39:15Z</time></trkpt><trkpt lat="43.2380727685443" lon="12.155813096042362"><ele>476.0</ele><time>2026-04-26T15:39:17Z</time></trkpt><trkpt lat="43.23797304408932" lon="12.155869507986242"><ele>475.99999999999994</ele><time>2026-04-26T15:39:19Z</time></trkpt><trkpt lat="43.23790562314458" lon="12.155892224700485"><ele>476.0</ele><time>2026-04-26T15:39:20Z</time></trkpt><trkpt lat="43.23781493020655" lon="12.1558718213855"><ele>474.4</ele><time>2026-04-26T15:39:23Z</time></trkpt><trkpt lat="43.23774694994617" lon="12.155841409103148"><ele>472.8</ele><time>2026-04-26T15:39:25Z</time></trkpt><trkpt lat="43.2376431026936" lon="12.155827686574412"><ele>471.19999999999993</ele><time>2026-04-26T15:39:27Z</time></trkpt><trkpt lat="43.23753050899392" lon="12.15577816937266"><ele>469.59999999999997</ele><time>2026-04-26T15:39:29Z</time></trkpt><trkpt lat="43.23743247044604" lon="12.155726717588621"><ele>468.0</ele><time>2026-04-26T15:39:31Z</time></trkpt><trkpt lat="43.2373481820568" lon="12.155703404430065"><ele>470.2</ele><time>2026-04-26T15:39:33Z</time></trkpt><trkpt lat="43.237281066215786" lon="12.155684569760158"><ele>472.4</ele><time>2026-04-26T15:40:05Z</time></trkpt><trkpt lat="43.237194904519434" lon="12.155666326139581"><ele>474.59999999999997</ele><time>2026-04-26T15:40:07Z</time></trkpt><trkpt lat="43.2370906765333" lon="12.155658198436605"><ele>476.79999999999995</ele><time>2026-04-26T15:40:09Z</time></trkpt><trkpt lat="43.23699338802706" lon="12.155563817280289"><ele>479.0</ele><time>2026-04-26T15:40:11Z</time></trkpt><trkpt lat="43.236915067418046" lon="12.155487729872918"><ele>478.99999999999994</ele><time>2026-04-26T15:40:13Z</time></trkpt><trkpt lat="43.236835220539604" lon="12.155460465248082"><ele>479.0</ele><time>2026-04-26T15:40:15Z</time></trkpt><trkpt lat="43.23675031325911" lon="12.155477209761706"><ele>479.0</ele><time>2026-04-26T15:40:17Z</time></trkpt><trkpt lat="43.236638478766025" lon="12.155531533969558"><ele>479.0</ele><time>2026-04-26T15:40:19Z</time></trkpt><trkpt lat="43.23654826180629" lon="12.155553150539195"><ele>478.99999999999994</ele><time>2026-04-26T15:40:22Z</time></trkpt><trkpt lat="43.236482521343596" lon="12.155543241041022"><ele>479.0</ele><time>2026-04-26T15:40:23Z</time></trkpt><trkpt lat="43.23634910783042" lon="12.155463115145139"><ele>483.16666666666663</ele><time>2026-04-26T15:40:25Z</time></trkpt><trkpt lat="43.23629131646872" lon="12.155408014840596"><ele>487.3333333333333</ele><time>2026-04-26T15:40:26Z</time></trkpt><trkpt lat="43.23623139982329" lon="12.15536685508897"><ele>491.5</ele><time>2026-04-26T15:40:27Z</time></trkpt><trkpt lat="43.236155619698074" lon="12.155369056396076"><ele>495.66666666666663</ele><time>2026-04-26T15:40:29Z</time></trkpt><trkpt lat="43.23605123781095" lon="12.155420040445742"><ele>499.8333333333333</ele><time>2026-04-26T15:40:31Z</time></trkpt><trkpt lat="43.23597179984215" lon="12.155446844365787"><ele>504.0</ele><time>2026-04-26T15:40:33Z</time></trkpt><trkpt lat="43.23589894907919" lon="12.155380797845655"><ele>504.0</ele><time>2026-04-26T15:40:35Z</time></trkpt><trkpt lat="43.23587338359063" lon="12.155213806135718"><ele>504.0</ele><time>2026-04-26T15:40:37Z</time></trkpt><trkpt lat="43.23578426186724" lon="12.155268769275212"><ele>504.0</ele><time>2026-04-26T15:40:41Z</time></trkpt><trkpt lat="43.235709657497175" lon="12.155400246459214"><ele>504.0</ele><time>2026-04-26T15:40:43Z</time></trkpt><trkpt lat="43.235653362184586" lon="12.15544506642738"><ele>504.0</ele><time>2026-04-26T15:40:44Z</time></trkpt><trkpt lat="43.235597606020214" lon="12.155491099672473"><ele>510.3333333333333</ele><time>2026-04-26T15:40:45Z</time></trkpt><trkpt lat="43.235543586010536" lon="12.15555169639255"><ele>516.6666666666666</ele><time>2026-04-26T15:40:46Z</time></trkpt><trkpt lat="43.235510559933665" lon="12.155657669715076"><ele>523.0</ele><time>2026-04-26T15:40:48Z</time></trkpt><trkpt lat="43.23544840181606" lon="12.15571162123052"><ele>529.3333333333333</ele><time>2026-04-26T15:40:50Z</time></trkpt><trkpt lat="43.23535321232964" lon="12.15577699407677"><ele>535.6666666666666</ele><time>2026-04-26T15:40:52Z</time></trkpt><trkpt lat="43.23529598607016" lon="12.155822540832503"><ele>542.0</ele><time>2026-04-26T15:40:53Z</time></trkpt><trkpt lat="43.235257132908984" lon="12.155891260630074"><ele>542.0</ele><time>2026-04-26T15:40:54Z</time></trkpt><trkpt lat="43.23519101142062" lon="12.155884613828631"><ele>542.0</ele><time>2026-04-26T15:40:56Z</time></trkpt><trkpt lat="43.2351129004946" lon="12.155821525632307"><ele>542.0</ele><time>2026-04-26T15:40:58Z</time></trkpt><trkpt lat="43.235092997143575" lon="12.155660263036529"><ele>542.0</ele><time>2026-04-26T15:41:00Z</time></trkpt><trkpt lat="43.23506466275593" lon="12.15553182725301"><ele>542.0</ele><time>2026-04-26T15:41:02Z</time></trkpt><trkpt lat="43.2350905314689" lon="12.155434342400527"><ele>542.0</ele><time>2026-04-26T15:41:04Z</time></trkpt><trkpt lat="43.2351190455299" lon="12.155308844767553"><ele>544.0</ele><time>2026-04-26T15:41:06Z</time></trkpt><trkpt lat="43.2351239852851" lon="12.155208466298221"><ele>546.0</ele><time>2026-04-26T15:41:07Z</time></trkpt><trkpt lat="43.23513525315633" lon="12.155061002776755"><ele>548.0</ele><time>2026-04-26T15:41:09Z</time></trkpt><trkpt lat="43.23513294215546" lon="12.154966814723698"><ele>550.0</ele><time>2026-04-26T15:41:10Z</time></trkpt><trkpt lat="43.23513777442157" lon="12.154866935685206"><ele>552.0</ele><time>2026-04-26T15:41:11Z</time></trkpt><trkpt lat="43.23510711199475" lon="12.154723434974274"><ele>554.0</ele><time>2026-04-26T15:41:13Z</time></trkpt><trkpt lat="43.235021636902744" lon="12.154623529496307"><ele>554.2</ele><time>2026-04-26T15:41:15Z</time></trkpt><trkpt lat="43.234926762034405" lon="12.15453872561809"><ele>554.4</ele><time>2026-04-26T15:41:17Z</time></trkpt><trkpt lat="43.23488290011352" lon="12.154384375791603"><ele>554.6</ele><time>2026-04-26T15:41:19Z</time></trkpt><trkpt lat="43.234850970353996" lon="12.1542657664327"><ele>554.8</ele><time>2026-04-26T15:41:21Z</time></trkpt><trkpt lat="43.234761507255726" lon="12.154257523514797"><ele>555.0</ele><time>2026-04-26T15:41:23Z</time></trkpt><trkpt lat="43.23463648254931" lon="12.154233780235804"><ele>559.6666666666666</ele><time>2026-04-26T15:41:25Z</time></trkpt><trkpt lat="43.23456883479171" lon="12.1542572981169"><ele>564.3333333333334</ele><time>2026-04-26T15:41:26Z</time></trkpt><trkpt lat="43.234497173955795" lon="12.154287964076122"><ele>569.0</ele><time>2026-04-26T15:41:27Z</time></trkpt><trkpt lat="43.23439210886084" lon="12.15428535701285"><ele>573.6666666666667</ele><time>2026-04-26T15:41:29Z</time></trkpt><trkpt lat="43.234304561084365" lon="12.154223453288639"><ele>578.3333333333334</ele><time>2026-04-26T15:41:31Z</time></trkpt><trkpt lat="43.2342632641512" lon="12.154145254011683"><ele>583.0</ele><time>2026-04-26T15:41:32Z</time></trkpt><trkpt lat="43.23421794911173" lon="12.154071952300036"><ele>583.0</ele><time>2026-04-26T15:41:33Z</time></trkpt><trkpt lat="43.234141146420754" lon="12.154045387026427"><ele>583.0</ele><time>2026-04-26T15:41:35Z</time></trkpt><trkpt lat="43.23406913256999" lon="12.154123837815451"><ele>583.0</ele><time>2026-04-26T15:41:37Z</time></trkpt><trkpt lat="43.23403666718589" lon="12.154198767421601"><ele>583.0</ele><time>2026-04-26T15:41:38Z</time></trkpt><trkpt lat="43.23399566335704" lon="12.154331337169"><ele>583.0</ele><time>2026-04-26T15:41:40Z</time></trkpt><trkpt lat="43.23399043305051" lon="12.154468471675608"><ele>583.0</ele><time>2026-04-26T15:41:42Z</time></trkpt><trkpt lat="43.234022132464574" lon="12.154557853918545"><ele>583.0</ele><time>2026-04-26T15:41:43Z</time></trkpt><trkpt lat="43.23408041420032" lon="12.154696314350952"><ele>583.0</ele><time>2026-04-26T15:41:45Z</time></trkpt><trkpt lat="43.23410833466072" lon="12.154836304955058"><ele>583.0</ele><time>2026-04-26T15:41:47Z</time></trkpt><trkpt lat="43.23411937214449" lon="12.154932145729243"><ele>583.0</ele><time>2026-04-26T15:41:48Z</time></trkpt><trkpt lat="43.23413403879583" lon="12.155020960263448"><ele>583.0</ele><time>2026-04-26T15:41:49Z</time></trkpt><trkpt lat="43.23409252042793" lon="12.155171321477049"><ele>583.7142857142858</ele><time>2026-04-26T15:41:51Z</time></trkpt><trkpt lat="43.23404817952792" lon="12.155250935663057"><ele>584.4285714285714</ele><time>2026-04-26T15:41:52Z</time></trkpt><trkpt lat="43.23399200718363" lon="12.155294400610043"><ele>585.1428571428571</ele><time>2026-04-26T15:41:53Z</time></trkpt><trkpt lat="43.23392266985009" lon="12.155316138450468"><ele>585.8571428571429</ele><time>2026-04-26T15:41:54Z</time></trkpt><trkpt lat="43.23385434107288" lon="12.155335921360107"><ele>586.5714285714286</ele><time>2026-04-26T15:41:55Z</time></trkpt><trkpt lat="43.23377375150983" lon="12.155365465271279"><ele>587.2857142857143</ele><time>2026-04-26T15:41:56Z</time></trkpt><trkpt lat="43.23370613086495" lon="12.155389113258453"><ele>588.0</ele><time>2026-04-26T15:41:57Z</time></trkpt><trkpt lat="43.23364136422384" lon="12.15540388743954"><ele>592.5</ele><time>2026-04-26T15:41:58Z</time></trkpt><trkpt lat="43.23355977632772" lon="12.155361545544244"><ele>597.0</ele><time>2026-04-26T15:42:00Z</time></trkpt><trkpt lat="43.23350450306985" lon="12.155262636182885"><ele>601.5</ele><time>2026-04-26T15:42:02Z</time></trkpt><trkpt lat="43.233471888724814" lon="12.155143021570504"><ele>606.0</ele><time>2026-04-26T15:42:04Z</time></trkpt><trkpt lat="43.23340951160388" lon="12.155042949903768"><ele>610.5</ele><time>2026-04-26T15:42:06Z</time></trkpt><trkpt lat="43.23334488207747" lon="12.155071132263224"><ele>615.0</ele><time>2026-04-26T15:42:08Z</time></trkpt><trkpt lat="43.233300691542546" lon="12.15514711085067"><ele>615.0</ele><time>2026-04-26T15:42:10Z</time></trkpt><trkpt lat="43.23322808184837" lon="12.15513487526251"><ele>615.0</ele><time>2026-04-26T15:42:12Z</time></trkpt><trkpt lat="43.233151974006" lon="12.155099346159831"><ele>615.0</ele><time>2026-04-26T15:42:13Z</time></trkpt><trkpt lat="43.23308016131409" lon="12.15507601850234"><ele>615.0</ele><time>2026-04-26T15:42:14Z</time></trkpt><trkpt lat="43.23301135958424" lon="12.155055210882894"><ele>615.0</ele><time>2026-04-26T15:42:15Z</time></trkpt><trkpt lat="43.23294877371713" lon="12.155018384550141"><ele>615.0</ele><time>2026-04-26T15:42:16Z</time></trkpt><trkpt lat="43.232826353320796" lon="12.155037326389932"><ele>618.5</ele><time>2026-04-26T15:42:17Z</time></trkpt><trkpt lat="43.23275581025654" lon="12.155039743112772"><ele>622.0</ele><time>2026-04-26T15:42:18Z</time></trkpt><trkpt lat="43.23267255245414" lon="12.155018115169028"><ele>625.5</ele><time>2026-04-26T15:42:19Z</time></trkpt><trkpt lat="43.2325823765585" lon="12.155004206344493"><ele>629.0</ele><time>2026-04-26T15:42:20Z</time></trkpt><trkpt lat="43.23245320990464" lon="12.154976402502488"><ele>632.5</ele><time>2026-04-26T15:42:22Z</time></trkpt><trkpt lat="43.23238850956381" lon="12.154983362766124"><ele>636.0</ele><time>2026-04-26T15:42:23Z</time></trkpt><trkpt lat="43.23231488895162" lon="12.154994596716678"><ele>638.8333333333334</ele><time>2026-04-26T15:42:24Z</time></trkpt><trkpt lat="43.2322449563203" lon="12.155013718099116"><ele>641.6666666666666</ele><time>2026-04-26T15:42:25Z</time></trkpt><trkpt lat="43.23220805621019" lon="12.155090636520312"><ele>644.5</ele><time>2026-04-26T15:42:27Z</time></trkpt><trkpt lat="43.23219129278762" lon="12.155232475698094"><ele>647.3333333333333</ele><time>2026-04-26T15:42:30Z</time></trkpt><trkpt lat="43.23217384824289" lon="12.155373372418088"><ele>650.1666666666666</ele><time>2026-04-26T15:42:32Z</time></trkpt><trkpt lat="43.23214013291826" lon="12.155453466863527"><ele>653.0</ele><time>2026-04-26T15:42:33Z</time></trkpt><trkpt lat="43.23212623780675" lon="12.155567147655878"><ele>653.0</ele><time>2026-04-26T15:42:34Z</time></trkpt><trkpt lat="43.232119005740564" lon="12.155674648741694"><ele>653.0</ele><time>2026-04-26T15:42:35Z</time></trkpt><trkpt lat="43.23211709506403" lon="12.155777392659795"><ele>653.0</ele><time>2026-04-26T15:42:36Z</time></trkpt><trkpt lat="43.23205132002619" lon="12.155922291419417"><ele>653.0</ele><time>2026-04-26T15:42:38Z</time></trkpt><trkpt lat="43.23198537471452" lon="12.155958389993346"><ele>653.0</ele><time>2026-04-26T15:42:39Z</time></trkpt><trkpt lat="43.23190378136838" lon="12.155966316371686"><ele>653.0</ele><time>2026-04-26T15:42:40Z</time></trkpt><trkpt lat="43.231826645075884" lon="12.155934816794613"><ele>652.5999999999999</ele><time>2026-04-26T15:42:41Z</time></trkpt><trkpt lat="43.231749525324275" lon="12.155909383034293"><ele>652.1999999999999</ele><time>2026-04-26T15:42:42Z</time></trkpt><trkpt lat="43.231649072070844" lon="12.155883926069084"><ele>651.8</ele><time>2026-04-26T15:42:43Z</time></trkpt><trkpt lat="43.23153812201684" lon="12.155833867204585"><ele>651.4</ele><time>2026-04-26T15:42:44Z</time></trkpt><trkpt lat="43.231443593135076" lon="12.155778579259078"><ele>651.0</ele><time>2026-04-26T15:42:45Z</time></trkpt><trkpt lat="43.23136119341392" lon="12.15571563095887"><ele>651.0</ele><time>2026-04-26T15:42:46Z</time></trkpt><trkpt lat="43.23128337551283" lon="12.155671995368905"><ele>651.0</ele><time>2026-04-26T15:42:47Z</time></trkpt><trkpt lat="43.231214181530355" lon="12.155634541667352"><ele>651.0</ele><time>2026-04-26T15:42:48Z</time></trkpt><trkpt lat="43.231116667052575" lon="12.155602195214252"><ele>651.0</ele><time>2026-04-26T15:42:50Z</time></trkpt><trkpt lat="43.23105292412675" lon="12.155661670499798"><ele>651.0</ele><time>2026-04-26T15:42:52Z</time></trkpt><trkpt lat="43.23103507294053" lon="12.155849573176146"><ele>651.0</ele><time>2026-04-26T15:42:54Z</time></trkpt><trkpt lat="43.23104135254791" lon="12.155978323738228"><ele>651.0</ele><time>2026-04-26T15:42:55Z</time></trkpt><trkpt lat="43.23105558374026" lon="12.156114528061565"><ele>651.0</ele><time>2026-04-26T15:42:56Z</time></trkpt><trkpt lat="43.2310691465092" lon="12.156268468279771"><ele>651.0</ele><time>2026-04-26T15:42:57Z</time></trkpt><trkpt lat="43.23107258933835" lon="12.156413587296537"><ele>651.0</ele><time>2026-04-26T15:42:58Z</time></trkpt><trkpt lat="43.23107796955269" lon="12.156534755766554"><ele>650.6666666666666</ele><time>2026-04-26T15:42:59Z</time></trkpt><trkpt lat="43.23107200216318" lon="12.156627839454886"><ele>650.3333333333334</ele><time>2026-04-26T15:43:00Z</time></trkpt><trkpt lat="43.23105576407797" lon="12.156754637405093"><ele>650.0</ele><time>2026-04-26T15:43:01Z</time></trkpt><trkpt lat="43.231028233166825" lon="12.156865611991124"><ele>649.6666666666667</ele><time>2026-04-26T15:43:02Z</time></trkpt><trkpt lat="43.230989239308535" lon="12.156951634860029"><ele>649.3333333333334</ele><time>2026-04-26T15:43:03Z</time></trkpt><trkpt lat="43.23095039898713" lon="12.157037869600108"><ele>649.0</ele><time>2026-04-26T15:43:04Z</time></trkpt><trkpt lat="43.23084855303937" lon="12.15716310658747"><ele>649.0</ele><time>2026-04-26T15:43:06Z</time></trkpt><trkpt lat="43.23075781982501" lon="12.157213460511075"><ele>649.0</ele><time>2026-04-26T15:43:07Z</time></trkpt><trkpt lat="43.23066871839379" lon="12.15725952649853"><ele>649.0</ele><time>2026-04-26T15:43:08Z</time></trkpt><trkpt lat="43.23059253439711" lon="12.15732286002572"><ele>649.0</ele><time>2026-04-26T15:43:09Z</time></trkpt><trkpt lat="43.230522494388836" lon="12.15737196089864"><ele>649.0</ele><time>2026-04-26T15:43:10Z</time></trkpt><trkpt lat="43.2304578378759" lon="12.157424303201182"><ele>649.0</ele><time>2026-04-26T15:43:11Z</time></trkpt><trkpt lat="43.230378258969274" lon="12.157489536973511"><ele>648.2</ele><time>2026-04-26T15:43:12Z</time></trkpt><trkpt lat="43.230307521675286" lon="12.157549794241344"><ele>647.4000000000001</ele><time>2026-04-26T15:43:13Z</time></trkpt><trkpt lat="43.23024690429172" lon="12.157616321666984"><ele>646.6</ele><time>2026-04-26T15:43:14Z</time></trkpt><trkpt lat="43.2301750595973" lon="12.157702472341484"><ele>645.8</ele><time>2026-04-26T15:43:15Z</time></trkpt><trkpt lat="43.2300670489961" lon="12.15772163557966"><ele>645.0</ele><time>2026-04-26T15:43:17Z</time></trkpt><trkpt lat="43.229968061824465" lon="12.157679718736672"><ele>645.0</ele><time>2026-04-26T15:43:19Z</time></trkpt><trkpt lat="43.229928578766135" lon="12.157601629916428"><ele>645.0</ele><time>2026-04-26T15:43:21Z</time></trkpt><trkpt lat="43.22987334006916" lon="12.157438078264795"><ele>645.0</ele><time>2026-04-26T15:43:23Z</time></trkpt><trkpt lat="43.22985013303691" lon="12.157306352234304"><ele>645.0</ele><time>2026-04-26T15:43:24Z</time></trkpt><trkpt lat="43.2298254646086" lon="12.157192624421917"><ele>645.0</ele><time>2026-04-26T15:43:25Z</time></trkpt><trkpt lat="43.22979580731736" lon="12.157067949172635"><ele>645.1666666666666</ele><time>2026-04-26T15:43:26Z</time></trkpt><trkpt lat="43.229799725719715" lon="12.15695758105487"><ele>645.3333333333334</ele><time>2026-04-26T15:43:27Z</time></trkpt><trkpt lat="43.22980495036997" lon="12.156848417987018"><ele>645.5</ele><time>2026-04-26T15:43:28Z</time></trkpt><trkpt lat="43.22982775279254" lon="12.156752836500269"><ele>645.6666666666667</ele><time>2026-04-26T15:43:29Z</time></trkpt><trkpt lat="43.22985291026563" lon="12.156652141965585"><ele>645.8333333333334</ele><time>2026-04-26T15:43:30Z</time></trkpt><trkpt lat="43.22991487844916" lon="12.156531659252202"><ele>646.0</ele><time>2026-04-26T15:43:31Z</time></trkpt><trkpt lat="43.2299586417485" lon="12.156379107335804"><ele>648.0</ele><time>2026-04-26T15:43:32Z</time></trkpt><trkpt lat="43.23000836281513" lon="12.156198669710333"><ele>650.0</ele><time>2026-04-26T15:43:34Z</time></trkpt><trkpt lat="43.230041405519906" lon="12.156079450933227"><ele>652.0</ele><time>2026-04-26T15:43:35Z</time></trkpt><trkpt lat="43.23007477336746" lon="12.155959059049964"><ele>654.0</ele><time>2026-04-26T15:43:36Z</time></trkpt><trkpt lat="43.230107617861805" lon="12.155842366548654"><ele>656.0</ele><time>2026-04-26T15:43:37Z</time></trkpt><trkpt lat="43.230145267491636" lon="12.155711758076613"><ele>655.1999999999999</ele><time>2026-04-26T15:43:38Z</time></trkpt><trkpt lat="43.23018991324553" lon="12.155567702307874"><ele>654.4</ele><time>2026-04-26T15:43:39Z</time></trkpt><trkpt lat="43.23023133482483" lon="12.155434049774689"><ele>653.6</ele><time>2026-04-26T15:43:40Z</time></trkpt><trkpt lat="43.23026973720076" lon="12.155301129126817"><ele>652.8</ele><time>2026-04-26T15:43:41Z</time></trkpt><trkpt lat="43.230305899271755" lon="12.155157423648003"><ele>652.0</ele><time>2026-04-26T15:43:42Z</time></trkpt><trkpt lat="43.23034183124623" lon="12.155000651838394"><ele>653.1666666666667</ele><time>2026-04-26T15:43:43Z</time></trkpt><trkpt lat="43.230374516311755" lon="12.154868671799093"><ele>654.3333333333334</ele><time>2026-04-26T15:43:44Z</time></trkpt><trkpt lat="43.23039865586394" lon="12.15477681408015"><ele>655.5</ele><time>2026-04-26T15:43:45Z</time></trkpt><trkpt lat="43.23044692157585" lon="12.15471867294853"><ele>656.6666666666666</ele><time>2026-04-26T15:43:51.999Z</time></trkpt><trkpt lat="43.230474963030375" lon="12.154634887205857"><ele>657.8333333333333</ele><time>2026-04-26T15:43:52.999Z</time></trkpt><trkpt lat="43.230519871573094" lon="12.154561651971239"><ele>659.0</ele><time>2026-04-26T15:43:53.999Z</time></trkpt><trkpt lat="43.23085494233968" lon="12.15481383822376"><ele>658.2</ele><time>2026-04-26T15:43:55.999Z</time></trkpt><trkpt lat="43.230928721135214" lon="12.154840799416215"><ele>657.4000000000001</ele><time>2026-04-26T15:43:56.999Z</time></trkpt><trkpt lat="43.23102438560291" lon="12.154854782497415"><ele>656.6</ele><time>2026-04-26T15:43:57.999Z</time></trkpt><trkpt lat="43.231111680226505" lon="12.154882233577272"><ele>655.8</ele><time>2026-04-26T15:43:58.999Z</time></trkpt><trkpt lat="43.231216122107845" lon="12.154898904288816"><ele>655.0</ele><time>2026-04-26T15:44:00Z</time></trkpt><trkpt lat="43.23131335359993" lon="12.154898690084265"><ele>655.0</ele><time>2026-04-26T15:44:01Z</time></trkpt><trkpt lat="43.23138252016779" lon="12.154886781195044"><ele>655.0</ele><time>2026-04-26T15:44:02Z</time></trkpt><trkpt lat="43.23148013563813" lon="12.154846659548319"><ele>655.0</ele><time>2026-04-26T15:44:04Z</time></trkpt><trkpt lat="43.23155306311628" lon="12.154717704886442"><ele>655.0</ele><time>2026-04-26T15:44:06Z</time></trkpt><trkpt lat="43.231583282135155" lon="12.154627693627818"><ele>655.0</ele><time>2026-04-26T15:44:07Z</time></trkpt><trkpt lat="43.2316097653471" lon="12.154529601363414"><ele>655.0</ele><time>2026-04-26T15:44:08Z</time></trkpt><trkpt lat="43.23163435172186" lon="12.154417596268468"><ele>655.2</ele><time>2026-04-26T15:44:09Z</time></trkpt><trkpt lat="43.231707490236055" lon="12.154342392761443"><ele>655.4</ele><time>2026-04-26T15:44:11Z</time></trkpt><trkpt lat="43.23180349109759" lon="12.154345468290515"><ele>655.5999999999999</ele><time>2026-04-26T15:44:13Z</time></trkpt><trkpt lat="43.2318041404267" lon="12.154219863660304"><ele>655.8</ele><time>2026-04-26T15:44:15Z</time></trkpt><trkpt lat="43.231709966734485" lon="12.154113549660691"><ele>656.0</ele><time>2026-04-26T15:44:17Z</time></trkpt><trkpt lat="43.23167002262658" lon="12.153976445210635"><ele>654.75</ele><time>2026-04-26T15:44:19Z</time></trkpt><trkpt lat="43.23169832359817" lon="12.153809640630945"><ele>653.5</ele><time>2026-04-26T15:44:21Z</time></trkpt><trkpt lat="43.23173229862515" lon="12.15365639684505"><ele>652.25</ele><time>2026-04-26T15:44:23Z</time></trkpt><trkpt lat="43.23166791999844" lon="12.153478482888676"><ele>651.0</ele><time>2026-04-26T15:44:25Z</time></trkpt><trkpt lat="43.231620894868605" lon="12.153382789283272"><ele>651.0</ele><time>2026-04-26T15:44:26Z</time></trkpt><trkpt lat="43.23158752131895" lon="12.153299251705619"><ele>651.0</ele><time>2026-04-26T15:44:27Z</time></trkpt><trkpt lat="43.231564175077715" lon="12.153180183499039"><ele>651.0</ele><time>2026-04-26T15:44:29Z</time></trkpt><trkpt lat="43.231544357990735" lon="12.153033105330024"><ele>651.0</ele><time>2026-04-26T15:44:31Z</time></trkpt><trkpt lat="43.231609210907486" lon="12.152909150034183"><ele>651.0</ele><time>2026-04-26T15:44:33Z</time></trkpt><trkpt lat="43.23171528868201" lon="12.15285182725814"><ele>651.5</ele><time>2026-04-26T15:44:35Z</time></trkpt><trkpt lat="43.23173540352241" lon="12.152740986609759"><ele>652.0</ele><time>2026-04-26T15:44:37Z</time></trkpt><trkpt lat="43.23173221151971" lon="12.15265403691459"><ele>652.5</ele><time>2026-04-26T15:44:39Z</time></trkpt><trkpt lat="43.231854882899924" lon="12.152599661623384"><ele>653.0</ele><time>2026-04-26T15:44:41Z</time></trkpt><trkpt lat="43.23192698751806" lon="12.152614375143163"><ele>653.5</ele><time>2026-04-26T15:44:42Z</time></trkpt><trkpt lat="43.23201937521301" lon="12.152607885063706"><ele>654.0</ele><time>2026-04-26T15:44:44Z</time></trkpt><trkpt lat="43.23210996399707" lon="12.152477701903114"><ele>654.0</ele><time>2026-04-26T15:44:46Z</time></trkpt><trkpt lat="43.232206382101616" lon="12.152388237778098"><ele>654.0</ele><time>2026-04-26T15:44:48Z</time></trkpt><trkpt lat="43.23225404559934" lon="12.152328965470604"><ele>654.0</ele><time>2026-04-26T15:44:49Z</time></trkpt><trkpt lat="43.23234246062334" lon="12.15224238777548"><ele>654.0</ele><time>2026-04-26T15:44:51Z</time></trkpt><trkpt lat="43.23240995600022" lon="12.15216271890351"><ele>654.0</ele><time>2026-04-26T15:44:53Z</time></trkpt><trkpt lat="43.23246001862911" lon="12.1520542134089"><ele>652.4000000000001</ele><time>2026-04-26T15:44:55Z</time></trkpt><trkpt lat="43.23248792366208" lon="12.151908946234382"><ele>650.8</ele><time>2026-04-26T15:44:57Z</time></trkpt><trkpt lat="43.232480356031374" lon="12.15175201632924"><ele>649.2</ele><time>2026-04-26T15:44:59Z</time></trkpt><trkpt lat="43.23246162933092" lon="12.15166497465368"><ele>647.5999999999999</ele><time>2026-04-26T15:45:00Z</time></trkpt><trkpt lat="43.232428279882676" lon="12.151496169436907"><ele>646.0</ele><time>2026-04-26T15:45:02Z</time></trkpt><trkpt lat="43.2323806086669" lon="12.151374299876814"><ele>646.0</ele><time>2026-04-26T15:45:04Z</time></trkpt><trkpt lat="43.232326587663174" lon="12.15127566669682"><ele>646.0</ele><time>2026-04-26T15:45:06Z</time></trkpt><trkpt lat="43.23238366325602" lon="12.151210696621384"><ele>646.0</ele><time>2026-04-26T15:45:08Z</time></trkpt><trkpt lat="43.23248120208194" lon="12.151114451635664"><ele>646.0</ele><time>2026-04-26T15:45:10Z</time></trkpt><trkpt lat="43.23254401884692" lon="12.151060111884716"><ele>646.0</ele><time>2026-04-26T15:45:12Z</time></trkpt><trkpt lat="43.23259524235305" lon="12.15093849022945"><ele>646.0</ele><time>2026-04-26T15:45:14Z</time></trkpt><trkpt lat="43.23268044269356" lon="12.150887651640764"><ele>646.0</ele><time>2026-04-26T15:45:16Z</time></trkpt><trkpt lat="43.232758738849995" lon="12.150776416759241"><ele>646.0</ele><time>2026-04-26T15:45:18Z</time></trkpt><trkpt lat="43.232865423146116" lon="12.150753144049308"><ele>646.0</ele><time>2026-04-26T15:45:20Z</time></trkpt><trkpt lat="43.232935583802934" lon="12.150754757387713"><ele>646.0</ele><time>2026-04-26T15:45:21Z</time></trkpt><trkpt lat="43.23302304943539" lon="12.15072720873457"><ele>647.0</ele><time>2026-04-26T15:45:23Z</time></trkpt><trkpt lat="43.23308574855872" lon="12.15059369912329"><ele>648.0</ele><time>2026-04-26T15:45:25Z</time></trkpt><trkpt lat="43.233100224446694" lon="12.150503104064487"><ele>649.0</ele><time>2026-04-26T15:45:26Z</time></trkpt><trkpt lat="43.23313353974763" lon="12.150428932711312"><ele>650.0</ele><time>2026-04-26T15:45:27Z</time></trkpt><trkpt lat="43.23322567485532" lon="12.1503007446058"><ele>651.0</ele><time>2026-04-26T15:45:29Z</time></trkpt><trkpt lat="43.233276531522456" lon="12.15024574853063"><ele>652.0</ele><time>2026-04-26T15:45:30Z</time></trkpt><trkpt lat="43.23334750235705" lon="12.1501948418098"><ele>647.8333333333334</ele><time>2026-04-26T15:45:31Z</time></trkpt><trkpt lat="43.23342762992387" lon="12.150145446985308"><ele>643.6666666666667</ele><time>2026-04-26T15:45:32Z</time></trkpt><trkpt lat="43.233489553076815" lon="12.150092722535867"><ele>639.5</ele><time>2026-04-26T15:45:33Z</time></trkpt><trkpt lat="43.23355574902639" lon="12.149988353359948"><ele>635.3333333333334</ele><time>2026-04-26T15:45:35Z</time></trkpt><trkpt lat="43.233596684684116" lon="12.14990702279708"><ele>631.1666666666666</ele><time>2026-04-26T15:45:36Z</time></trkpt><trkpt lat="43.23364629393932" lon="12.14982300789999"><ele>627.0</ele><time>2026-04-26T15:45:37Z</time></trkpt><trkpt lat="43.23368737372737" lon="12.149741136073617"><ele>626.3333333333334</ele><time>2026-04-26T15:45:38Z</time></trkpt><trkpt lat="43.23374147040063" lon="12.149663452722654"><ele>625.6666666666666</ele><time>2026-04-26T15:45:40Z</time></trkpt><trkpt lat="43.23380376952812" lon="12.149591244019176"><ele>625.0</ele><time>2026-04-26T15:45:43Z</time></trkpt><trkpt lat="43.23385795890825" lon="12.149542221538724"><ele>624.3333333333333</ele><time>2026-04-26T15:45:44Z</time></trkpt><trkpt lat="43.23392239437067" lon="12.149484751374978"><ele>623.6666666666666</ele><time>2026-04-26T15:45:45Z</time></trkpt><trkpt lat="43.23398630438727" lon="12.14943392062046"><ele>623.0</ele><time>2026-04-26T15:45:46Z</time></trkpt><trkpt lat="43.23408887372571" lon="12.149364066756625"><ele>620.4</ele><time>2026-04-26T15:45:48Z</time></trkpt><trkpt lat="43.23420331348449" lon="12.149297445045297"><ele>617.8</ele><time>2026-04-26T15:45:50Z</time></trkpt><trkpt lat="43.23429706605442" lon="12.1492457527047"><ele>615.2</ele><time>2026-04-26T15:45:52Z</time></trkpt><trkpt lat="43.234371636160176" lon="12.149204636993865"><ele>612.6</ele><time>2026-04-26T15:45:54Z</time></trkpt><trkpt lat="43.23444459538101" lon="12.149164409497988"><ele>610.0</ele><time>2026-04-26T15:45:56Z</time></trkpt><trkpt lat="43.23454389844548" lon="12.149139706465746"><ele>610.0</ele><time>2026-04-26T15:45:58Z</time></trkpt><trkpt lat="43.23479404503706" lon="12.149679150613304"><ele>609.3333333333334</ele><time>2026-04-26T15:46:00Z</time></trkpt><trkpt lat="43.23486853541175" lon="12.149693850556108"><ele>608.6666666666667</ele><time>2026-04-26T15:46:02Z</time></trkpt><trkpt lat="43.23494708467057" lon="12.149733987490913"><ele>608.0</ele><time>2026-04-26T15:46:06Z</time></trkpt><trkpt lat="43.235009661628695" lon="12.149794150272953"><ele>607.3333333333334</ele><time>2026-04-26T15:46:09Z</time></trkpt><trkpt lat="43.235069593298334" lon="12.149862656095685"><ele>606.6666666666666</ele><time>2026-04-26T15:46:12Z</time></trkpt><trkpt lat="43.23514901686165" lon="12.14991375584474"><ele>606.0</ele><time>2026-04-26T15:46:15Z</time></trkpt><trkpt lat="43.23523843841674" lon="12.149953458361674"><ele>606.0</ele><time>2026-04-26T15:46:18Z</time></trkpt><trkpt lat="43.23530949106602" lon="12.149973749441921"><ele>606.0</ele><time>2026-04-26T15:46:20Z</time></trkpt><trkpt lat="43.23537075236973" lon="12.150049681867683"><ele>606.0</ele><time>2026-04-26T15:46:24Z</time></trkpt><trkpt lat="43.23540933789538" lon="12.150126664828129"><ele>606.0</ele><time>2026-04-26T15:46:27Z</time></trkpt><trkpt lat="43.23545306394319" lon="12.15019995188479"><ele>606.0</ele><time>2026-04-26T15:46:30Z</time></trkpt><trkpt lat="43.23551506701763" lon="12.150299646737905"><ele>606.0</ele><time>2026-04-26T15:46:33Z</time></trkpt><trkpt lat="43.235597468168905" lon="12.15032352999207"><ele>602.0</ele><time>2026-04-26T15:46:35Z</time></trkpt><trkpt lat="43.23569101021458" lon="12.150325178939651"><ele>598.0</ele><time>2026-04-26T15:46:37Z</time></trkpt><trkpt lat="43.23577906142275" lon="12.15036309113085"><ele>594.0</ele><time>2026-04-26T15:46:42Z</time></trkpt><trkpt lat="43.235840543125754" lon="12.150413482189327"><ele>590.0</ele><time>2026-04-26T15:46:44Z</time></trkpt><trkpt lat="43.23590227114547" lon="12.150460410934816"><ele>586.0</ele><time>2026-04-26T15:46:47Z</time></trkpt><trkpt lat="43.23598350831735" lon="12.150493383596507"><ele>582.0</ele><time>2026-04-26T15:46:49Z</time></trkpt><trkpt lat="43.23605952298777" lon="12.150452954054828"><ele>582.0</ele><time>2026-04-26T15:46:52Z</time></trkpt><trkpt lat="43.23611992636519" lon="12.15038153005824"><ele>582.0</ele><time>2026-04-26T15:46:55Z</time></trkpt><trkpt lat="43.23622405908843" lon="12.150389746790353"><ele>582.0</ele><time>2026-04-26T15:46:58Z</time></trkpt><trkpt lat="43.23630659996167" lon="12.150409989488685"><ele>582.0</ele><time>2026-04-26T15:47:00Z</time></trkpt><trkpt lat="43.23642620225524" lon="12.150394312924085"><ele>582.0</ele><time>2026-04-26T15:47:02Z</time></trkpt><trkpt lat="43.23649928779949" lon="12.150428398516288"><ele>578.0</ele><time>2026-04-26T15:47:05Z</time></trkpt><trkpt lat="43.236566429260066" lon="12.150457678922205"><ele>574.0</ele><time>2026-04-26T15:47:07Z</time></trkpt><trkpt lat="43.236650441084414" lon="12.150510984215362"><ele>570.0</ele><time>2026-04-26T15:47:09Z</time></trkpt><trkpt lat="43.23672845393813" lon="12.150529196767243"><ele>566.0</ele><time>2026-04-26T15:47:11Z</time></trkpt><trkpt lat="43.23680425850353" lon="12.150516267046498"><ele>562.0</ele><time>2026-04-26T15:47:13Z</time></trkpt><trkpt lat="43.23686595925528" lon="12.150551457116391"><ele>558.0</ele><time>2026-04-26T15:47:15Z</time></trkpt><trkpt lat="43.236947950780475" lon="12.150526294551293"><ele>557.9999999999999</ele><time>2026-04-26T15:47:20Z</time></trkpt><trkpt lat="43.237006993370954" lon="12.150494129530964"><ele>558.0</ele><time>2026-04-26T15:47:23Z</time></trkpt><trkpt lat="43.23708584419989" lon="12.150435788446478"><ele>558.0</ele><time>2026-04-26T15:47:27Z</time></trkpt><trkpt lat="43.2371528397561" lon="12.150407604896833"><ele>558.0</ele><time>2026-04-26T15:47:30Z</time></trkpt><trkpt lat="43.23721403733768" lon="12.150434236898688"><ele>558.0</ele><time>2026-04-26T15:47:33Z</time></trkpt><trkpt lat="43.23726364085184" lon="12.150375577689283"><ele>557.9999999999999</ele><time>2026-04-26T15:47:36Z</time></trkpt><trkpt lat="43.237343933431106" lon="12.150394204036228"><ele>558.0</ele><time>2026-04-26T15:47:40Z</time></trkpt><trkpt lat="43.23742559123825" lon="12.150390646859316"><ele>554.4285714285713</ele><time>2026-04-26T15:47:43Z</time></trkpt><trkpt lat="43.23748888585579" lon="12.150365616581547"><ele>550.8571428571429</ele><time>2026-04-26T15:47:45Z</time></trkpt><trkpt lat="43.23755330199053" lon="12.150348185390868"><ele>547.2857142857142</ele><time>2026-04-26T15:47:47Z</time></trkpt><trkpt lat="43.23762864072391" lon="12.15036522012655"><ele>543.7142857142857</ele><time>2026-04-26T15:47:50Z</time></trkpt><trkpt lat="43.237708810541406" lon="12.150391328417564"><ele>540.1428571428571</ele><time>2026-04-26T15:47:53Z</time></trkpt><trkpt lat="43.23778131016304" lon="12.150432781141545"><ele>536.5714285714286</ele><time>2026-04-26T15:47:56Z</time></trkpt><trkpt lat="43.23784860618771" lon="12.150448385355714"><ele>533.0</ele><time>2026-04-26T15:47:59Z</time></trkpt><trkpt lat="43.237931857192756" lon="12.150430079291395"><ele>533.0</ele><time>2026-04-26T15:48:02Z</time></trkpt><trkpt lat="43.23800166832566" lon="12.1504396826738"><ele>533.0</ele><time>2026-04-26T15:48:05Z</time></trkpt><trkpt lat="43.23806811137091" lon="12.150449415696809"><ele>533.0</ele><time>2026-04-26T15:48:09Z</time></trkpt><trkpt lat="43.23815227724027" lon="12.150426774628476"><ele>533.0</ele><time>2026-04-26T15:48:12Z</time></trkpt><trkpt lat="43.23822697654409" lon="12.150412526470065"><ele>533.0</ele><time>2026-04-26T15:48:14Z</time></trkpt><trkpt lat="43.23829414669894" lon="12.15039932371876"><ele>533.0</ele><time>2026-04-26T15:48:16Z</time></trkpt><trkpt lat="43.238366739427576" lon="12.150382395841959"><ele>533.0</ele><time>2026-04-26T15:48:18Z</time></trkpt><trkpt lat="43.23844731289979" lon="12.150336980298562"><ele>530.1666666666666</ele><time>2026-04-26T15:48:20Z</time></trkpt><trkpt lat="43.23851853346149" lon="12.150341035228491"><ele>527.3333333333333</ele><time>2026-04-26T15:48:22Z</time></trkpt><trkpt lat="43.238624316330394" lon="12.150349599471015"><ele>524.5</ele><time>2026-04-26T15:48:25Z</time></trkpt><trkpt lat="43.23870756277416" lon="12.150318964670541"><ele>521.6666666666666</ele><time>2026-04-26T15:48:27Z</time></trkpt><trkpt lat="43.23878455638123" lon="12.150322171250558"><ele>518.8333333333334</ele><time>2026-04-26T15:48:29Z</time></trkpt><trkpt lat="43.23884509729335" lon="12.15024859833952"><ele>516.0</ele><time>2026-04-26T15:48:31Z</time></trkpt><trkpt lat="43.23889849835887" lon="12.15019607409138"><ele>515.9999999999999</ele><time>2026-04-26T15:48:33Z</time></trkpt><trkpt lat="43.23895998510019" lon="12.150142174290458"><ele>516.0</ele><time>2026-04-26T15:48:36Z</time></trkpt><trkpt lat="43.23900290440341" lon="12.15007337131596"><ele>516.0</ele><time>2026-04-26T15:48:38Z</time></trkpt><trkpt lat="43.239067739227806" lon="12.150024152311"><ele>516.0</ele><time>2026-04-26T15:48:41Z</time></trkpt><trkpt lat="43.23911099088716" lon="12.149952774839809"><ele>516.0</ele><time>2026-04-26T15:48:44Z</time></trkpt><trkpt lat="43.23913495572317" lon="12.14984096699984"><ele>515.9999999999999</ele><time>2026-04-26T15:48:47Z</time></trkpt><trkpt lat="43.2392041025492" lon="12.149827615947531"><ele>516.0</ele><time>2026-04-26T15:48:49Z</time></trkpt><trkpt lat="43.239284744868385" lon="12.14982897521927"><ele>511.4</ele><time>2026-04-26T15:48:51Z</time></trkpt><trkpt lat="43.239373713755235" lon="12.149795745205033"><ele>506.8</ele><time>2026-04-26T15:48:53Z</time></trkpt><trkpt lat="43.239447506225524" lon="12.149743415716594"><ele>502.19999999999993</ele><time>2026-04-26T15:48:55Z</time></trkpt><trkpt lat="43.23955397746444" lon="12.149655082501418"><ele>497.59999999999997</ele><time>2026-04-26T15:48:57Z</time></trkpt><trkpt lat="43.23963878325725" lon="12.149602044608564"><ele>493.0</ele><time>2026-04-26T15:48:59Z</time></trkpt><trkpt lat="43.23970973335638" lon="12.14950657533048"><ele>493.0</ele><time>2026-04-26T15:49:01Z</time></trkpt><trkpt lat="43.23977936913776" lon="12.149401928171155"><ele>492.99999999999994</ele><time>2026-04-26T15:49:03Z</time></trkpt><trkpt lat="43.23982401742641" lon="12.149302424073372"><ele>492.99999999999994</ele><time>2026-04-26T15:49:05Z</time></trkpt><trkpt lat="43.23988788991264" lon="12.149208928580368"><ele>493.0</ele><time>2026-04-26T15:49:07Z</time></trkpt><trkpt lat="43.23994685818158" lon="12.149118075526525"><ele>493.0</ele><time>2026-04-26T15:49:09Z</time></trkpt><trkpt lat="43.24000540999919" lon="12.14902904276631"><ele>490.1666666666667</ele><time>2026-04-26T15:49:11Z</time></trkpt><trkpt lat="43.24008013371145" lon="12.148932762088117"><ele>487.33333333333337</ele><time>2026-04-26T15:49:13Z</time></trkpt><trkpt lat="43.240125424295364" lon="12.14885443366881"><ele>484.5</ele><time>2026-04-26T15:49:15Z</time></trkpt><trkpt lat="43.24014973587977" lon="12.148768035405313"><ele>481.66666666666663</ele><time>2026-04-26T15:49:17Z</time></trkpt><trkpt lat="43.24008542965008" lon="12.14871714873948"><ele>478.8333333333333</ele><time>2026-04-26T15:49:19Z</time></trkpt><trkpt lat="43.239993720048496" lon="12.148688493612159"><ele>476.0</ele><time>2026-04-26T15:49:22Z</time></trkpt><trkpt lat="43.23992426912575" lon="12.148700368690864"><ele>475.99999999999994</ele><time>2026-04-26T15:49:24Z</time></trkpt><trkpt lat="43.23985230761487" lon="12.148711681788079"><ele>476.0</ele><time>2026-04-26T15:49:26Z</time></trkpt><trkpt lat="43.23978570335656" lon="12.148707523508003"><ele>476.0</ele><time>2026-04-26T15:49:28Z</time></trkpt><trkpt lat="43.23969210789379" lon="12.14870774155326"><ele>476.0</ele><time>2026-04-26T15:49:30Z</time></trkpt><trkpt lat="43.239596987128834" lon="12.14867895251749"><ele>475.99999999999994</ele><time>2026-04-26T15:49:32Z</time></trkpt><trkpt lat="43.23951308525966" lon="12.148678773143722"><ele>476.0</ele><time>2026-04-26T15:49:34Z</time></trkpt><trkpt lat="43.23944972549148" lon="12.148598256644059"><ele>476.3333333333333</ele><time>2026-04-26T15:49:36Z</time></trkpt><trkpt lat="43.23943246923855" lon="12.148494527675807"><ele>476.66666666666663</ele><time>2026-04-26T15:49:38Z</time></trkpt><trkpt lat="43.239442409246955" lon="12.148339290072615"><ele>477.0</ele><time>2026-04-26T15:49:40Z</time></trkpt><trkpt lat="43.23943939309889" lon="12.148196366636405"><ele>477.33333333333337</ele><time>2026-04-26T15:49:42Z</time></trkpt><trkpt lat="43.23940833567991" lon="12.148098059921045"><ele>477.6666666666667</ele><time>2026-04-26T15:49:43Z</time></trkpt><trkpt lat="43.23938842461859" lon="12.148014666542533"><ele>478.0</ele><time>2026-04-26T15:49:44Z</time></trkpt><trkpt lat="43.23932707074165" lon="12.147934579030602"><ele>475.83333333333337</ele><time>2026-04-26T15:49:46Z</time></trkpt><trkpt lat="43.23933659714708" lon="12.147828820499255"><ele>473.6666666666667</ele><time>2026-04-26T15:49:48Z</time></trkpt><trkpt lat="43.23937020722535" lon="12.147733756980971"><ele>471.5</ele><time>2026-04-26T15:49:51Z</time></trkpt><trkpt lat="43.23931787306909" lon="12.14764003346348"><ele>469.33333333333337</ele><time>2026-04-26T15:49:53Z</time></trkpt><trkpt lat="43.239234410184416" lon="12.147627362256134"><ele>467.1666666666667</ele><time>2026-04-26T15:49:55Z</time></trkpt><trkpt lat="43.2391474291484" lon="12.147572679400492"><ele>465.0</ele><time>2026-04-26T15:49:57Z</time></trkpt><trkpt lat="43.239110695146024" lon="12.147467022184587"><ele>465.0</ele><time>2026-04-26T15:49:59Z</time></trkpt><trkpt lat="43.23905774777596" lon="12.147410032182076"><ele>465.0</ele><time>2026-04-26T15:50:01Z</time></trkpt><trkpt lat="43.239040969560705" lon="12.147263459474363"><ele>465.0</ele><time>2026-04-26T15:50:05Z</time></trkpt><trkpt lat="43.239005889306746" lon="12.147158084606462"><ele>465.0</ele><time>2026-04-26T15:50:06.999Z</time></trkpt><trkpt lat="43.23896583407114" lon="12.147046620579"><ele>465.0</ele><time>2026-04-26T15:50:08.999Z</time></trkpt><trkpt lat="43.23897691914217" lon="12.146955757163461"><ele>465.0</ele><time>2026-04-26T15:50:10.999Z</time></trkpt><trkpt lat="43.23892178829427" lon="12.146840971097953"><ele>465.8</ele><time>2026-04-26T15:50:12.999Z</time></trkpt><trkpt lat="43.238862563801916" lon="12.146731894385159"><ele>466.6</ele><time>2026-04-26T15:50:14.999Z</time></trkpt><trkpt lat="43.23883074875303" lon="12.146590986467928"><ele>467.4</ele><time>2026-04-26T15:50:16.999Z</time></trkpt><trkpt lat="43.238750001743306" lon="12.146485022644486"><ele>468.2</ele><time>2026-04-26T15:50:19Z</time></trkpt><trkpt lat="43.23873068100287" lon="12.14637807770191"><ele>469.0</ele><time>2026-04-26T15:50:23Z</time></trkpt><trkpt lat="43.2387113979113" lon="12.14626068609924"><ele>467.0</ele><time>2026-04-26T15:50:25Z</time></trkpt><trkpt lat="43.23867349396385" lon="12.146130337019889"><ele>465.0</ele><time>2026-04-26T15:50:27Z</time></trkpt><trkpt lat="43.23860892855173" lon="12.145993140896849"><ele>463.0</ele><time>2026-04-26T15:50:29Z</time></trkpt><trkpt lat="43.23858038420806" lon="12.145902049438654"><ele>461.0</ele><time>2026-04-26T15:50:31Z</time></trkpt><trkpt lat="43.23853194427181" lon="12.145788545876334"><ele>459.0</ele><time>2026-04-26T15:50:34Z</time></trkpt><trkpt lat="43.23847739841293" lon="12.145718193607836"><ele>457.5</ele><time>2026-04-26T15:50:36Z</time></trkpt><trkpt lat="43.23843617484109" lon="12.14564903036549"><ele>456.0</ele><time>2026-04-26T15:50:37Z</time></trkpt><trkpt lat="43.23839382629273" lon="12.145579603606228"><ele>454.5</ele><time>2026-04-26T15:50:38Z</time></trkpt><trkpt lat="43.238320672183725" lon="12.145436924062043"><ele>453.0</ele><time>2026-04-26T15:50:40Z</time></trkpt><trkpt lat="43.23827983152386" lon="12.145361873492302"><ele>451.5</ele><time>2026-04-26T15:50:41Z</time></trkpt><trkpt lat="43.23824788513692" lon="12.145284327057633"><ele>450.0</ele><time>2026-04-26T15:50:42Z</time></trkpt><trkpt lat="43.23820719060959" lon="12.145181749201097"><ele>450.0</ele><time>2026-04-26T15:50:44Z</time></trkpt><trkpt lat="43.23818316328533" lon="12.145089931244401"><ele>450.0</ele><time>2026-04-26T15:50:46Z</time></trkpt><trkpt lat="43.238232918523245" lon="12.144922217608817"><ele>450.0</ele><time>2026-04-26T15:50:48Z</time></trkpt><trkpt lat="43.238254722593375" lon="12.144788444340383"><ele>450.0</ele><time>2026-04-26T15:50:50Z</time></trkpt><trkpt lat="43.23832060093347" lon="12.144665138674775"><ele>450.0</ele><time>2026-04-26T15:50:52Z</time></trkpt><trkpt lat="43.23833253380441" lon="12.14456156604526"><ele>449.8333333333333</ele><time>2026-04-26T15:50:54Z</time></trkpt><trkpt lat="43.238360083254044" lon="12.144456387589665"><ele>449.66666666666663</ele><time>2026-04-26T15:50:56Z</time></trkpt><trkpt lat="43.23840539382822" lon="12.14438909880728"><ele>449.5</ele><time>2026-04-26T15:50:59Z</time></trkpt><trkpt lat="43.23846526005614" lon="12.14434272004744"><ele>449.3333333333333</ele><time>2026-04-26T15:51:01Z</time></trkpt><trkpt lat="43.23855417081197" lon="12.144275410484298"><ele>449.16666666666663</ele><time>2026-04-26T15:51:03Z</time></trkpt><trkpt lat="43.23862174783125" lon="12.144254104996959"><ele>449.0</ele><time>2026-04-26T15:51:06Z</time></trkpt><trkpt lat="43.23874162289804" lon="12.144218430807614"><ele>449.0</ele><time>2026-04-26T15:51:08Z</time></trkpt><trkpt lat="43.23883043668046" lon="12.144174069996572"><ele>449.0</ele><time>2026-04-26T15:51:10Z</time></trkpt><trkpt lat="43.23892957664951" lon="12.14416749674449"><ele>449.0</ele><time>2026-04-26T15:51:12Z</time></trkpt><trkpt lat="43.239026370929636" lon="12.144145358396491"><ele>449.0</ele><time>2026-04-26T15:51:14Z</time></trkpt><trkpt lat="43.239094092768745" lon="12.144075878984598"><ele>449.0</ele><time>2026-04-26T15:51:16Z</time></trkpt><trkpt lat="43.23917131811119" lon="12.143991138676075"><ele>444.6</ele><time>2026-04-26T15:51:18Z</time></trkpt><trkpt lat="43.23921689989489" lon="12.143916020189714"><ele>440.2</ele><time>2026-04-26T15:51:19Z</time></trkpt><trkpt lat="43.23925556953623" lon="12.14379350426576"><ele>435.80000000000007</ele><time>2026-04-26T15:51:21Z</time></trkpt><trkpt lat="43.23930672887143" lon="12.1437114365191"><ele>431.40000000000003</ele><time>2026-04-26T15:51:23Z</time></trkpt><trkpt lat="43.239404869311386" lon="12.143693329812283"><ele>427.0</ele><time>2026-04-26T15:51:26Z</time></trkpt><trkpt lat="43.23951583935458" lon="12.14369362011887"><ele>427.0</ele><time>2026-04-26T15:51:28Z</time></trkpt><trkpt lat="43.23963737734578" lon="12.143707552065282"><ele>427.0</ele><time>2026-04-26T15:51:30Z</time></trkpt><trkpt lat="43.23976597740904" lon="12.143709414432962"><ele>427.0</ele><time>2026-04-26T15:51:32Z</time></trkpt><trkpt lat="43.23982927792317" lon="12.14374152344412"><ele>427.0</ele><time>2026-04-26T15:51:33Z</time></trkpt><trkpt lat="43.23995698634549" lon="12.143696039659998"><ele>422.33333333333337</ele><time>2026-04-26T15:51:35Z</time></trkpt><trkpt lat="43.24003811541642" lon="12.143703482914509"><ele>417.6666666666667</ele><time>2026-04-26T15:51:36Z</time></trkpt><trkpt lat="43.24010374688162" lon="12.143696471067555"><ele>413.0</ele><time>2026-04-26T15:51:37Z</time></trkpt><trkpt lat="43.24019767577094" lon="12.143702474234264"><ele>408.33333333333337</ele><time>2026-04-26T15:51:39Z</time></trkpt><trkpt lat="43.24029816930696" lon="12.143702068284705"><ele>403.6666666666667</ele><time>2026-04-26T15:51:41Z</time></trkpt><trkpt lat="43.24037541947431" lon="12.143622828319371"><ele>399.0</ele><time>2026-04-26T15:51:43Z</time></trkpt><trkpt lat="43.24036633428997" lon="12.14351854492939"><ele>399.0</ele><time>2026-04-26T15:51:44Z</time></trkpt><trkpt lat="43.24032833715683" lon="12.143381959817063"><ele>399.0</ele><time>2026-04-26T15:51:46Z</time></trkpt><trkpt lat="43.240317281405524" lon="12.143266933250203"><ele>399.0</ele><time>2026-04-26T15:51:48Z</time></trkpt><trkpt lat="43.240389870436715" lon="12.14320464360481"><ele>399.0</ele><time>2026-04-26T15:51:51Z</time></trkpt><trkpt lat="43.240469029126174" lon="12.143163386440866"><ele>399.0</ele><time>2026-04-26T15:51:53Z</time></trkpt><trkpt lat="43.24056049334658" lon="12.143094854890357"><ele>397.2</ele><time>2026-04-26T15:51:55Z</time></trkpt><trkpt lat="43.240579450600734" lon="12.142966331488303"><ele>395.4</ele><time>2026-04-26T15:51:57Z</time></trkpt><trkpt lat="43.240487069524114" lon="12.142884567902327"><ele>393.6</ele><time>2026-04-26T15:51:59Z</time></trkpt><trkpt lat="43.24039235089869" lon="12.142874851706194"><ele>391.8</ele><time>2026-04-26T15:52:01Z</time></trkpt><trkpt lat="43.24030937619522" lon="12.142822985603438"><ele>390.0</ele><time>2026-04-26T15:52:03Z</time></trkpt><trkpt lat="43.24028077037551" lon="12.1427343890869"><ele>390.0</ele><time>2026-04-26T15:52:05Z</time></trkpt><trkpt lat="43.24036897700032" lon="12.142655520819563"><ele>390.0</ele><time>2026-04-26T15:52:07Z</time></trkpt><trkpt lat="43.240450216327524" lon="12.142553409044757"><ele>390.0</ele><time>2026-04-26T15:52:09Z</time></trkpt><trkpt lat="43.24054649057558" lon="12.142455700506629"><ele>390.0</ele><time>2026-04-26T15:52:11Z</time></trkpt><trkpt lat="43.240602720948516" lon="12.142411713937893"><ele>390.0</ele><time>2026-04-26T15:52:12Z</time></trkpt><trkpt lat="43.2406712873411" lon="12.142384025267708"><ele>386.3333333333333</ele><time>2026-04-26T15:52:14Z</time></trkpt><trkpt lat="43.24069267664792" lon="12.142469564406557"><ele>382.6666666666667</ele><time>2026-04-26T15:52:17Z</time></trkpt><trkpt lat="43.240755961313226" lon="12.142599216327685"><ele>379.0</ele><time>2026-04-26T15:52:19Z</time></trkpt><trkpt lat="43.24082045029239" lon="12.142648466539628"><ele>375.33333333333337</ele><time>2026-04-26T15:52:20Z</time></trkpt><trkpt lat="43.24089990486835" lon="12.142654020922578"><ele>371.6666666666667</ele><time>2026-04-26T15:52:21Z</time></trkpt><trkpt lat="43.24099224100473" lon="12.142641105951384"><ele>368.0</ele><time>2026-04-26T15:52:22Z</time></trkpt><trkpt lat="43.241086501103034" lon="12.142627235893713"><ele>368.0</ele><time>2026-04-26T15:52:23Z</time></trkpt><trkpt lat="43.24115650741911" lon="12.142626546035329"><ele>368.0</ele><time>2026-04-26T15:52:24Z</time></trkpt><trkpt lat="43.24126325709768" lon="12.142716192249582"><ele>368.0</ele><time>2026-04-26T15:52:26Z</time></trkpt><trkpt lat="43.241320008518414" lon="12.142776762660265"><ele>368.0</ele><time>2026-04-26T15:52:27Z</time></trkpt><trkpt lat="43.24136819458032" lon="12.142872418121495"><ele>368.0</ele><time>2026-04-26T15:52:28Z</time></trkpt><trkpt lat="43.24146083499531" lon="12.142978949908413"><ele>367.1666666666667</ele><time>2026-04-26T15:52:30Z</time></trkpt><trkpt lat="43.24154356660361" lon="12.142954621001278"><ele>366.33333333333337</ele><time>2026-04-26T15:52:31Z</time></trkpt><trkpt lat="43.241636316650485" lon="12.14289796081718"><ele>365.5</ele><time>2026-04-26T15:52:32Z</time></trkpt><trkpt lat="43.24172146995274" lon="12.142828372004267"><ele>364.6666666666667</ele><time>2026-04-26T15:52:33Z</time></trkpt><trkpt lat="43.24179684625351" lon="12.142802757382418"><ele>363.8333333333333</ele><time>2026-04-26T15:52:34Z</time></trkpt><trkpt lat="43.241862715231214" lon="12.14274895146728"><ele>363.0</ele><time>2026-04-26T15:52:35Z</time></trkpt><trkpt lat="43.24192634530855" lon="12.142681757015767"><ele>363.0</ele><time>2026-04-26T15:52:36Z</time></trkpt><trkpt lat="43.242037108671745" lon="12.1426174482283"><ele>363.0</ele><time>2026-04-26T15:52:37Z</time></trkpt><trkpt lat="43.24214371162942" lon="12.142532440309013"><ele>363.0</ele><time>2026-04-26T15:52:38Z</time></trkpt><trkpt lat="43.242236133977286" lon="12.142435366024973"><ele>363.0</ele><time>2026-04-26T15:52:39Z</time></trkpt><trkpt lat="43.24233494745865" lon="12.142388190731367"><ele>362.3333333333333</ele><time>2026-04-26T15:52:40Z</time></trkpt><trkpt lat="43.242406898720816" lon="12.142352056731404"><ele>361.6666666666667</ele><time>2026-04-26T15:52:41Z</time></trkpt><trkpt lat="43.24246596274054" lon="12.142301375621498"><ele>361.0</ele><time>2026-04-26T15:52:42Z</time></trkpt><trkpt lat="43.24250305037304" lon="12.14221170081232"><ele>360.33333333333337</ele><time>2026-04-26T15:52:43Z</time></trkpt><trkpt lat="43.2425654596209" lon="12.142153259729236"><ele>359.6666666666667</ele><time>2026-04-26T15:52:44Z</time></trkpt><trkpt lat="43.24264837546723" lon="12.142125054084957"><ele>359.0</ele><time>2026-04-26T15:52:45Z</time></trkpt><trkpt lat="43.24272441662938" lon="12.142187427379202"><ele>359.0</ele><time>2026-04-26T15:52:46Z</time></trkpt><trkpt lat="43.24279808906389" lon="12.14219941925365"><ele>359.0</ele><time>2026-04-26T15:52:47Z</time></trkpt><trkpt lat="43.24288268244624" lon="12.1421916097656"><ele>359.0</ele><time>2026-04-26T15:52:48Z</time></trkpt><trkpt lat="43.24298991321626" lon="12.142209576841696"><ele>359.0</ele><time>2026-04-26T15:52:49Z</time></trkpt><trkpt lat="43.24306894329929" lon="12.142179100010614"><ele>359.0</ele><time>2026-04-26T15:52:50Z</time></trkpt><trkpt lat="43.243149764837284" lon="12.142204781202956"><ele>359.0</ele><time>2026-04-26T15:52:51Z</time></trkpt><trkpt lat="43.243244339929845" lon="12.142212520985026"><ele>356.79999999999995</ele><time>2026-04-26T15:52:52Z</time></trkpt><trkpt lat="43.24332498220642" lon="12.142212726769896"><ele>354.59999999999997</ele><time>2026-04-26T15:52:53Z</time></trkpt><trkpt lat="43.2434056154785" lon="12.142199112373026"><ele>352.4</ele><time>2026-04-26T15:52:54Z</time></trkpt><trkpt lat="43.24350275276147" lon="12.14219695869506"><ele>350.2</ele><time>2026-04-26T15:52:55Z</time></trkpt><trkpt lat="43.243618918853336" lon="12.14217591545579"><ele>348.0</ele><time>2026-04-26T15:52:56Z</time></trkpt><trkpt lat="43.24370791996601" lon="12.142175232530132"><ele>348.0</ele><time>2026-04-26T15:52:57Z</time></trkpt><trkpt lat="43.24380788817411" lon="12.142167724840235"><ele>348.0</ele><time>2026-04-26T15:52:58Z</time></trkpt><trkpt lat="43.2438908811172" lon="12.142165994849698"><ele>348.0</ele><time>2026-04-26T15:52:59Z</time></trkpt><trkpt lat="43.243967563946754" lon="12.142157928395221"><ele>348.0</ele><time>2026-04-26T15:53:00Z</time></trkpt><trkpt lat="43.24403417027437" lon="12.142149558174578"><ele>348.0</ele><time>2026-04-26T15:53:01Z</time></trkpt><trkpt lat="43.24414907372983" lon="12.142179941744825"><ele>348.0</ele><time>2026-04-26T15:53:03Z</time></trkpt><trkpt lat="43.24424127273248" lon="12.142186072704101"><ele>345.8333333333333</ele><time>2026-04-26T15:53:05Z</time></trkpt><trkpt lat="43.24432990549267" lon="12.142231623484086"><ele>343.6666666666667</ele><time>2026-04-26T15:53:36Z</time></trkpt><trkpt lat="43.244396739203346" lon="12.142267228104846"><ele>341.5</ele><time>2026-04-26T15:53:38Z</time></trkpt><trkpt lat="43.24446916061858" lon="12.142322113714142"><ele>339.33333333333337</ele><time>2026-04-26T15:53:41Z</time></trkpt><trkpt lat="43.244537144334906" lon="12.142324941418277"><ele>337.1666666666667</ele><time>2026-04-26T15:53:42Z</time></trkpt><trkpt lat="43.24459499923631" lon="12.142373657783699"><ele>335.0</ele><time>2026-04-26T15:53:44Z</time></trkpt><trkpt lat="43.244656246803075" lon="12.142402933652843"><ele>334.71428571428567</ele><time>2026-04-26T15:53:46Z</time></trkpt><trkpt lat="43.24471993078144" lon="12.142436472328068"><ele>334.42857142857144</ele><time>2026-04-26T15:53:48Z</time></trkpt><trkpt lat="43.24477290437187" lon="12.142498735995241"><ele>334.1428571428571</ele><time>2026-04-26T15:53:50Z</time></trkpt><trkpt lat="43.24482646829285" lon="12.142560467446858"><ele>333.85714285714283</ele><time>2026-04-26T15:53:52Z</time></trkpt><trkpt lat="43.244893374227495" lon="12.142593136159531"><ele>333.57142857142856</ele><time>2026-04-26T15:53:54Z</time></trkpt><trkpt lat="43.24495956900561" lon="12.14263978394468"><ele>333.2857142857143</ele><time>2026-04-26T15:53:56Z</time></trkpt><trkpt lat="43.24503341044158" lon="12.142682806442467"><ele>333.0</ele><time>2026-04-26T15:53:58Z</time></trkpt><trkpt lat="43.24511774280091" lon="12.14272770108817"><ele>331.6666666666667</ele><time>2026-04-26T15:54:00Z</time></trkpt><trkpt lat="43.24520667823317" lon="12.1427617443094"><ele>330.3333333333333</ele><time>2026-04-26T15:54:02Z</time></trkpt><trkpt lat="43.245286029087765" lon="12.14278479227982"><ele>329.0</ele><time>2026-04-26T15:54:04Z</time></trkpt><trkpt lat="43.245365537130056" lon="12.142802488473919"><ele>327.66666666666663</ele><time>2026-04-26T15:54:06Z</time></trkpt><trkpt lat="43.24542752300627" lon="12.142817700494412"><ele>326.3333333333333</ele><time>2026-04-26T15:54:08Z</time></trkpt><trkpt lat="43.24549467769159" lon="12.142829359052097"><ele>325.0</ele><time>2026-04-26T15:54:10Z</time></trkpt><trkpt lat="43.24556548222841" lon="12.142840297587995"><ele>324.0</ele><time>2026-04-26T15:54:12Z</time></trkpt><trkpt lat="43.245638029066384" lon="12.142842154340206"><ele>323.0</ele><time>2026-04-26T15:54:14Z</time></trkpt><trkpt lat="43.24570281342867" lon="12.14285075545171"><ele>322.0</ele><time>2026-04-26T15:54:16Z</time></trkpt><trkpt lat="43.245761589282324" lon="12.142882266397002"><ele>321.0</ele><time>2026-04-26T15:54:18Z</time></trkpt><trkpt lat="43.24582675397221" lon="12.142898271360783"><ele>320.0</ele><time>2026-04-26T15:54:20Z</time></trkpt><trkpt lat="43.245923124097686" lon="12.142900450975699"><ele>319.0</ele><time>2026-04-26T15:54:23Z</time></trkpt><trkpt lat="43.24600763784465" lon="12.142963196609031"><ele>319.0</ele><time>2026-04-26T15:54:26Z</time></trkpt><trkpt lat="43.246075194047584" lon="12.142995555001463"><ele>319.0</ele><time>2026-04-26T15:54:28Z</time></trkpt><trkpt lat="43.246178399372155" lon="12.143043364880336"><ele>319.0</ele><time>2026-04-26T15:54:31Z</time></trkpt><trkpt lat="43.24625520896101" lon="12.143085835638782"><ele>319.0</ele><time>2026-04-26T15:54:33Z</time></trkpt><trkpt lat="43.24630109275463" lon="12.14318802093843"><ele>319.0</ele><time>2026-04-26T15:54:35Z</time></trkpt><trkpt lat="43.24633716718539" lon="12.14329973597351"><ele>319.0</ele><time>2026-04-26T15:54:37Z</time></trkpt><trkpt lat="43.24636985072483" lon="12.143418485305176"><ele>319.0</ele><time>2026-04-26T15:54:39Z</time></trkpt><trkpt lat="43.246284986052714" lon="12.14348426191279"><ele>319.0</ele><time>2026-04-26T15:54:40Z</time></trkpt><trkpt lat="43.2462502040211" lon="12.14357675505795"><ele>319.0</ele><time>2026-04-26T15:54:42Z</time></trkpt><trkpt lat="43.246210805146966" lon="12.14364987872369"><ele>319.0</ele><time>2026-04-26T15:54:44Z</time></trkpt><trkpt lat="43.246150792656174" lon="12.143710860136231"><ele>319.0</ele><time>2026-04-26T15:54:47Z</time></trkpt><trkpt lat="43.24636724080894" lon="12.143702667774669"><ele>319.0</ele><time>2026-04-26T15:56:20Z</time></trkpt><trkpt lat="43.2463111007187" lon="12.14364898078951"><ele>319.0</ele><time>2026-04-26T15:56:58Z</time></trkpt><trkpt lat="43.24628237366602" lon="12.143727056492292"><ele>319.0</ele><time>2026-04-26T16:01:04Z</time></trkpt><trkpt lat="43.24624273335485" lon="12.143623164193581"><ele>319.0</ele><time>2026-04-26T16:01:10Z</time></trkpt><trkpt lat="43.246191875186454" lon="12.143547289588751"><ele>319.0</ele><time>2026-04-26T16:01:14Z</time></trkpt><trkpt lat="43.246214950937095" lon="12.143629797760488"><ele>319.0</ele><time>2026-04-26T16:06:07Z</time></trkpt><trkpt lat="43.24616325693392" lon="12.143690238849228"><ele>319.0</ele><time>2026-04-26T16:06:37Z</time></trkpt><trkpt lat="43.246228340011584" lon="12.143676668098395"><ele>319.0</ele><time>2026-04-26T16:08:43Z</time></trkpt><trkpt lat="43.246293122602395" lon="12.143538759993605"><ele>319.0</ele><time>2026-04-26T16:08:45Z</time></trkpt><trkpt lat="43.24634601780138" lon="12.143433247663602"><ele>319.0</ele><time>2026-04-26T16:08:47Z</time></trkpt><trkpt lat="43.24639016918721" lon="12.143360009802416"><ele>319.0</ele><time>2026-04-26T16:08:49Z</time></trkpt><trkpt lat="43.24635242392432" lon="12.14322271094087"><ele>319.0</ele><time>2026-04-26T16:08:51Z</time></trkpt><trkpt lat="43.246315975081274" lon="12.143147669192084"><ele>319.0</ele><time>2026-04-26T16:08:52Z</time></trkpt><trkpt lat="43.24626241439819" lon="12.143090732985204"><ele>319.0</ele><time>2026-04-26T16:08:53Z</time></trkpt><trkpt lat="43.24617157717711" lon="12.142981157252741"><ele>319.0</ele><time>2026-04-26T16:08:55Z</time></trkpt><trkpt lat="43.24610371866459" lon="12.142933760908187"><ele>319.0</ele><time>2026-04-26T16:08:56Z</time></trkpt><trkpt lat="43.24601937176244" lon="12.142899650184322"><ele>319.0</ele><time>2026-04-26T16:08:57Z</time></trkpt><trkpt lat="43.24593981954329" lon="12.142880049086545"><ele>319.0</ele><time>2026-04-26T16:08:58Z</time></trkpt><trkpt lat="43.24586423194852" lon="12.142881330568935"><ele>319.0</ele><time>2026-04-26T16:08:59Z</time></trkpt><trkpt lat="43.245790595727556" lon="12.14285647862658"><ele>319.0</ele><time>2026-04-26T16:09:00Z</time></trkpt><trkpt lat="43.24570198887072" lon="12.142836726121931"><ele>319.0</ele><time>2026-04-26T16:09:01Z</time></trkpt><trkpt lat="43.24560236395646" lon="12.142819484600901"><ele>319.0</ele><time>2026-04-26T16:09:02Z</time></trkpt><trkpt lat="43.24550560301571" lon="12.142781527256066"><ele>319.0</ele><time>2026-04-26T16:09:03Z</time></trkpt><trkpt lat="43.24538876466919" lon="12.14277817232677"><ele>320.2</ele><time>2026-04-26T16:09:04Z</time></trkpt><trkpt lat="43.24525386357349" lon="12.142751685134831"><ele>321.4</ele><time>2026-04-26T16:09:05Z</time></trkpt><trkpt lat="43.24514165689145" lon="12.14272683444024"><ele>322.6</ele><time>2026-04-26T16:09:06Z</time></trkpt><trkpt lat="43.24506183024913" lon="12.142666188040039"><ele>323.8</ele><time>2026-04-26T16:09:07Z</time></trkpt><trkpt lat="43.2449958631417" lon="12.142607931942813"><ele>325.0</ele><time>2026-04-26T16:09:08Z</time></trkpt><trkpt lat="43.24493082297885" lon="12.142558045628455"><ele>325.0</ele><time>2026-04-26T16:09:09Z</time></trkpt><trkpt lat="43.24482759325168" lon="12.142501666236196"><ele>325.0</ele><time>2026-04-26T16:09:11Z</time></trkpt><trkpt lat="43.24477587745391" lon="12.142446181931257"><ele>325.0</ele><time>2026-04-26T16:09:12Z</time></trkpt><trkpt lat="43.24470315223718" lon="12.142395551296488"><ele>325.0</ele><time>2026-04-26T16:09:13Z</time></trkpt><trkpt lat="43.244644481239426" lon="12.142354704829136"><ele>325.0</ele><time>2026-04-26T16:09:14Z</time></trkpt><trkpt lat="43.24456223199237" lon="12.142332902303336"><ele>325.0</ele><time>2026-04-26T16:09:26.001Z</time></trkpt><trkpt lat="43.24445997934317" lon="12.14226407482389"><ele>326.66666666666663</ele><time>2026-04-26T16:09:28.001Z</time></trkpt><trkpt lat="43.24439053164777" lon="12.142222488225778"><ele>328.3333333333333</ele><time>2026-04-26T16:09:29.001Z</time></trkpt><trkpt lat="43.24432776239675" lon="12.142184126707594"><ele>330.0</ele><time>2026-04-26T16:09:30.001Z</time></trkpt><trkpt lat="43.24425223182032" lon="12.142148756024405"><ele>331.6666666666667</ele><time>2026-04-26T16:09:31.001Z</time></trkpt><trkpt lat="43.24415936297584" lon="12.142131668837896"><ele>333.33333333333337</ele><time>2026-04-26T16:09:32.001Z</time></trkpt><trkpt lat="43.244054570242405" lon="12.142132650262274"><ele>335.0</ele><time>2026-04-26T16:09:33.001Z</time></trkpt><trkpt lat="43.243958257812935" lon="12.142118058534038"><ele>337.6</ele><time>2026-04-26T16:09:34.001Z</time></trkpt><trkpt lat="43.24385881663787" lon="12.14212033675828"><ele>340.2</ele><time>2026-04-26T16:09:35.001Z</time></trkpt><trkpt lat="43.24376190340032" lon="12.142128963817704"><ele>342.79999999999995</ele><time>2026-04-26T16:09:36.001Z</time></trkpt><trkpt lat="43.2436624874696" lon="12.142138762741581"><ele>345.4</ele><time>2026-04-26T16:09:37.001Z</time></trkpt><trkpt lat="43.24356063050049" lon="12.142168642196863"><ele>348.0</ele><time>2026-04-26T16:09:38.001Z</time></trkpt><trkpt lat="43.243468910305985" lon="12.14217823584386"><ele>348.0</ele><time>2026-04-26T16:09:39.001Z</time></trkpt><trkpt lat="43.24337361768024" lon="12.142186940616032"><ele>348.0</ele><time>2026-04-26T16:09:40.001Z</time></trkpt><trkpt lat="43.24328758749321" lon="12.142168456524955"><ele>348.0</ele><time>2026-04-26T16:09:41.001Z</time></trkpt><trkpt lat="43.24320510949045" lon="12.142164301471572"><ele>348.0</ele><time>2026-04-26T16:09:42.001Z</time></trkpt><trkpt lat="43.24312055284512" lon="12.142156625375446"><ele>348.0</ele><time>2026-04-26T16:09:43.001Z</time></trkpt><trkpt lat="43.24302148256486" lon="12.142167704488674"><ele>348.0</ele><time>2026-04-26T16:09:44.001Z</time></trkpt><trkpt lat="43.24291597628798" lon="12.142176993589372"><ele>350.2</ele><time>2026-04-26T16:09:45.001Z</time></trkpt><trkpt lat="43.24281034670424" lon="12.142155539666781"><ele>352.4</ele><time>2026-04-26T16:09:46.001Z</time></trkpt><trkpt lat="43.242700405610584" lon="12.142137644264098"><ele>354.59999999999997</ele><time>2026-04-26T16:09:47.001Z</time></trkpt><trkpt lat="43.24261416359657" lon="12.142118175851573"><ele>356.79999999999995</ele><time>2026-04-26T16:09:48.001Z</time></trkpt><trkpt lat="43.242550942539594" lon="12.142136584764826"><ele>359.0</ele><time>2026-04-26T16:09:49.001Z</time></trkpt><trkpt lat="43.242463985609206" lon="12.142244762114093"><ele>359.0</ele><time>2026-04-26T16:09:51.001Z</time></trkpt><trkpt lat="43.242416790016485" lon="12.14232013274687"><ele>359.0</ele><time>2026-04-26T16:09:52.001Z</time></trkpt><trkpt lat="43.242293539992936" lon="12.142381146368256"><ele>359.0</ele><time>2026-04-26T16:09:54.001Z</time></trkpt><trkpt lat="43.24219583428532" lon="12.142438147504802"><ele>359.0</ele><time>2026-04-26T16:09:55.001Z</time></trkpt><trkpt lat="43.24208945782788" lon="12.14252297483373"><ele>359.0</ele><time>2026-04-26T16:09:56.001Z</time></trkpt><trkpt lat="43.24200355073744" lon="12.14259147935551"><ele>359.6666666666667</ele><time>2026-04-26T16:09:57.001Z</time></trkpt><trkpt lat="43.241941255955744" lon="12.142660564703174"><ele>360.33333333333337</ele><time>2026-04-26T16:09:58.001Z</time></trkpt><trkpt lat="43.241879617464654" lon="12.142688844877943"><ele>361.0</ele><time>2026-04-26T16:09:59.001Z</time></trkpt><trkpt lat="43.24181243375752" lon="12.142740511977395"><ele>361.6666666666667</ele><time>2026-04-26T16:10:00.001Z</time></trkpt><trkpt lat="43.241744462241726" lon="12.142786935291344"><ele>362.3333333333333</ele><time>2026-04-26T16:10:01.001Z</time></trkpt><trkpt lat="43.24166419756983" lon="12.142844413523239"><ele>363.0</ele><time>2026-04-26T16:10:02.001Z</time></trkpt><trkpt lat="43.241579969254836" lon="12.142874171793853"><ele>363.0</ele><time>2026-04-26T16:10:03.001Z</time></trkpt><trkpt lat="43.24149764149494" lon="12.142888169773316"><ele>363.0</ele><time>2026-04-26T16:10:04.001Z</time></trkpt><trkpt lat="43.24143444904951" lon="12.14289160457325"><ele>363.0</ele><time>2026-04-26T16:10:05.001Z</time></trkpt><trkpt lat="43.241341504005426" lon="12.142775147951234"><ele>363.0</ele><time>2026-04-26T16:10:07.001Z</time></trkpt><trkpt lat="43.2412878897381" lon="12.142674023016454"><ele>363.0</ele><time>2026-04-26T16:10:08.001Z</time></trkpt><trkpt lat="43.24122959498901" lon="12.142603924523627"><ele>363.0</ele><time>2026-04-26T16:10:09Z</time></trkpt><trkpt lat="43.24116320903098" lon="12.142560415842281"><ele>364.0</ele><time>2026-04-26T16:10:10Z</time></trkpt><trkpt lat="43.24101769602813" lon="12.142585133674698"><ele>365.0</ele><time>2026-04-26T16:10:12Z</time></trkpt><trkpt lat="43.24092848860957" lon="12.142606342443429"><ele>366.0</ele><time>2026-04-26T16:10:13Z</time></trkpt><trkpt lat="43.24085521964823" lon="12.14259080646102"><ele>367.0</ele><time>2026-04-26T16:10:14Z</time></trkpt><trkpt lat="43.240781448109125" lon="12.142558937257242"><ele>368.0</ele><time>2026-04-26T16:10:15Z</time></trkpt><trkpt lat="43.24072710540005" lon="12.142499344529387"><ele>368.0</ele><time>2026-04-26T16:10:16Z</time></trkpt><trkpt lat="43.24069432514072" lon="12.14240805840192"><ele>368.0</ele><time>2026-04-26T16:10:17Z</time></trkpt><trkpt lat="43.24065349146295" lon="12.142316389803254"><ele>368.0</ele><time>2026-04-26T16:10:19Z</time></trkpt><trkpt lat="43.240541953206865" lon="12.142398223342402"><ele>368.0</ele><time>2026-04-26T16:10:22Z</time></trkpt><trkpt lat="43.24048438201364" lon="12.142448965879321"><ele>368.0</ele><time>2026-04-26T16:10:23Z</time></trkpt><trkpt lat="43.24042320189542" lon="12.142501962497219"><ele>368.0</ele><time>2026-04-26T16:10:24Z</time></trkpt><trkpt lat="43.240331907074825" lon="12.142625886455711"><ele>371.6666666666667</ele><time>2026-04-26T16:10:26Z</time></trkpt><trkpt lat="43.24030158656576" lon="12.142707048863398"><ele>375.33333333333337</ele><time>2026-04-26T16:10:27Z</time></trkpt><trkpt lat="43.24027703974085" lon="12.142831016435238"><ele>379.0</ele><time>2026-04-26T16:10:29Z</time></trkpt><trkpt lat="43.24034143231563" lon="12.142850995374472"><ele>382.6666666666667</ele><time>2026-04-26T16:10:30Z</time></trkpt><trkpt lat="43.24043400001851" lon="12.142896429127664"><ele>386.3333333333333</ele><time>2026-04-26T16:10:32Z</time></trkpt><trkpt lat="43.240529267842184" lon="12.142906948550664"><ele>390.0</ele><time>2026-04-26T16:10:34Z</time></trkpt><trkpt lat="43.24054665778161" lon="12.143048760026144"><ele>390.0</ele><time>2026-04-26T16:10:36Z</time></trkpt><trkpt lat="43.24047800778511" lon="12.14314301888447"><ele>390.0</ele><time>2026-04-26T16:10:38Z</time></trkpt><trkpt lat="43.24036065636002" lon="12.143155322567406"><ele>390.0</ele><time>2026-04-26T16:10:40Z</time></trkpt><trkpt lat="43.240307694249665" lon="12.14325357544706"><ele>390.0</ele><time>2026-04-26T16:10:42Z</time></trkpt><trkpt lat="43.24029946590834" lon="12.14341839463826"><ele>390.0</ele><time>2026-04-26T16:10:44Z</time></trkpt><trkpt lat="43.24031594091336" lon="12.143511639198202"><ele>391.5</ele><time>2026-04-26T16:10:45Z</time></trkpt><trkpt lat="43.240338093318215" lon="12.14359403991433"><ele>393.0</ele><time>2026-04-26T16:10:46Z</time></trkpt><trkpt lat="43.24028519541875" lon="12.143691258559544"><ele>394.5</ele><time>2026-04-26T16:10:48Z</time></trkpt><trkpt lat="43.240174070987436" lon="12.143672255396009"><ele>396.0</ele><time>2026-04-26T16:10:49Z</time></trkpt><trkpt lat="43.240101650490914" lon="12.143648792895428"><ele>397.5</ele><time>2026-04-26T16:10:50Z</time></trkpt><trkpt lat="43.24002986501764" lon="12.14366350288846"><ele>399.0</ele><time>2026-04-26T16:10:51Z</time></trkpt><trkpt lat="43.23993969420686" lon="12.143673352879809"><ele>399.0</ele><time>2026-04-26T16:10:52Z</time></trkpt><trkpt lat="43.239849644885894" lon="12.143682869104776"><ele>399.0</ele><time>2026-04-26T16:10:53Z</time></trkpt><trkpt lat="43.23971557915527" lon="12.143671566248202"><ele>399.0</ele><time>2026-04-26T16:10:55Z</time></trkpt><trkpt lat="43.239636695613825" lon="12.14366374342707"><ele>399.0</ele><time>2026-04-26T16:10:56Z</time></trkpt><trkpt lat="43.23956336678737" lon="12.143652583965185"><ele>399.0</ele><time>2026-04-26T16:10:57Z</time></trkpt><trkpt lat="43.23941900271178" lon="12.143644155444388"><ele>404.6</ele><time>2026-04-26T16:10:59Z</time></trkpt><trkpt lat="43.239341347146976" lon="12.1436691402366"><ele>410.2</ele><time>2026-04-26T16:11:00Z</time></trkpt><trkpt lat="43.23924442832189" lon="12.143755029431055"><ele>415.80000000000007</ele><time>2026-04-26T16:11:02Z</time></trkpt><trkpt lat="43.239190832995085" lon="12.14391083295254"><ele>421.40000000000003</ele><time>2026-04-26T16:11:04Z</time></trkpt><trkpt lat="43.23914796460474" lon="12.144006866123142"><ele>427.0</ele><time>2026-04-26T16:11:05Z</time></trkpt><trkpt lat="43.23907484074618" lon="12.144039879417383"><ele>426.6666666666667</ele><time>2026-04-26T16:11:06Z</time></trkpt><trkpt lat="43.23900929767786" lon="12.144104068207943"><ele>426.33333333333337</ele><time>2026-04-26T16:11:07Z</time></trkpt><trkpt lat="43.238933847863954" lon="12.14412406530467"><ele>426.0</ele><time>2026-04-26T16:11:08Z</time></trkpt><trkpt lat="43.23884682690641" lon="12.144127533030654"><ele>425.66666666666663</ele><time>2026-04-26T16:11:09Z</time></trkpt><trkpt lat="43.238764298554166" lon="12.144140498715064"><ele>425.3333333333333</ele><time>2026-04-26T16:11:10Z</time></trkpt><trkpt lat="43.23870086841258" lon="12.144186178080133"><ele>425.0</ele><time>2026-04-26T16:11:11.001Z</time></trkpt><trkpt lat="43.23864733527865" lon="12.144263097068212"><ele>428.99999999999994</ele><time>2026-04-26T16:11:13.001Z</time></trkpt><trkpt lat="43.238563053056076" lon="12.144308685898187"><ele>433.0</ele><time>2026-04-26T16:11:19.001Z</time></trkpt><trkpt lat="43.23852262069878" lon="12.144399268604865"><ele>437.0</ele><time>2026-04-26T16:11:21.001Z</time></trkpt><trkpt lat="43.23844698272042" lon="12.14435608572013"><ele>441.0</ele><time>2026-04-26T16:11:22.001Z</time></trkpt><trkpt lat="43.2383939812894" lon="12.144421260985817"><ele>444.99999999999994</ele><time>2026-04-26T16:11:24.001Z</time></trkpt><trkpt lat="43.238372868196564" lon="12.144544944250988"><ele>449.0</ele><time>2026-04-26T16:11:26.001Z</time></trkpt><trkpt lat="43.238336410899684" lon="12.144695571132273"><ele>449.0</ele><time>2026-04-26T16:11:28.001Z</time></trkpt><trkpt lat="43.23827760342498" lon="12.144845345441972"><ele>449.0</ele><time>2026-04-26T16:11:30.001Z</time></trkpt><trkpt lat="43.23822768059733" lon="12.144953269021281"><ele>449.0</ele><time>2026-04-26T16:11:32.001Z</time></trkpt><trkpt lat="43.23821629210217" lon="12.145065684013064"><ele>449.0</ele><time>2026-04-26T16:11:34.001Z</time></trkpt><trkpt lat="43.23824723236585" lon="12.145195229212558"><ele>449.0</ele><time>2026-04-26T16:11:36.001Z</time></trkpt><trkpt lat="43.238318354601006" lon="12.145313866685305"><ele>449.16666666666663</ele><time>2026-04-26T16:11:38.001Z</time></trkpt><trkpt lat="43.238346836092916" lon="12.145395129990929"><ele>449.3333333333333</ele><time>2026-04-26T16:11:39.001Z</time></trkpt><trkpt lat="43.23838576834006" lon="12.14548118726726"><ele>449.5</ele><time>2026-04-26T16:11:40.001Z</time></trkpt><trkpt lat="43.23843466145684" lon="12.145556103899121"><ele>449.66666666666663</ele><time>2026-04-26T16:11:41.001Z</time></trkpt><trkpt lat="43.238502466310116" lon="12.145680045022415"><ele>449.8333333333333</ele><time>2026-04-26T16:11:43.001Z</time></trkpt><trkpt lat="43.238541783088266" lon="12.1457611127367"><ele>450.0</ele><time>2026-04-26T16:11:45.001Z</time></trkpt><trkpt lat="43.23857813684421" lon="12.145865881709518"><ele>451.5</ele><time>2026-04-26T16:11:48.001Z</time></trkpt><trkpt lat="43.2386072881419" lon="12.145956868060217"><ele>453.0</ele><time>2026-04-26T16:11:50.001Z</time></trkpt><trkpt lat="43.238652573189995" lon="12.146084095000738"><ele>454.5</ele><time>2026-04-26T16:11:52.001Z</time></trkpt><trkpt lat="43.23870815410514" lon="12.146206110207784"><ele>456.0</ele><time>2026-04-26T16:11:54.001Z</time></trkpt><trkpt lat="43.238721101886554" lon="12.146292937447539"><ele>457.5</ele><time>2026-04-26T16:11:55.001Z</time></trkpt><trkpt lat="43.23873230929758" lon="12.14642055480307"><ele>459.0</ele><time>2026-04-26T16:11:57.001Z</time></trkpt><trkpt lat="43.23878352418958" lon="12.14650346313034"><ele>458.0</ele><time>2026-04-26T16:12:00.001Z</time></trkpt><trkpt lat="43.23883367286077" lon="12.146585401483454"><ele>457.0</ele><time>2026-04-26T16:12:01.001Z</time></trkpt><trkpt lat="43.23886629028472" lon="12.146680653463909"><ele>456.0</ele><time>2026-04-26T16:12:02.001Z</time></trkpt><trkpt lat="43.23890930532153" lon="12.14680688287892"><ele>455.0</ele><time>2026-04-26T16:12:04.001Z</time></trkpt><trkpt lat="43.23895711105758" lon="12.146896031471499"><ele>454.0</ele><time>2026-04-26T16:12:07.001Z</time></trkpt><trkpt lat="43.23897817838854" lon="12.147034015591727"><ele>453.0</ele><time>2026-04-26T16:12:10.001Z</time></trkpt><trkpt lat="43.239000081749964" lon="12.147116966863859"><ele>453.0</ele><time>2026-04-26T16:12:11.001Z</time></trkpt><trkpt lat="43.23905053202146" lon="12.147269227536825"><ele>452.99999999999994</ele><time>2026-04-26T16:12:13.001Z</time></trkpt><trkpt lat="43.23906303909854" lon="12.147424908403186"><ele>452.99999999999994</ele><time>2026-04-26T16:12:15.001Z</time></trkpt><trkpt lat="43.23916139534231" lon="12.147512025188758"><ele>453.0</ele><time>2026-04-26T16:12:17.001Z</time></trkpt><trkpt lat="43.23921514576324" lon="12.147586215308667"><ele>453.0</ele><time>2026-04-26T16:12:19.001Z</time></trkpt><trkpt lat="43.239310458922944" lon="12.147631259582129"><ele>455.4</ele><time>2026-04-26T16:12:21.001Z</time></trkpt><trkpt lat="43.23936801895688" lon="12.147763334554307"><ele>457.79999999999995</ele><time>2026-04-26T16:12:23.001Z</time></trkpt><trkpt lat="43.23931968270008" lon="12.147907986391942"><ele>460.2</ele><time>2026-04-26T16:12:25.001Z</time></trkpt><trkpt lat="43.23938060592536" lon="12.148040976875029"><ele>462.6</ele><time>2026-04-26T16:12:27.001Z</time></trkpt><trkpt lat="43.23942026948381" lon="12.148108118543108"><ele>465.0</ele><time>2026-04-26T16:12:28.001Z</time></trkpt><trkpt lat="43.239444854857084" lon="12.148258308173249"><ele>467.6</ele><time>2026-04-26T16:12:30.001Z</time></trkpt><trkpt lat="43.23944586810882" lon="12.148380512005971"><ele>470.2</ele><time>2026-04-26T16:12:32.001Z</time></trkpt><trkpt lat="43.239441148153475" lon="12.148535639971609"><ele>472.79999999999995</ele><time>2026-04-26T16:12:34.001Z</time></trkpt><trkpt lat="43.23949710915625" lon="12.148657441154002"><ele>475.4</ele><time>2026-04-26T16:12:36.001Z</time></trkpt><trkpt lat="43.23959166668465" lon="12.148693900146188"><ele>478.0</ele><time>2026-04-26T16:12:38.001Z</time></trkpt><trkpt lat="43.23966208070229" lon="12.14869480996746"><ele>478.00000000000006</ele><time>2026-04-26T16:12:39.001Z</time></trkpt><trkpt lat="43.239724928047906" lon="12.148702666462697"><ele>478.0</ele><time>2026-04-26T16:12:40.001Z</time></trkpt><trkpt lat="43.239810060908674" lon="12.148705968437291"><ele>478.0</ele><time>2026-04-26T16:12:41.001Z</time></trkpt><trkpt lat="43.23989357975384" lon="12.148690201192148"><ele>478.0</ele><time>2026-04-26T16:12:42.001Z</time></trkpt><trkpt lat="43.239963947474926" lon="12.148682911065194"><ele>478.00000000000006</ele><time>2026-04-26T16:12:43.001Z</time></trkpt><trkpt lat="43.24005226238608" lon="12.148693896279363"><ele>478.0</ele><time>2026-04-26T16:12:45.001Z</time></trkpt><trkpt lat="43.240156730952116" lon="12.14876160155227"><ele>477.6666666666667</ele><time>2026-04-26T16:12:47.001Z</time></trkpt><trkpt lat="43.24014022581948" lon="12.148899354955184"><ele>477.33333333333337</ele><time>2026-04-26T16:12:49.001Z</time></trkpt><trkpt lat="43.24008998167471" lon="12.148953040910635"><ele>477.0</ele><time>2026-04-26T16:12:50.001Z</time></trkpt><trkpt lat="43.240032180275335" lon="12.149007820043122"><ele>476.66666666666663</ele><time>2026-04-26T16:12:51.001Z</time></trkpt><trkpt lat="43.23995076401335" lon="12.149118783100976"><ele>476.3333333333333</ele><time>2026-04-26T16:12:53.001Z</time></trkpt><trkpt lat="43.2399053264583" lon="12.149183745516263"><ele>476.0</ele><time>2026-04-26T16:12:54.001Z</time></trkpt><trkpt lat="43.23985083835797" lon="12.149267324441249"><ele>478.0</ele><time>2026-04-26T16:12:55.001Z</time></trkpt><trkpt lat="43.23980358453427" lon="12.149352613069507"><ele>480.0</ele><time>2026-04-26T16:12:56.001Z</time></trkpt><trkpt lat="43.23976860739786" lon="12.149424723361616"><ele>482.0</ele><time>2026-04-26T16:12:57.001Z</time></trkpt><trkpt lat="43.239694174191825" lon="12.149541447921388"><ele>484.0</ele><time>2026-04-26T16:12:59.001Z</time></trkpt><trkpt lat="43.23959382914887" lon="12.149630001552234"><ele>486.0</ele><time>2026-04-26T16:13:01.001Z</time></trkpt><trkpt lat="43.239522879211684" lon="12.149679845758039"><ele>487.1666666666667</ele><time>2026-04-26T16:13:02.001Z</time></trkpt><trkpt lat="43.23943139376799" lon="12.14974849657564"><ele>488.33333333333337</ele><time>2026-04-26T16:13:04.001Z</time></trkpt><trkpt lat="43.23932448332538" lon="12.149796387056089"><ele>489.5</ele><time>2026-04-26T16:13:06.001Z</time></trkpt><trkpt lat="43.23925770161028" lon="12.149812535968"><ele>490.6666666666667</ele><time>2026-04-26T16:13:07.001Z</time></trkpt><trkpt lat="43.23919024791279" lon="12.14980560524304"><ele>491.83333333333337</ele><time>2026-04-26T16:13:09.001Z</time></trkpt><trkpt lat="43.23914326976397" lon="12.149872623871737"><ele>493.0</ele><time>2026-04-26T16:13:11.001Z</time></trkpt><trkpt lat="43.23912159585375" lon="12.14999759038358"><ele>495.00000000000006</ele><time>2026-04-26T16:13:13.001Z</time></trkpt><trkpt lat="43.239038375506006" lon="12.150031770709255"><ele>497.0</ele><time>2026-04-26T16:13:16.001Z</time></trkpt><trkpt lat="43.23897870192076" lon="12.150130850478734"><ele>499.0</ele><time>2026-04-26T16:13:18.001Z</time></trkpt><trkpt lat="43.2389285117966" lon="12.150199967423116"><ele>501.0</ele><time>2026-04-26T16:13:20.001Z</time></trkpt><trkpt lat="43.238858725554906" lon="12.150266717007444"><ele>503.00000000000006</ele><time>2026-04-26T16:13:22.001Z</time></trkpt><trkpt lat="43.23879495033429" lon="12.150298060196274"><ele>505.0</ele><time>2026-04-26T16:13:24.001Z</time></trkpt><trkpt lat="43.23871557360158" lon="12.150334026184936"><ele>507.2</ele><time>2026-04-26T16:13:56.001Z</time></trkpt><trkpt lat="43.2386041092084" lon="12.150343430602753"><ele>509.4</ele><time>2026-04-26T16:13:59.001Z</time></trkpt><trkpt lat="43.23853396868978" lon="12.150353622908094"><ele>511.6</ele><time>2026-04-26T16:14:01.001Z</time></trkpt><trkpt lat="43.23843918448285" lon="12.150362871749627"><ele>513.8</ele><time>2026-04-26T16:14:03.001Z</time></trkpt><trkpt lat="43.23834776483021" lon="12.150415745672912"><ele>516.0</ele><time>2026-04-26T16:14:05.001Z</time></trkpt><trkpt lat="43.23823694858855" lon="12.150424112436763"><ele>518.8333333333334</ele><time>2026-04-26T16:14:07.001Z</time></trkpt><trkpt lat="43.23812384836713" lon="12.150442046286459"><ele>521.6666666666666</ele><time>2026-04-26T16:14:09.001Z</time></trkpt><trkpt lat="43.23805957201797" lon="12.150456182909885"><ele>524.5</ele><time>2026-04-26T16:14:10.001Z</time></trkpt><trkpt lat="43.23798963140537" lon="12.15043855551469"><ele>527.3333333333333</ele><time>2026-04-26T16:14:11.001Z</time></trkpt><trkpt lat="43.23789371232683" lon="12.15045628575655"><ele>530.1666666666666</ele><time>2026-04-26T16:14:13.001Z</time></trkpt><trkpt lat="43.23781943595338" lon="12.150446027775171"><ele>533.0</ele><time>2026-04-26T16:14:15.001Z</time></trkpt><trkpt lat="43.23773245765733" lon="12.15040332214773"><ele>533.0</ele><time>2026-04-26T16:14:17.001Z</time></trkpt><trkpt lat="43.23761616300381" lon="12.150384870345981"><ele>533.0</ele><time>2026-04-26T16:14:19.001Z</time></trkpt><trkpt lat="43.23747525779028" lon="12.150418296444935"><ele>533.0</ele><time>2026-04-26T16:14:21.001Z</time></trkpt><trkpt lat="43.23739304589622" lon="12.150409629475437"><ele>533.0</ele><time>2026-04-26T16:14:23.001Z</time></trkpt><trkpt lat="43.2373173957393" lon="12.150394345113295"><ele>533.0</ele><time>2026-04-26T16:14:25.001Z</time></trkpt><trkpt lat="43.237218450820194" lon="12.15044794934994"><ele>538.0</ele><time>2026-04-26T16:14:27.001Z</time></trkpt><trkpt lat="43.23711210147663" lon="12.15043148010036"><ele>543.0</ele><time>2026-04-26T16:14:30.001Z</time></trkpt><trkpt lat="43.23704925190696" lon="12.15049358586573"><ele>548.0</ele><time>2026-04-26T16:14:32.001Z</time></trkpt><trkpt lat="43.23692791849967" lon="12.15052533302717"><ele>553.0</ele><time>2026-04-26T16:14:34.001Z</time></trkpt><trkpt lat="43.23682044292005" lon="12.150534732319688"><ele>558.0</ele><time>2026-04-26T16:14:36.001Z</time></trkpt><trkpt lat="43.23675429385858" lon="12.150515707991092"><ele>558.0</ele><time>2026-04-26T16:14:38.001Z</time></trkpt><trkpt lat="43.23664807006632" lon="12.150496363969955"><ele>558.0</ele><time>2026-04-26T16:14:40.001Z</time></trkpt><trkpt lat="43.236582226347394" lon="12.15046696525311"><ele>558.0</ele><time>2026-04-26T16:14:41.001Z</time></trkpt><trkpt lat="43.236523602713014" lon="12.150435239823384"><ele>558.0</ele><time>2026-04-26T16:14:42.001Z</time></trkpt><trkpt lat="43.236452161067" lon="12.150422599513965"><ele>558.0</ele><time>2026-04-26T16:14:43.001Z</time></trkpt><trkpt lat="43.23635093814856" lon="12.150398463701524"><ele>558.0</ele><time>2026-04-26T16:14:45.001Z</time></trkpt><trkpt lat="43.236225582833235" lon="12.150401658641748"><ele>562.8</ele><time>2026-04-26T16:14:47.001Z</time></trkpt><trkpt lat="43.236135879047964" lon="12.15040726790334"><ele>567.5999999999999</ele><time>2026-04-26T16:14:49.001Z</time></trkpt><trkpt lat="43.23608149404441" lon="12.150480933563717"><ele>572.4000000000001</ele><time>2026-04-26T16:14:51.001Z</time></trkpt><trkpt lat="43.23596926614051" lon="12.150491659795865"><ele>577.2</ele><time>2026-04-26T16:14:53.001Z</time></trkpt><trkpt lat="43.23589580883697" lon="12.150440410964057"><ele>582.0</ele><time>2026-04-26T16:14:54.001Z</time></trkpt><trkpt lat="43.235807102748005" lon="12.150351104040633"><ele>582.0</ele><time>2026-04-26T16:14:56.001Z</time></trkpt><trkpt lat="43.23574654117456" lon="12.150326664539667"><ele>582.0</ele><time>2026-04-26T16:14:57.001Z</time></trkpt><trkpt lat="43.23561782352673" lon="12.150329018887193"><ele>582.0</ele><time>2026-04-26T16:14:59.001Z</time></trkpt><trkpt lat="43.23552059081691" lon="12.150289980429427"><ele>582.0</ele><time>2026-04-26T16:15:01.001Z</time></trkpt><trkpt lat="43.235465506707065" lon="12.150159680407029"><ele>582.0</ele><time>2026-04-26T16:15:03.001Z</time></trkpt><trkpt lat="43.23540325060508" lon="12.150066115139417"><ele>585.0</ele><time>2026-04-26T16:15:05.001Z</time></trkpt><trkpt lat="43.235340496660086" lon="12.149985892312534"><ele>588.0</ele><time>2026-04-26T16:15:08.001Z</time></trkpt><trkpt lat="43.2352449991915" lon="12.14997449809412"><ele>591.0</ele><time>2026-04-26T16:15:10.001Z</time></trkpt><trkpt lat="43.23513894478137" lon="12.149917830424842"><ele>594.0</ele><time>2026-04-26T16:15:12.001Z</time></trkpt><trkpt lat="43.235085668799464" lon="12.14986927873362"><ele>597.0</ele><time>2026-04-26T16:15:13.001Z</time></trkpt><trkpt lat="43.235024619748124" lon="12.149813664874992"><ele>600.0</ele><time>2026-04-26T16:15:14.001Z</time></trkpt><trkpt lat="43.23496339529142" lon="12.149726592030975"><ele>600.0</ele><time>2026-04-26T16:15:15.001Z</time></trkpt><trkpt lat="43.23490267286901" lon="12.14966712855491"><ele>600.0</ele><time>2026-04-26T16:15:16.001Z</time></trkpt><trkpt lat="43.234800474085475" lon="12.149667516366073"><ele>600.0</ele><time>2026-04-26T16:15:18.001Z</time></trkpt><trkpt lat="43.23472387627965" lon="12.149656857053476"><ele>600.0</ele><time>2026-04-26T16:15:19.001Z</time></trkpt><trkpt lat="43.2346528841628" lon="12.149646487882004"><ele>600.0</ele><time>2026-04-26T16:15:20.001Z</time></trkpt><trkpt lat="43.23454835724997" lon="12.149625472427815"><ele>600.0</ele><time>2026-04-26T16:15:22.001Z</time></trkpt><trkpt lat="43.23448002273013" lon="12.149605969595147"><ele>602.5</ele><time>2026-04-26T16:15:23.001Z</time></trkpt><trkpt lat="43.23437120209757" lon="12.149559201122738"><ele>605.0</ele><time>2026-04-26T16:15:25.001Z</time></trkpt><trkpt lat="43.23427124556685" lon="12.149542801572492"><ele>607.5</ele><time>2026-04-26T16:15:27.001Z</time></trkpt><trkpt lat="43.23415223186201" lon="12.149584896979412"><ele>610.0</ele><time>2026-04-26T16:15:29.001Z</time></trkpt><trkpt lat="43.234033873571015" lon="12.149618288247876"><ele>612.6</ele><time>2026-04-26T16:15:31.001Z</time></trkpt><trkpt lat="43.23392732863143" lon="12.149618495795744"><ele>615.2</ele><time>2026-04-26T16:15:33.001Z</time></trkpt><trkpt lat="43.23386299209479" lon="12.149648373245986"><ele>617.8</ele><time>2026-04-26T16:15:34.001Z</time></trkpt><trkpt lat="43.23374631090633" lon="12.149595168294116"><ele>620.4</ele><time>2026-04-26T16:15:36.001Z</time></trkpt><trkpt lat="43.23365332707264" lon="12.149668444822984"><ele>623.0</ele><time>2026-04-26T16:15:39.001Z</time></trkpt><trkpt lat="43.23356531524552" lon="12.149722131580782"><ele>624.0</ele><time>2026-04-26T16:15:41.001Z</time></trkpt><trkpt lat="43.23356251652387" lon="12.150002168230596"><ele>625.0</ele><time>2026-04-26T16:15:43.001Z</time></trkpt><trkpt lat="43.233508800374054" lon="12.150072269949957"><ele>626.0</ele><time>2026-04-26T16:15:45.001Z</time></trkpt><trkpt lat="43.233443638325944" lon="12.15015140933748"><ele>627.0</ele><time>2026-04-26T16:15:47.001Z</time></trkpt><trkpt lat="43.233327517046895" lon="12.150250740361521"><ele>627.0</ele><time>2026-04-26T16:15:49.001Z</time></trkpt><trkpt lat="43.233259160320564" lon="12.150300192330155"><ele>627.0</ele><time>2026-04-26T16:15:50.001Z</time></trkpt><trkpt lat="43.23317667320938" lon="12.150424688551023"><ele>627.0</ele><time>2026-04-26T16:15:52.001Z</time></trkpt><trkpt lat="43.23313744385389" lon="12.150512430555477"><ele>627.0</ele><time>2026-04-26T16:15:53.001Z</time></trkpt><trkpt lat="43.23311427605094" lon="12.150607466988262"><ele>627.0</ele><time>2026-04-26T16:15:54.001Z</time></trkpt><trkpt lat="43.23304568997712" lon="12.150721835549271"><ele>630.8</ele><time>2026-04-26T16:15:56.001Z</time></trkpt><trkpt lat="43.23297897555943" lon="12.150747822344224"><ele>634.6</ele><time>2026-04-26T16:15:57.001Z</time></trkpt><trkpt lat="43.23291519089366" lon="12.150743387453872"><ele>638.4</ele><time>2026-04-26T16:15:58.001Z</time></trkpt><trkpt lat="43.232840000233665" lon="12.150723113527292"><ele>642.1999999999999</ele><time>2026-04-26T16:16:00.001Z</time></trkpt><trkpt lat="43.2327379545273" lon="12.15083122756346"><ele>646.0</ele><time>2026-04-26T16:16:02.001Z</time></trkpt><trkpt lat="43.23265313742878" lon="12.1509306208932"><ele>646.0</ele><time>2026-04-26T16:16:04.001Z</time></trkpt><trkpt lat="43.232589597551915" lon="12.151014349420418"><ele>646.0</ele><time>2026-04-26T16:16:06.001Z</time></trkpt><trkpt lat="43.232520283979" lon="12.1510823541442"><ele>646.0</ele><time>2026-04-26T16:16:08.001Z</time></trkpt><trkpt lat="43.232409563238946" lon="12.151156141680419"><ele>646.0</ele><time>2026-04-26T16:16:10.001Z</time></trkpt><trkpt lat="43.23239610709062" lon="12.151243457778332"><ele>646.0</ele><time>2026-04-26T16:16:12.001Z</time></trkpt><trkpt lat="43.23242994436396" lon="12.15134033383512"><ele>646.0</ele><time>2026-04-26T16:16:14.001Z</time></trkpt><trkpt lat="43.23249825328591" lon="12.151514094823945"><ele>645.0</ele><time>2026-04-26T16:16:16.001Z</time></trkpt><trkpt lat="43.23252318992631" lon="12.15165800828678"><ele>644.0</ele><time>2026-04-26T16:16:17.001Z</time></trkpt><trkpt lat="43.23251620099788" lon="12.151757681613569"><ele>643.0</ele><time>2026-04-26T16:16:18.001Z</time></trkpt><trkpt lat="43.23251858440562" lon="12.151856923232764"><ele>642.0</ele><time>2026-04-26T16:16:19.001Z</time></trkpt><trkpt lat="43.23250663766118" lon="12.151945846841896"><ele>641.0</ele><time>2026-04-26T16:16:20.001Z</time></trkpt><trkpt lat="43.232473757689" lon="12.152049843603493"><ele>640.0</ele><time>2026-04-26T16:16:22.001Z</time></trkpt><trkpt lat="43.232397417396136" lon="12.152179067212433"><ele>640.0</ele><time>2026-04-26T16:16:24.001Z</time></trkpt><trkpt lat="43.232348097372174" lon="12.152234347227886"><ele>640.0</ele><time>2026-04-26T16:16:25.001Z</time></trkpt><trkpt lat="43.232294959994356" lon="12.152296371519707"><ele>640.0</ele><time>2026-04-26T16:16:27.001Z</time></trkpt><trkpt lat="43.2322387560194" lon="12.152352644155707"><ele>640.0</ele><time>2026-04-26T16:16:28.001Z</time></trkpt><trkpt lat="43.23215062992976" lon="12.152448832982916"><ele>640.0</ele><time>2026-04-26T16:16:29.001Z</time></trkpt><trkpt lat="43.23208688161824" lon="12.152510551476615"><ele>640.0</ele><time>2026-04-26T16:16:30.001Z</time></trkpt><trkpt lat="43.232034820797345" lon="12.152568219530867"><ele>642.8</ele><time>2026-04-26T16:16:31.001Z</time></trkpt><trkpt lat="43.231952597759495" lon="12.152619767256539"><ele>645.6</ele><time>2026-04-26T16:16:33.001Z</time></trkpt><trkpt lat="43.231841884094635" lon="12.152604064509598"><ele>648.4000000000001</ele><time>2026-04-26T16:16:35.001Z</time></trkpt><trkpt lat="43.23175280376682" lon="12.152661325089849"><ele>651.2</ele><time>2026-04-26T16:16:37.001Z</time></trkpt><trkpt lat="43.231754108845735" lon="12.152808062123041"><ele>654.0</ele><time>2026-04-26T16:16:39.001Z</time></trkpt><trkpt lat="43.2316854899695" lon="12.152921036570499"><ele>654.0</ele><time>2026-04-26T16:16:41.001Z</time></trkpt><trkpt lat="43.23159385688644" lon="12.152974476430266"><ele>654.0</ele><time>2026-04-26T16:16:43.001Z</time></trkpt><trkpt lat="43.23156319004755" lon="12.153115275090782"><ele>654.0</ele><time>2026-04-26T16:16:45.001Z</time></trkpt><trkpt lat="43.231604768210374" lon="12.153269971781647"><ele>654.0</ele><time>2026-04-26T16:16:47.001Z</time></trkpt><trkpt lat="43.23163376514143" lon="12.153395231255972"><ele>654.0</ele><time>2026-04-26T16:16:49.001Z</time></trkpt><trkpt lat="43.23166593288245" lon="12.153480266878859"><ele>654.3333333333334</ele><time>2026-04-26T16:16:50.001Z</time></trkpt><trkpt lat="43.23170157530131" lon="12.153556413440638"><ele>654.6666666666666</ele><time>2026-04-26T16:16:51.001Z</time></trkpt><trkpt lat="43.231726455764424" lon="12.15364137869731"><ele>655.0</ele><time>2026-04-26T16:16:52.001Z</time></trkpt><trkpt lat="43.23171800234862" lon="12.153783415770084"><ele>655.3333333333333</ele><time>2026-04-26T16:16:54.001Z</time></trkpt><trkpt lat="43.231691454694136" lon="12.153874899135294"><ele>655.6666666666666</ele><time>2026-04-26T16:16:55.001Z</time></trkpt><trkpt lat="43.23167177519803" lon="12.153963947115006"><ele>656.0</ele><time>2026-04-26T16:16:56.001Z</time></trkpt><trkpt lat="43.23170397308555" lon="12.154097524470517"><ele>656.0</ele><time>2026-04-26T16:16:58.001Z</time></trkpt><trkpt lat="43.23175050898234" lon="12.154176059904465"><ele>656.0</ele><time>2026-04-26T16:16:59.001Z</time></trkpt><trkpt lat="43.23179080389835" lon="12.154245241046825"><ele>656.0</ele><time>2026-04-26T16:17:00.001Z</time></trkpt><trkpt lat="43.231806254343255" lon="12.154361900581096"><ele>656.0</ele><time>2026-04-26T16:17:02.001Z</time></trkpt><trkpt lat="43.23170460638939" lon="12.154395919025836"><ele>656.0</ele><time>2026-04-26T16:17:04.001Z</time></trkpt><trkpt lat="43.23162407647448" lon="12.154427668989257"><ele>656.0</ele><time>2026-04-26T16:17:06.001Z</time></trkpt><trkpt lat="43.23158309829451" lon="12.154592745622402"><ele>656.0</ele><time>2026-04-26T16:17:08.001Z</time></trkpt><trkpt lat="43.23156168922027" lon="12.154683324975855"><ele>656.0</ele><time>2026-04-26T16:17:09.001Z</time></trkpt><trkpt lat="43.231519179751224" lon="12.154756071143188"><ele>656.0</ele><time>2026-04-26T16:17:10.001Z</time></trkpt><trkpt lat="43.23142686188118" lon="12.154871760335055"><ele>656.0</ele><time>2026-04-26T16:17:12.001Z</time></trkpt><trkpt lat="43.231363741306275" lon="12.154887469651527"><ele>656.0</ele><time>2026-04-26T16:17:13.001Z</time></trkpt><trkpt lat="43.231291072794285" lon="12.154886788393732"><ele>656.0</ele><time>2026-04-26T16:17:14.001Z</time></trkpt><trkpt lat="43.231211156484314" lon="12.15487929134208"><ele>657.3333333333333</ele><time>2026-04-26T16:17:15.001Z</time></trkpt><trkpt lat="43.23112860662093" lon="12.154861710502384"><ele>658.6666666666666</ele><time>2026-04-26T16:17:16.001Z</time></trkpt><trkpt lat="43.23104878342201" lon="12.154846242466764"><ele>660.0</ele><time>2026-04-26T16:17:17.001Z</time></trkpt><trkpt lat="43.23096129279575" lon="12.154826099873791"><ele>661.3333333333334</ele><time>2026-04-26T16:17:18.001Z</time></trkpt><trkpt lat="43.23088436612293" lon="12.15480733116746"><ele>662.6666666666667</ele><time>2026-04-26T16:17:19.001Z</time></trkpt><trkpt lat="43.2308114836479" lon="12.154797072402586"><ele>664.0</ele><time>2026-04-26T16:17:20.001Z</time></trkpt><trkpt lat="43.230681983230625" lon="12.154792986747635"><ele>663.1666666666667</ele><time>2026-04-26T16:17:22.001Z</time></trkpt><trkpt lat="43.23060525370536" lon="12.154822608681403"><ele>662.3333333333334</ele><time>2026-04-26T16:17:23.001Z</time></trkpt><trkpt lat="43.23052239950392" lon="12.154871073437938"><ele>661.5</ele><time>2026-04-26T16:17:24.001Z</time></trkpt><trkpt lat="43.230458393036244" lon="12.154910443193037"><ele>660.6666666666666</ele><time>2026-04-26T16:17:25.001Z</time></trkpt><trkpt lat="43.23036053351382" lon="12.1549109165601"><ele>659.8333333333333</ele><time>2026-04-26T16:17:27.001Z</time></trkpt><trkpt lat="43.23033704896263" lon="12.154818594026215"><ele>659.0</ele><time>2026-04-26T16:17:30.001Z</time></trkpt><trkpt lat="43.23039181184198" lon="12.154690024791178"><ele>659.0</ele><time>2026-04-26T16:17:32.001Z</time></trkpt><trkpt lat="43.23042617728623" lon="12.154598315705824"><ele>659.0</ele><time>2026-04-26T16:17:33.001Z</time></trkpt><trkpt lat="43.23047752250269" lon="12.15450164042731"><ele>659.0</ele><time>2026-04-26T16:17:34.001Z</time></trkpt><trkpt lat="43.230569718026956" lon="12.154459714152752"><ele>659.0</ele><time>2026-04-26T16:17:35.001Z</time></trkpt><trkpt lat="43.2306257547165" lon="12.15438138655764"><ele>659.0</ele><time>2026-04-26T16:17:36.001Z</time></trkpt><trkpt lat="43.230688160046505" lon="12.154240520614517"><ele>659.8333333333333</ele><time>2026-04-26T16:17:38.001Z</time></trkpt><trkpt lat="43.23073214144696" lon="12.154168372968886"><ele>660.6666666666666</ele><time>2026-04-26T16:17:39.001Z</time></trkpt><trkpt lat="43.230730669971784" lon="12.154077056691946"><ele>661.5</ele><time>2026-04-26T16:17:40.001Z</time></trkpt><trkpt lat="43.23071500716717" lon="12.153908791017274"><ele>662.3333333333334</ele><time>2026-04-26T16:17:42.001Z</time></trkpt><trkpt lat="43.23071296549606" lon="12.153821783959483"><ele>663.1666666666667</ele><time>2026-04-26T16:17:43.001Z</time></trkpt><trkpt lat="43.23069526522426" lon="12.153714472964856"><ele>664.0</ele><time>2026-04-26T16:17:44.001Z</time></trkpt><trkpt lat="43.230683640027145" lon="12.153586344828323"><ele>664.5</ele><time>2026-04-26T16:17:45.001Z</time></trkpt><trkpt lat="43.230670675876425" lon="12.153438220755378"><ele>665.0</ele><time>2026-04-26T16:17:46.001Z</time></trkpt><trkpt lat="43.230651828271604" lon="12.153285870517626"><ele>665.5</ele><time>2026-04-26T16:17:47.001Z</time></trkpt><trkpt lat="43.23062854923735" lon="12.153117745415503"><ele>666.0</ele><time>2026-04-26T16:17:48.001Z</time></trkpt><trkpt lat="43.2306007474384" lon="12.152956754104277"><ele>666.5999999999999</ele><time>2026-04-26T16:17:49.001Z</time></trkpt><trkpt lat="43.230588783986185" lon="12.152811040711795"><ele>667.2</ele><time>2026-04-26T16:17:50.001Z</time></trkpt><trkpt lat="43.23058119930273" lon="12.152669453424185"><ele>667.8</ele><time>2026-04-26T16:17:51.001Z</time></trkpt><trkpt lat="43.23057204815842" lon="12.152513805991129"><ele>668.4000000000001</ele><time>2026-04-26T16:17:52.001Z</time></trkpt><trkpt lat="43.230561002540824" lon="12.152364933032276"><ele>669.0</ele><time>2026-04-26T16:17:53.001Z</time></trkpt><trkpt lat="43.23055278248259" lon="12.152230658378535"><ele>667.2</ele><time>2026-04-26T16:17:54.001Z</time></trkpt><trkpt lat="43.23055155031571" lon="12.15210568629523"><ele>665.4000000000001</ele><time>2026-04-26T16:17:55.001Z</time></trkpt><trkpt lat="43.23056313499338" lon="12.151989192474241"><ele>663.6</ele><time>2026-04-26T16:17:56.001Z</time></trkpt><trkpt lat="43.23059058371963" lon="12.151892809923128"><ele>661.8</ele><time>2026-04-26T16:17:57.001Z</time></trkpt><trkpt lat="43.23062044776197" lon="12.15181536039059"><ele>660.0</ele><time>2026-04-26T16:17:58.001Z</time></trkpt><trkpt lat="43.23060080639725" lon="12.151609795805227"><ele>663.0</ele><time>2026-04-26T16:18:00.001Z</time></trkpt><trkpt lat="43.23058054913058" lon="12.151484228174157"><ele>666.0</ele><time>2026-04-26T16:18:01.001Z</time></trkpt><trkpt lat="43.23056338306685" lon="12.151360947428245"><ele>669.0</ele><time>2026-04-26T16:18:02.001Z</time></trkpt><trkpt lat="43.23055314981061" lon="12.15126972925975"><ele>672.0</ele><time>2026-04-26T16:18:03.001Z</time></trkpt><trkpt lat="43.23060970673276" lon="12.151142600142775"><ele>675.0</ele><time>2026-04-26T16:18:05.001Z</time></trkpt><trkpt lat="43.230676021976954" lon="12.15115182471741"><ele>678.0</ele><time>2026-04-26T16:18:06.001Z</time></trkpt><trkpt lat="43.23081356881526" lon="12.15112793183402"><ele>679.8333333333334</ele><time>2026-04-26T16:18:08.001Z</time></trkpt><trkpt lat="43.23088115869332" lon="12.15111228286433"><ele>681.6666666666666</ele><time>2026-04-26T16:18:09.001Z</time></trkpt><trkpt lat="43.23096031663777" lon="12.151080929517233"><ele>683.5</ele><time>2026-04-26T16:18:10.001Z</time></trkpt><trkpt lat="43.231042299133705" lon="12.151035026895244"><ele>685.3333333333333</ele><time>2026-04-26T16:18:11.001Z</time></trkpt><trkpt lat="43.231112747038885" lon="12.150973882312421"><ele>687.1666666666666</ele><time>2026-04-26T16:18:12.001Z</time></trkpt><trkpt lat="43.2311541324829" lon="12.15087265718365"><ele>689.0</ele><time>2026-04-26T16:18:13.001Z</time></trkpt><trkpt lat="43.231190729973" lon="12.150768597426996"><ele>689.8000000000001</ele><time>2026-04-26T16:18:14.001Z</time></trkpt><trkpt lat="43.23120000109449" lon="12.150677522743589"><ele>690.6</ele><time>2026-04-26T16:18:15.001Z</time></trkpt><trkpt lat="43.23117475230235" lon="12.15056610046414"><ele>691.4</ele><time>2026-04-26T16:18:16.001Z</time></trkpt><trkpt lat="43.23112595955446" lon="12.150439720913187"><ele>692.2</ele><time>2026-04-26T16:18:17.001Z</time></trkpt><trkpt lat="43.23105852845801" lon="12.15032809160742"><ele>693.0</ele><time>2026-04-26T16:18:18.001Z</time></trkpt><trkpt lat="43.23097945109286" lon="12.150211615972786"><ele>693.0</ele><time>2026-04-26T16:18:19.001Z</time></trkpt><trkpt lat="43.230913080593105" lon="12.150097782277932"><ele>693.0</ele><time>2026-04-26T16:18:20.001Z</time></trkpt><trkpt lat="43.23086978810134" lon="12.1500125286139"><ele>693.0</ele><time>2026-04-26T16:18:21.001Z</time></trkpt><trkpt lat="43.230830352994396" lon="12.149918085040811"><ele>693.0</ele><time>2026-04-26T16:18:22.001Z</time></trkpt><trkpt lat="43.23078989518146" lon="12.149774277527603"><ele>693.0</ele><time>2026-04-26T16:18:23.001Z</time></trkpt><trkpt lat="43.230737396693414" lon="12.149639180995415"><ele>693.5</ele><time>2026-04-26T16:18:24.001Z</time></trkpt><trkpt lat="43.230660752320965" lon="12.149522817806409"><ele>694.0</ele><time>2026-04-26T16:18:25.001Z</time></trkpt><trkpt lat="43.230582686936344" lon="12.14939292021898"><ele>694.5</ele><time>2026-04-26T16:18:26.001Z</time></trkpt><trkpt lat="43.23052835202916" lon="12.149258674958265"><ele>695.0</ele><time>2026-04-26T16:18:27.001Z</time></trkpt><trkpt lat="43.23047185961237" lon="12.149134367896414"><ele>694.0</ele><time>2026-04-26T16:18:28.001Z</time></trkpt><trkpt lat="43.230422323956546" lon="12.14899342547375"><ele>693.0</ele><time>2026-04-26T16:18:29.001Z</time></trkpt><trkpt lat="43.23037186933612" lon="12.14884948601957"><ele>692.0</ele><time>2026-04-26T16:18:30.001Z</time></trkpt><trkpt lat="43.23032083445669" lon="12.14871190203007"><ele>691.0</ele><time>2026-04-26T16:18:31.001Z</time></trkpt><trkpt lat="43.23026054202124" lon="12.148578365223637"><ele>691.0</ele><time>2026-04-26T16:18:32.001Z</time></trkpt><trkpt lat="43.23020288695186" lon="12.148447972526704"><ele>691.0</ele><time>2026-04-26T16:18:33.001Z</time></trkpt><trkpt lat="43.230154003347906" lon="12.148309788579846"><ele>691.0</ele><time>2026-04-26T16:18:34.001Z</time></trkpt><trkpt lat="43.23010713379753" lon="12.14817689112892"><ele>691.0</ele><time>2026-04-26T16:18:35.001Z</time></trkpt><trkpt lat="43.230054752240676" lon="12.148045983173374"><ele>691.0</ele><time>2026-04-26T16:18:36.001Z</time></trkpt><trkpt lat="43.230004928996934" lon="12.147926191860092"><ele>691.6666666666667</ele><time>2026-04-26T16:18:37.001Z</time></trkpt><trkpt lat="43.229957195623335" lon="12.147807150962121"><ele>692.3333333333334</ele><time>2026-04-26T16:18:38.001Z</time></trkpt><trkpt lat="43.22991589411523" lon="12.147704241881552"><ele>693.0</ele><time>2026-04-26T16:18:39.001Z</time></trkpt><trkpt lat="43.22987646088052" lon="12.147588339401423"><ele>693.6666666666666</ele><time>2026-04-26T16:18:40.001Z</time></trkpt><trkpt lat="43.22985259409532" lon="12.147491178456528"><ele>694.3333333333333</ele><time>2026-04-26T16:18:41.001Z</time></trkpt><trkpt lat="43.229831196600536" lon="12.147379734696926"><ele>695.0</ele><time>2026-04-26T16:18:42.001Z</time></trkpt><trkpt lat="43.22981136834702" lon="12.147282751980033"><ele>694.3333333333333</ele><time>2026-04-26T16:18:43.001Z</time></trkpt><trkpt lat="43.22977863949416" lon="12.147164519831495"><ele>693.6666666666666</ele><time>2026-04-26T16:18:44.001Z</time></trkpt><trkpt lat="43.229756783500655" lon="12.147078610453809"><ele>693.0</ele><time>2026-04-26T16:18:45.001Z</time></trkpt><trkpt lat="43.22973465525929" lon="12.14691833367547"><ele>692.3333333333334</ele><time>2026-04-26T16:18:47.001Z</time></trkpt><trkpt lat="43.229722528776946" lon="12.146811053181192"><ele>691.6666666666667</ele><time>2026-04-26T16:18:48.001Z</time></trkpt><trkpt lat="43.2297005584838" lon="12.146687982822796"><ele>691.0</ele><time>2026-04-26T16:18:50.001Z</time></trkpt><trkpt lat="43.22967116268057" lon="12.146565171068906"><ele>691.8333333333334</ele><time>2026-04-26T16:18:52.001Z</time></trkpt><trkpt lat="43.229648158283666" lon="12.146469049490092"><ele>692.6666666666667</ele><time>2026-04-26T16:18:53.001Z</time></trkpt><trkpt lat="43.22961933814121" lon="12.146347191376588"><ele>693.5</ele><time>2026-04-26T16:18:54.001Z</time></trkpt><trkpt lat="43.229605228745896" lon="12.14623765271948"><ele>694.3333333333334</ele><time>2026-04-26T16:18:55.001Z</time></trkpt><trkpt lat="43.229596664841644" lon="12.146101670106889"><ele>695.1666666666666</ele><time>2026-04-26T16:18:56.001Z</time></trkpt><trkpt lat="43.22959072578011" lon="12.14597074194486"><ele>696.0</ele><time>2026-04-26T16:18:57.001Z</time></trkpt><trkpt lat="43.22958699790889" lon="12.145836300104332"><ele>696.0</ele><time>2026-04-26T16:18:58.001Z</time></trkpt><trkpt lat="43.22958461282014" lon="12.145730935492052"><ele>696.0</ele><time>2026-04-26T16:18:59Z</time></trkpt><trkpt lat="43.22958218557821" lon="12.14562370848026"><ele>696.0</ele><time>2026-04-26T16:19:00Z</time></trkpt><trkpt lat="43.22957726291311" lon="12.145515889872065"><ele>696.0</ele><time>2026-04-26T16:19:01Z</time></trkpt><trkpt lat="43.22957286149243" lon="12.145420525659173"><ele>696.0</ele><time>2026-04-26T16:19:02Z</time></trkpt><trkpt lat="43.22956755625036" lon="12.145329918446333"><ele>696.0</ele><time>2026-04-26T16:19:03Z</time></trkpt><trkpt lat="43.22955551398318" lon="12.145172232956964"><ele>695.6666666666666</ele><time>2026-04-26T16:19:05Z</time></trkpt><trkpt lat="43.22954468939426" lon="12.145080037080964"><ele>695.3333333333334</ele><time>2026-04-26T16:19:06Z</time></trkpt><trkpt lat="43.22952662439143" lon="12.144954292267531"><ele>695.0</ele><time>2026-04-26T16:19:07Z</time></trkpt><trkpt lat="43.22949861936975" lon="12.144850709577714"><ele>694.6666666666667</ele><time>2026-04-26T16:19:08Z</time></trkpt><trkpt lat="43.229489543322885" lon="12.144714167360211"><ele>694.3333333333334</ele><time>2026-04-26T16:19:10Z</time></trkpt><trkpt lat="43.22954463465503" lon="12.144611764588005"><ele>694.0</ele><time>2026-04-26T16:19:12Z</time></trkpt><trkpt lat="43.22956525161896" lon="12.14443908150438"><ele>691.6</ele><time>2026-04-26T16:19:14Z</time></trkpt><trkpt lat="43.229580597483256" lon="12.144298620334059"><ele>689.2</ele><time>2026-04-26T16:19:16Z</time></trkpt><trkpt lat="43.229582658291285" lon="12.144149901511993"><ele>686.8000000000001</ele><time>2026-04-26T16:19:19Z</time></trkpt><trkpt lat="43.2295271404559" lon="12.144028384500853"><ele>684.4000000000001</ele><time>2026-04-26T16:19:21Z</time></trkpt><trkpt lat="43.22948742504766" lon="12.143896120352192"><ele>682.0</ele><time>2026-04-26T16:19:23Z</time></trkpt><trkpt lat="43.2294328543729" lon="12.143831017424175"><ele>680.2</ele><time>2026-04-26T16:19:25Z</time></trkpt><trkpt lat="43.22954700770697" lon="12.14374364692964"><ele>678.4000000000001</ele><time>2026-04-26T16:19:27Z</time></trkpt><trkpt lat="43.22958225419217" lon="12.143621891115364"><ele>676.5999999999999</ele><time>2026-04-26T16:19:28Z</time></trkpt><trkpt lat="43.2296181847098" lon="12.14349252482798"><ele>674.8</ele><time>2026-04-26T16:19:29Z</time></trkpt><trkpt lat="43.22965337788916" lon="12.143358452522628"><ele>673.0</ele><time>2026-04-26T16:19:30Z</time></trkpt><trkpt lat="43.22968669433515" lon="12.143253632142272"><ele>673.5</ele><time>2026-04-26T16:19:31Z</time></trkpt><trkpt lat="43.22972997896972" lon="12.143176175987092"><ele>674.0</ele><time>2026-04-26T16:19:32Z</time></trkpt><trkpt lat="43.22978317979422" lon="12.14307420297865"><ele>674.5</ele><time>2026-04-26T16:19:33Z</time></trkpt><trkpt lat="43.22984720290211" lon="12.14295562580988"><ele>675.0</ele><time>2026-04-26T16:19:34Z</time></trkpt><trkpt lat="43.22989578044976" lon="12.14283821171518"><ele>675.5</ele><time>2026-04-26T16:19:35Z</time></trkpt><trkpt lat="43.22991847845281" lon="12.142737136063147"><ele>676.0</ele><time>2026-04-26T16:19:36Z</time></trkpt><trkpt lat="43.22992284599148" lon="12.142597270819616"><ele>676.0</ele><time>2026-04-26T16:19:37Z</time></trkpt><trkpt lat="43.22994686080033" lon="12.14246160356805"><ele>676.0</ele><time>2026-04-26T16:19:38Z</time></trkpt><trkpt lat="43.229973145770664" lon="12.142367670148623"><ele>676.0</ele><time>2026-04-26T16:19:39Z</time></trkpt><trkpt lat="43.23000684390927" lon="12.142272550348908"><ele>676.0</ele><time>2026-04-26T16:19:40.001Z</time></trkpt><trkpt lat="43.23005064694584" lon="12.142190509064156"><ele>676.0</ele><time>2026-04-26T16:19:41.001Z</time></trkpt><trkpt lat="43.23009564970637" lon="12.142080964564485"><ele>676.0</ele><time>2026-04-26T16:19:43.001Z</time></trkpt><trkpt lat="43.23014428495301" lon="12.141931304977646"><ele>677.1666666666667</ele><time>2026-04-26T16:19:45.001Z</time></trkpt><trkpt lat="43.2301720921303" lon="12.141774197893746"><ele>678.3333333333334</ele><time>2026-04-26T16:19:47.001Z</time></trkpt><trkpt lat="43.230184683100575" lon="12.141685578133938"><ele>679.5</ele><time>2026-04-26T16:19:48.001Z</time></trkpt><trkpt lat="43.230200768312535" lon="12.141572363712083"><ele>680.6666666666666</ele><time>2026-04-26T16:19:49.001Z</time></trkpt><trkpt lat="43.23021380278734" lon="12.141480622383376"><ele>681.8333333333333</ele><time>2026-04-26T16:19:50.001Z</time></trkpt><trkpt lat="43.23023006268597" lon="12.141388576754936"><ele>683.0</ele><time>2026-04-26T16:19:51.001Z</time></trkpt><trkpt lat="43.230252120673896" lon="12.141302634764328"><ele>684.8</ele><time>2026-04-26T16:19:52.001Z</time></trkpt><trkpt lat="43.230309816852" lon="12.141167766496158"><ele>686.5999999999999</ele><time>2026-04-26T16:19:54.001Z</time></trkpt><trkpt lat="43.23035159835083" lon="12.14103211330477"><ele>688.4000000000001</ele><time>2026-04-26T16:19:56.001Z</time></trkpt><trkpt lat="43.23036167284378" lon="12.140916128586367"><ele>690.2</ele><time>2026-04-26T16:19:58.001Z</time></trkpt><trkpt lat="43.230384368048384" lon="12.14082999671048"><ele>692.0</ele><time>2026-04-26T16:20:00.001Z</time></trkpt><trkpt lat="43.2303617729885" lon="12.140693571938751"><ele>695.4000000000001</ele><time>2026-04-26T16:20:02.001Z</time></trkpt><trkpt lat="43.230390841896146" lon="12.140551457584376"><ele>698.8000000000001</ele><time>2026-04-26T16:20:04.001Z</time></trkpt><trkpt lat="43.23037310316622" lon="12.14041611426397"><ele>702.2</ele><time>2026-04-26T16:20:06.001Z</time></trkpt><trkpt lat="43.230355232180024" lon="12.140308833982804"><ele>705.6</ele><time>2026-04-26T16:20:08.001Z</time></trkpt><trkpt lat="43.23027794745514" lon="12.140215549229277"><ele>709.0</ele><time>2026-04-26T16:20:10.001Z</time></trkpt><trkpt lat="43.23023180828284" lon="12.14011371970912"><ele>709.0</ele><time>2026-04-26T16:20:12.001Z</time></trkpt><trkpt lat="43.230205408693266" lon="12.140015260187091"><ele>709.0</ele><time>2026-04-26T16:20:13.001Z</time></trkpt><trkpt lat="43.23016324294184" lon="12.139947395733868"><ele>709.0</ele><time>2026-04-26T16:20:14.001Z</time></trkpt><trkpt lat="43.23015509888897" lon="12.139837296602108"><ele>709.0</ele><time>2026-04-26T16:20:15.001Z</time></trkpt><trkpt lat="43.23010377855288" lon="12.139712234000386"><ele>709.0</ele><time>2026-04-26T16:20:16.001Z</time></trkpt><trkpt lat="43.23004519175238" lon="12.139572410871704"><ele>709.0</ele><time>2026-04-26T16:20:17.001Z</time></trkpt><trkpt lat="43.23000044559008" lon="12.139470004719739"><ele>708.8333333333334</ele><time>2026-04-26T16:20:18.001Z</time></trkpt><trkpt lat="43.22995807999699" lon="12.139375527690348"><ele>708.6666666666667</ele><time>2026-04-26T16:20:19.001Z</time></trkpt><trkpt lat="43.229919617369774" lon="12.13930390058274"><ele>708.5</ele><time>2026-04-26T16:20:20.001Z</time></trkpt><trkpt lat="43.22985271122471" lon="12.139220878531432"><ele>708.3333333333334</ele><time>2026-04-26T16:20:21.001Z</time></trkpt><trkpt lat="43.229788368761504" lon="12.139173454452385"><ele>708.1666666666666</ele><time>2026-04-26T16:20:22.001Z</time></trkpt><trkpt lat="43.22970778359289" lon="12.139091621195776"><ele>708.0</ele><time>2026-04-26T16:20:24.001Z</time></trkpt><trkpt lat="43.229667582267076" lon="12.139005417038872"><ele>707.6666666666666</ele><time>2026-04-26T16:20:25.001Z</time></trkpt><trkpt lat="43.22962576934057" lon="12.138886425099189"><ele>707.3333333333334</ele><time>2026-04-26T16:20:26.001Z</time></trkpt><trkpt lat="43.229567889219666" lon="12.138764443843057"><ele>707.0</ele><time>2026-04-26T16:20:27.001Z</time></trkpt><trkpt lat="43.229523743056724" lon="12.138654877629675"><ele>706.6666666666667</ele><time>2026-04-26T16:20:28.001Z</time></trkpt><trkpt lat="43.229505774408665" lon="12.138546468357788"><ele>706.3333333333334</ele><time>2026-04-26T16:20:29.001Z</time></trkpt><trkpt lat="43.229477139832916" lon="12.138452333391532"><ele>706.0</ele><time>2026-04-26T16:20:30.001Z</time></trkpt><trkpt lat="43.22944660640095" lon="12.138327540527204"><ele>706.8</ele><time>2026-04-26T16:20:32.001Z</time></trkpt><trkpt lat="43.229439282264366" lon="12.138168523389902"><ele>707.5999999999999</ele><time>2026-04-26T16:20:35.001Z</time></trkpt><trkpt lat="43.229457394711346" lon="12.13804155992361"><ele>708.4</ele><time>2026-04-26T16:20:37.001Z</time></trkpt><trkpt lat="43.22948928758025" lon="12.137861858639324"><ele>709.2</ele><time>2026-04-26T16:20:39Z</time></trkpt><trkpt lat="43.229509823403816" lon="12.137748372579122"><ele>710.0</ele><time>2026-04-26T16:20:40Z</time></trkpt><trkpt lat="43.22953462168759" lon="12.137625244224752"><ele>710.0</ele><time>2026-04-26T16:20:41Z</time></trkpt><trkpt lat="43.22956335215475" lon="12.137506159470862"><ele>710.0</ele><time>2026-04-26T16:20:42Z</time></trkpt><trkpt lat="43.229588365257044" lon="12.137411264874178"><ele>710.0</ele><time>2026-04-26T16:20:43Z</time></trkpt><trkpt lat="43.22962868092999" lon="12.137233796540565"><ele>710.0</ele><time>2026-04-26T16:20:45Z</time></trkpt><trkpt lat="43.22962474961462" lon="12.137126220681072"><ele>710.0</ele><time>2026-04-26T16:20:46Z</time></trkpt><trkpt lat="43.22964780617954" lon="12.137030567475673"><ele>712.0</ele><time>2026-04-26T16:20:47Z</time></trkpt><trkpt lat="43.229653621921294" lon="12.136943493766033"><ele>714.0</ele><time>2026-04-26T16:20:48Z</time></trkpt><trkpt lat="43.229662332550134" lon="12.136813076881577"><ele>716.0</ele><time>2026-04-26T16:20:50Z</time></trkpt><trkpt lat="43.229672124364484" lon="12.136714888136401"><ele>718.0</ele><time>2026-04-26T16:20:51Z</time></trkpt><trkpt lat="43.22968738386274" lon="12.136627353355815"><ele>720.0</ele><time>2026-04-26T16:20:52Z</time></trkpt><trkpt lat="43.22970342709238" lon="12.136528510980218"><ele>722.0</ele><time>2026-04-26T16:20:53Z</time></trkpt><trkpt lat="43.229733440658954" lon="12.136439210929455"><ele>724.0</ele><time>2026-04-26T16:20:54Z</time></trkpt><trkpt lat="43.22978555140652" lon="12.136341123030936"><ele>722.3333333333334</ele><time>2026-04-26T16:20:55Z</time></trkpt><trkpt lat="43.22985040757239" lon="12.136270859679083"><ele>720.6666666666667</ele><time>2026-04-26T16:20:56Z</time></trkpt><trkpt lat="43.22990363336369" lon="12.136192987595878"><ele>719.0</ele><time>2026-04-26T16:20:57Z</time></trkpt><trkpt lat="43.22998856690357" lon="12.136098158584714"><ele>717.3333333333334</ele><time>2026-04-26T16:20:59Z</time></trkpt><trkpt lat="43.23004654181895" lon="12.136044461563488"><ele>715.6666666666666</ele><time>2026-04-26T16:21:00Z</time></trkpt><trkpt lat="43.23012044466533" lon="12.135988152414635"><ele>714.0</ele><time>2026-04-26T16:21:02Z</time></trkpt><trkpt lat="43.23019685391265" lon="12.135923037991454"><ele>714.0</ele><time>2026-04-26T16:21:06Z</time></trkpt><trkpt lat="43.230262894108556" lon="12.135899265820655"><ele>714.0</ele><time>2026-04-26T16:21:07Z</time></trkpt><trkpt lat="43.230370450965076" lon="12.135863597325987"><ele>714.0</ele><time>2026-04-26T16:21:08Z</time></trkpt><trkpt lat="43.23049956430074" lon="12.135786849410204"><ele>714.0</ele><time>2026-04-26T16:21:09Z</time></trkpt><trkpt lat="43.23060114425149" lon="12.135715415583407"><ele>714.0</ele><time>2026-04-26T16:21:10Z</time></trkpt><trkpt lat="43.230702906481355" lon="12.135673417988318"><ele>715.2</ele><time>2026-04-26T16:21:11Z</time></trkpt><trkpt lat="43.230766163183944" lon="12.13566601629052"><ele>716.4000000000001</ele><time>2026-04-26T16:21:12Z</time></trkpt><trkpt lat="43.230876809148526" lon="12.135616803574496"><ele>717.6</ele><time>2026-04-26T16:21:14Z</time></trkpt><trkpt lat="43.23094422606063" lon="12.135583248457305"><ele>718.8</ele><time>2026-04-26T16:21:15Z</time></trkpt><trkpt lat="43.231025720789326" lon="12.135486251906746"><ele>720.0</ele><time>2026-04-26T16:21:16Z</time></trkpt><trkpt lat="43.231069644014596" lon="12.135353269196171"><ele>720.0</ele><time>2026-04-26T16:21:17Z</time></trkpt><trkpt lat="43.23108787781887" lon="12.135220886495102"><ele>720.0</ele><time>2026-04-26T16:21:18Z</time></trkpt><trkpt lat="43.23109834305891" lon="12.13507991025349"><ele>720.0</ele><time>2026-04-26T16:21:19Z</time></trkpt><trkpt lat="43.23110319045064" lon="12.134931635170576"><ele>720.0</ele><time>2026-04-26T16:21:20Z</time></trkpt><trkpt lat="43.23110342260058" lon="12.134802946513027"><ele>720.0</ele><time>2026-04-26T16:21:21Z</time></trkpt><trkpt lat="43.23110135615019" lon="12.13467446986254"><ele>721.4</ele><time>2026-04-26T16:21:22Z</time></trkpt><trkpt lat="43.231098213271196" lon="12.134550164870777"><ele>722.8</ele><time>2026-04-26T16:21:23Z</time></trkpt><trkpt lat="43.23108388542439" lon="12.134430090328756"><ele>724.2</ele><time>2026-04-26T16:21:24Z</time></trkpt><trkpt lat="43.23108592222936" lon="12.134297933746625"><ele>725.6</ele><time>2026-04-26T16:21:25Z</time></trkpt><trkpt lat="43.231077073750335" lon="12.134173955540318"><ele>727.0</ele><time>2026-04-26T16:21:26Z</time></trkpt><trkpt lat="43.231047338937316" lon="12.134057185538001"><ele>726.6</ele><time>2026-04-26T16:21:27Z</time></trkpt><trkpt lat="43.23104917499609" lon="12.133938682980714"><ele>726.2</ele><time>2026-04-26T16:21:28Z</time></trkpt><trkpt lat="43.23102931477946" lon="12.13378417987766"><ele>725.8</ele><time>2026-04-26T16:21:30Z</time></trkpt><trkpt lat="43.23100984190685" lon="12.133632691174954"><ele>725.4</ele><time>2026-04-26T16:21:31Z</time></trkpt><trkpt lat="43.23099174541352" lon="12.133458180400481"><ele>725.0</ele><time>2026-04-26T16:21:32Z</time></trkpt><trkpt lat="43.230981306511346" lon="12.13333348619113"><ele>724.8333333333333</ele><time>2026-04-26T16:21:33Z</time></trkpt><trkpt lat="43.23097263765483" lon="12.13315643166205"><ele>724.6666666666666</ele><time>2026-04-26T16:21:35Z</time></trkpt><trkpt lat="43.2309776293712" lon="12.133044413398423"><ele>724.5</ele><time>2026-04-26T16:21:36Z</time></trkpt><trkpt lat="43.23099269156739" lon="12.132951308306405"><ele>724.3333333333334</ele><time>2026-04-26T16:21:37Z</time></trkpt><trkpt lat="43.23102423010063" lon="12.13285314098852"><ele>724.1666666666667</ele><time>2026-04-26T16:21:38Z</time></trkpt><trkpt lat="43.23105592683821" lon="12.132743213253827"><ele>724.0</ele><time>2026-04-26T16:21:39Z</time></trkpt><trkpt lat="43.23108363536667" lon="12.132654322309296"><ele>724.0</ele><time>2026-04-26T16:21:40Z</time></trkpt><trkpt lat="43.23112503204978" lon="12.132535622821498"><ele>724.0</ele><time>2026-04-26T16:21:42Z</time></trkpt><trkpt lat="43.23103790852915" lon="12.132470963548009"><ele>724.0</ele><time>2026-04-26T16:21:46Z</time></trkpt><trkpt lat="43.230922643683044" lon="12.132529122850267"><ele>724.0</ele><time>2026-04-26T16:21:48Z</time></trkpt><trkpt lat="43.23082567788452" lon="12.132554462155257"><ele>724.0</ele><time>2026-04-26T16:21:50Z</time></trkpt><trkpt lat="43.23076036575738" lon="12.132566270211514"><ele>724.0</ele><time>2026-04-26T16:21:51Z</time></trkpt><trkpt lat="43.23069784425559" lon="12.132600720234569"><ele>724.0</ele><time>2026-04-26T16:21:52Z</time></trkpt><trkpt lat="43.23056909593123" lon="12.132612542251128"><ele>724.0</ele><time>2026-04-26T16:21:54Z</time></trkpt><trkpt lat="43.2304913228826" lon="12.132631096191096"><ele>724.0</ele><time>2026-04-26T16:21:55Z</time></trkpt><trkpt lat="43.230417001230165" lon="12.132650631756775"><ele>724.0</ele><time>2026-04-26T16:21:56Z</time></trkpt><trkpt lat="43.23030938189167" lon="12.132687438978023"><ele>724.4000000000001</ele><time>2026-04-26T16:21:58Z</time></trkpt><trkpt lat="43.23024541748958" lon="12.132713322820754"><ele>724.8</ele><time>2026-04-26T16:22:00Z</time></trkpt><trkpt lat="43.23009194248484" lon="12.132782701021823"><ele>725.2</ele><time>2026-04-26T16:22:02Z</time></trkpt><trkpt lat="43.23000593605499" lon="12.132821758787266"><ele>725.5999999999999</ele><time>2026-04-26T16:22:03Z</time></trkpt><trkpt lat="43.22992725979506" lon="12.132857979283271"><ele>726.0</ele><time>2026-04-26T16:22:04Z</time></trkpt><trkpt lat="43.229856727908036" lon="12.132902889253243"><ele>722.5999999999999</ele><time>2026-04-26T16:22:05Z</time></trkpt><trkpt lat="43.2297791437668" lon="12.132945453473742"><ele>719.2</ele><time>2026-04-26T16:22:06Z</time></trkpt><trkpt lat="43.22969957334498" lon="12.13300426382857"><ele>715.8</ele><time>2026-04-26T16:22:07Z</time></trkpt><trkpt lat="43.22957252615863" lon="12.133052078832742"><ele>712.4000000000001</ele><time>2026-04-26T16:22:09Z</time></trkpt><trkpt lat="43.229492016769804" lon="12.133098725677417"><ele>709.0</ele><time>2026-04-26T16:22:10Z</time></trkpt><trkpt lat="43.229404410456105" lon="12.133171494939834"><ele>709.0</ele><time>2026-04-26T16:22:11Z</time></trkpt><trkpt lat="43.22931008962145" lon="12.133205960935078"><ele>709.0</ele><time>2026-04-26T16:22:12Z</time></trkpt><trkpt lat="43.22922448573878" lon="12.133242139866795"><ele>709.0</ele><time>2026-04-26T16:22:13Z</time></trkpt><trkpt lat="43.22914603498046" lon="12.1332784577686"><ele>709.0</ele><time>2026-04-26T16:22:14Z</time></trkpt><trkpt lat="43.22907714411805" lon="12.133347108292028"><ele>709.0</ele><time>2026-04-26T16:22:15Z</time></trkpt><trkpt lat="43.22900277551107" lon="12.133407548784655"><ele>709.0</ele><time>2026-04-26T16:22:16Z</time></trkpt><trkpt lat="43.22891743432364" lon="12.13348053925263"><ele>708.1666666666667</ele><time>2026-04-26T16:22:17Z</time></trkpt><trkpt lat="43.228853782371736" lon="12.133537516058558"><ele>707.3333333333334</ele><time>2026-04-26T16:22:18Z</time></trkpt><trkpt lat="43.22878511130129" lon="12.13359985859991"><ele>706.5</ele><time>2026-04-26T16:22:19Z</time></trkpt><trkpt lat="43.22870860386625" lon="12.133669396254506"><ele>705.6666666666666</ele><time>2026-04-26T16:22:20Z</time></trkpt><trkpt lat="43.22863479963793" lon="12.133754335487849"><ele>704.8333333333333</ele><time>2026-04-26T16:22:21Z</time></trkpt><trkpt lat="43.22856439770668" lon="12.133835633420347"><ele>704.0</ele><time>2026-04-26T16:22:22Z</time></trkpt><trkpt lat="43.22849534487013" lon="12.133930178818488"><ele>704.0</ele><time>2026-04-26T16:22:23Z</time></trkpt><trkpt lat="43.22842853360413" lon="12.133994637768643"><ele>704.0</ele><time>2026-04-26T16:22:24Z</time></trkpt><trkpt lat="43.22836543257799" lon="12.134053897139058"><ele>704.0</ele><time>2026-04-26T16:22:25Z</time></trkpt><trkpt lat="43.22827100170694" lon="12.134133978025282"><ele>704.0</ele><time>2026-04-26T16:22:26Z</time></trkpt><trkpt lat="43.22819661172456" lon="12.134217541599117"><ele>704.0</ele><time>2026-04-26T16:22:27Z</time></trkpt><trkpt lat="43.2281273078305" lon="12.134301080844413"><ele>701.3333333333333</ele><time>2026-04-26T16:22:28Z</time></trkpt><trkpt lat="43.2280657109582" lon="12.134384868312534"><ele>698.6666666666666</ele><time>2026-04-26T16:22:29Z</time></trkpt><trkpt lat="43.22800550475812" lon="12.134467987055004"><ele>696.0</ele><time>2026-04-26T16:22:30Z</time></trkpt><trkpt lat="43.22794217305941" lon="12.134526575900145"><ele>693.3333333333334</ele><time>2026-04-26T16:22:31Z</time></trkpt><trkpt lat="43.22790847458402" lon="12.13461561398249"><ele>690.6666666666667</ele><time>2026-04-26T16:22:32Z</time></trkpt><trkpt lat="43.22786288686055" lon="12.134679884073533"><ele>688.0</ele><time>2026-04-26T16:22:33Z</time></trkpt><trkpt lat="43.22782301634785" lon="12.134788658425533"><ele>690.5</ele><time>2026-04-26T16:22:34Z</time></trkpt><trkpt lat="43.22778829727009" lon="12.134894122262338"><ele>693.0</ele><time>2026-04-26T16:22:35Z</time></trkpt><trkpt lat="43.227752029825936" lon="12.135006683674252"><ele>695.5</ele><time>2026-04-26T16:22:36Z</time></trkpt><trkpt lat="43.227716820499865" lon="12.13511579175412"><ele>698.0</ele><time>2026-04-26T16:22:37Z</time></trkpt><trkpt lat="43.22768631432218" lon="12.135216943200728"><ele>700.5</ele><time>2026-04-26T16:22:38Z</time></trkpt><trkpt lat="43.22764775559958" lon="12.135327821990673"><ele>703.0</ele><time>2026-04-26T16:22:39Z</time></trkpt><trkpt lat="43.22761298380662" lon="12.13544000062008"><ele>703.0</ele><time>2026-04-26T16:22:40Z</time></trkpt><trkpt lat="43.227585000635735" lon="12.13554656929169"><ele>703.0</ele><time>2026-04-26T16:22:41Z</time></trkpt><trkpt lat="43.22758303356982" lon="12.135672584672232"><ele>703.0</ele><time>2026-04-26T16:22:43Z</time></trkpt><trkpt lat="43.227607033573065" lon="12.135781789233695"><ele>703.0</ele><time>2026-04-26T16:22:46Z</time></trkpt><trkpt lat="43.22760892124505" lon="12.135914705032794"><ele>703.0</ele><time>2026-04-26T16:22:48Z</time></trkpt><trkpt lat="43.22757393723834" lon="12.136047755193452"><ele>704.3333333333334</ele><time>2026-04-26T16:22:50Z</time></trkpt><trkpt lat="43.22749147972762" lon="12.13606116196855"><ele>705.6666666666667</ele><time>2026-04-26T16:22:52Z</time></trkpt><trkpt lat="43.22738109510352" lon="12.13599251455846"><ele>707.0</ele><time>2026-04-26T16:22:54Z</time></trkpt><trkpt lat="43.22730653525846" lon="12.13595625425838"><ele>708.3333333333334</ele><time>2026-04-26T16:22:55Z</time></trkpt><trkpt lat="43.22722941419391" lon="12.135940799183736"><ele>709.6666666666666</ele><time>2026-04-26T16:22:56Z</time></trkpt><trkpt lat="43.22716311065645" lon="12.135945740822082"><ele>711.0</ele><time>2026-04-26T16:22:57Z</time></trkpt><trkpt lat="43.22708718743386" lon="12.135941439816383"><ele>707.0</ele><time>2026-04-26T16:22:58Z</time></trkpt><trkpt lat="43.22701763021366" lon="12.135935075670979"><ele>703.0</ele><time>2026-04-26T16:22:59Z</time></trkpt><trkpt lat="43.22689832408709" lon="12.135921985373853"><ele>699.0</ele><time>2026-04-26T16:23:01Z</time></trkpt><trkpt lat="43.22677691343483" lon="12.135903954203483"><ele>695.0</ele><time>2026-04-26T16:23:03Z</time></trkpt><trkpt lat="43.22668268857174" lon="12.135886739850267"><ele>691.0</ele><time>2026-04-26T16:23:05Z</time></trkpt><trkpt lat="43.226595910351826" lon="12.13587198196804"><ele>691.0</ele><time>2026-04-26T16:23:07Z</time></trkpt><trkpt lat="43.226496523576294" lon="12.135819161831387"><ele>691.0</ele><time>2026-04-26T16:23:09Z</time></trkpt><trkpt lat="43.226417225770085" lon="12.135761487507429"><ele>691.0</ele><time>2026-04-26T16:23:11Z</time></trkpt><trkpt lat="43.226340206492466" lon="12.135703382159251"><ele>691.0</ele><time>2026-04-26T16:23:13Z</time></trkpt><trkpt lat="43.22626724763394" lon="12.135658208935006"><ele>691.0</ele><time>2026-04-26T16:23:15Z</time></trkpt><trkpt lat="43.22616834163769" lon="12.135610881107638"><ele>685.5999999999999</ele><time>2026-04-26T16:23:18Z</time></trkpt><trkpt lat="43.22605769219733" lon="12.135579671327827"><ele>680.2</ele><time>2026-04-26T16:23:20Z</time></trkpt><trkpt lat="43.22598831640477" lon="12.135584235987393"><ele>674.8</ele><time>2026-04-26T16:23:21Z</time></trkpt><trkpt lat="43.225880451932994" lon="12.13556129660387"><ele>669.4000000000001</ele><time>2026-04-26T16:23:23Z</time></trkpt><trkpt lat="43.22578122106746" lon="12.135603288472257"><ele>664.0</ele><time>2026-04-26T16:23:25Z</time></trkpt><trkpt lat="43.22571317153783" lon="12.135616659979702"><ele>663.8000000000001</ele><time>2026-04-26T16:23:28Z</time></trkpt><trkpt lat="43.225636752300694" lon="12.135732335822079"><ele>663.6</ele><time>2026-04-26T16:23:30Z</time></trkpt><trkpt lat="43.22553427786557" lon="12.135795382659289"><ele>663.4</ele><time>2026-04-26T16:23:32Z</time></trkpt><trkpt lat="43.225523396932196" lon="12.135904182987638"><ele>663.2</ele><time>2026-04-26T16:23:33Z</time></trkpt><trkpt lat="43.225504500016676" lon="12.135991496558669"><ele>663.0</ele><time>2026-04-26T16:23:34Z</time></trkpt><trkpt lat="43.225415945069884" lon="12.136056115602033"><ele>663.0</ele><time>2026-04-26T16:23:36Z</time></trkpt><trkpt lat="43.22531408074538" lon="12.136154250937297"><ele>663.0</ele><time>2026-04-26T16:23:38Z</time></trkpt><trkpt lat="43.2252680455564" lon="12.136217110851291"><ele>663.0</ele><time>2026-04-26T16:23:39Z</time></trkpt><trkpt lat="43.22521529559881" lon="12.13628807046275"><ele>663.0</ele><time>2026-04-26T16:23:40Z</time></trkpt><trkpt lat="43.2251645287188" lon="12.136357779238967"><ele>663.0</ele><time>2026-04-26T16:23:41Z</time></trkpt><trkpt lat="43.22509544254835" lon="12.136455356661651"><ele>663.0</ele><time>2026-04-26T16:23:43Z</time></trkpt><trkpt lat="43.2250087880178" lon="12.136566131298366"><ele>663.5999999999999</ele><time>2026-04-26T16:23:45Z</time></trkpt><trkpt lat="43.224943716102686" lon="12.13673752660722"><ele>664.1999999999999</ele><time>2026-04-26T16:23:47Z</time></trkpt><trkpt lat="43.2248974276044" lon="12.136850145455227"><ele>664.8</ele><time>2026-04-26T16:23:48Z</time></trkpt><trkpt lat="43.2248703094449" lon="12.136936620476218"><ele>665.4</ele><time>2026-04-26T16:23:49Z</time></trkpt><trkpt lat="43.224793351401004" lon="12.137076950649917"><ele>666.0</ele><time>2026-04-26T16:23:51Z</time></trkpt><trkpt lat="43.22473113370638" lon="12.137127925870255"><ele>664.1666666666666</ele><time>2026-04-26T16:23:52Z</time></trkpt><trkpt lat="43.224662403093106" lon="12.13715847419192"><ele>662.3333333333334</ele><time>2026-04-26T16:23:53Z</time></trkpt><trkpt lat="43.22459879526681" lon="12.137172597515793"><ele>660.5</ele><time>2026-04-26T16:23:54Z</time></trkpt><trkpt lat="43.22453635590489" lon="12.137185814281446"><ele>658.6666666666667</ele><time>2026-04-26T16:23:55Z</time></trkpt><trkpt lat="43.22445784015441" lon="12.137202811160273"><ele>656.8333333333334</ele><time>2026-04-26T16:23:56Z</time></trkpt><trkpt lat="43.22436526338976" lon="12.137228363368637"><ele>655.0</ele><time>2026-04-26T16:23:57Z</time></trkpt><trkpt lat="43.224278665363876" lon="12.137241834034917"><ele>655.0</ele><time>2026-04-26T16:23:58Z</time></trkpt><trkpt lat="43.22419488616765" lon="12.137223594345876"><ele>655.0</ele><time>2026-04-26T16:23:59Z</time></trkpt><trkpt lat="43.22412351510286" lon="12.137217122063966"><ele>655.0</ele><time>2026-04-26T16:24:00Z</time></trkpt><trkpt lat="43.224055161906165" lon="12.137210080774851"><ele>655.0</ele><time>2026-04-26T16:24:01Z</time></trkpt><trkpt lat="43.223946468902234" lon="12.137196089127718"><ele>655.0</ele><time>2026-04-26T16:24:03Z</time></trkpt><trkpt lat="43.22388335310675" lon="12.137186528497248"><ele>655.0</ele><time>2026-04-26T16:24:04Z</time></trkpt><trkpt lat="43.223772692108824" lon="12.137129618204126"><ele>652.5</ele><time>2026-04-26T16:24:06Z</time></trkpt><trkpt lat="43.22368260168847" lon="12.137002130704197"><ele>650.0</ele><time>2026-04-26T16:24:07Z</time></trkpt><trkpt lat="43.223572901101974" lon="12.136993643668777"><ele>647.5</ele><time>2026-04-26T16:24:08Z</time></trkpt><trkpt lat="43.22343378854061" lon="12.137090595619716"><ele>645.0</ele><time>2026-04-26T16:24:09Z</time></trkpt><trkpt lat="43.22339430354956" lon="12.137394528643563"><ele>645.0</ele><time>2026-04-26T16:24:10Z</time></trkpt><trkpt lat="43.22342064269041" lon="12.13753342470624"><ele>645.0</ele><time>2026-04-26T16:24:12Z</time></trkpt><trkpt lat="43.22341036542363" lon="12.13765821382459"><ele>645.0</ele><time>2026-04-26T16:24:14Z</time></trkpt><trkpt lat="43.22334896655847" lon="12.137794542397646"><ele>645.0</ele><time>2026-04-26T16:24:16Z</time></trkpt><trkpt lat="43.22331954071866" lon="12.137970837965364"><ele>645.0</ele><time>2026-04-26T16:24:18Z</time></trkpt><trkpt lat="43.22329207194292" lon="12.13806911275719"><ele>645.0</ele><time>2026-04-26T16:24:19Z</time></trkpt><trkpt lat="43.22328840985746" lon="12.138172670543259"><ele>645.0</ele><time>2026-04-26T16:24:20Z</time></trkpt><trkpt lat="43.22326836477782" lon="12.138293854018995"><ele>645.0</ele><time>2026-04-26T16:24:21Z</time></trkpt><trkpt lat="43.223249769104655" lon="12.13840269504006"><ele>645.0</ele><time>2026-04-26T16:24:22Z</time></trkpt><trkpt lat="43.22323445412065" lon="12.138499398436068"><ele>645.0</ele><time>2026-04-26T16:24:23Z</time></trkpt><trkpt lat="43.22320765001947" lon="12.138624221382285"><ele>645.0</ele><time>2026-04-26T16:24:24Z</time></trkpt><trkpt lat="43.22315996237886" lon="12.138745742068068"><ele>642.8333333333334</ele><time>2026-04-26T16:24:25Z</time></trkpt><trkpt lat="43.223124637485256" lon="12.13884295384941"><ele>640.6666666666666</ele><time>2026-04-26T16:24:26Z</time></trkpt><trkpt lat="43.22307816981443" lon="12.138943921493244"><ele>638.5</ele><time>2026-04-26T16:24:27Z</time></trkpt><trkpt lat="43.22301572493898" lon="12.139044905524713"><ele>636.3333333333333</ele><time>2026-04-26T16:24:28Z</time></trkpt><trkpt lat="43.22295257913682" lon="12.139122121345057"><ele>634.1666666666666</ele><time>2026-04-26T16:24:29Z</time></trkpt><trkpt lat="43.222900274156075" lon="12.139191216519778"><ele>632.0</ele><time>2026-04-26T16:24:30Z</time></trkpt><trkpt lat="43.22284464970309" lon="12.139262553628766"><ele>632.0</ele><time>2026-04-26T16:24:31Z</time></trkpt><trkpt lat="43.22280776118135" lon="12.139334477152172"><ele>632.0</ele><time>2026-04-26T16:24:32Z</time></trkpt><trkpt lat="43.22274777719178" lon="12.139382479989317"><ele>632.0</ele><time>2026-04-26T16:24:33Z</time></trkpt><trkpt lat="43.222699722402" lon="12.139455124002707"><ele>632.0</ele><time>2026-04-26T16:24:34Z</time></trkpt><trkpt lat="43.222649621673426" lon="12.139539460750374"><ele>632.0</ele><time>2026-04-26T16:24:35Z</time></trkpt><trkpt lat="43.22256542012015" lon="12.13965351628196"><ele>632.0</ele><time>2026-04-26T16:24:37Z</time></trkpt><trkpt lat="43.222512945378966" lon="12.139712119515728"><ele>632.0</ele><time>2026-04-26T16:24:38Z</time></trkpt><trkpt lat="43.22246284803234" lon="12.13977703015147"><ele>632.0</ele><time>2026-04-26T16:24:39Z</time></trkpt><trkpt lat="43.222401378872206" lon="12.139900191342367"><ele>632.0</ele><time>2026-04-26T16:24:41Z</time></trkpt><trkpt lat="43.2223685623778" lon="12.139984615656006"><ele>632.0</ele><time>2026-04-26T16:24:42Z</time></trkpt><trkpt lat="43.22235948016116" lon="12.140107339198302"><ele>632.0</ele><time>2026-04-26T16:24:43Z</time></trkpt><trkpt lat="43.22234558138122" lon="12.140275031955502"><ele>632.0</ele><time>2026-04-26T16:24:45Z</time></trkpt><trkpt lat="43.222334173711815" lon="12.140439838660308"><ele>632.0</ele><time>2026-04-26T16:24:47Z</time></trkpt><trkpt lat="43.22232399587354" lon="12.140534262926211"><ele>632.0</ele><time>2026-04-26T16:24:48Z</time></trkpt><trkpt lat="43.22230401368788" lon="12.14063870960711"><ele>632.0</ele><time>2026-04-26T16:24:49Z</time></trkpt><trkpt lat="43.22228598193985" lon="12.140728764065196"><ele>632.0</ele><time>2026-04-26T16:24:50Z</time></trkpt><trkpt lat="43.2222740784779" lon="12.140900208221945"><ele>631.0</ele><time>2026-04-26T16:24:52.001Z</time></trkpt><trkpt lat="43.222242097802905" lon="12.140993108426823"><ele>630.0</ele><time>2026-04-26T16:24:53.001Z</time></trkpt><trkpt lat="43.222195235904344" lon="12.14106864770726"><ele>629.0</ele><time>2026-04-26T16:24:54.001Z</time></trkpt><trkpt lat="43.22213626967716" lon="12.141142319039671"><ele>628.0</ele><time>2026-04-26T16:24:55Z</time></trkpt><trkpt lat="43.222079432277226" lon="12.141215708216881"><ele>627.0</ele><time>2026-04-26T16:24:56Z</time></trkpt><trkpt lat="43.222017746759995" lon="12.14130701625798"><ele>626.0</ele><time>2026-04-26T16:24:57Z</time></trkpt><trkpt lat="43.221975567610095" lon="12.141375763611416"><ele>626.0</ele><time>2026-04-26T16:24:58Z</time></trkpt><trkpt lat="43.22191421579813" lon="12.141399064404135"><ele>626.0</ele><time>2026-04-26T16:25:01Z</time></trkpt><trkpt lat="43.22185785644481" lon="12.141456790301692"><ele>626.0</ele><time>2026-04-26T16:25:03Z</time></trkpt><trkpt lat="43.221810386941875" lon="12.14152597322856"><ele>626.0</ele><time>2026-04-26T16:25:04Z</time></trkpt><trkpt lat="43.22174979907" lon="12.141604809973789"><ele>626.0</ele><time>2026-04-26T16:25:05Z</time></trkpt><trkpt lat="43.22168634206903" lon="12.141648487437887"><ele>626.0</ele><time>2026-04-26T16:25:06Z</time></trkpt><trkpt lat="43.2215923751365" lon="12.141744807538895"><ele>626.3333333333333</ele><time>2026-04-26T16:25:08Z</time></trkpt><trkpt lat="43.221523212199806" lon="12.141790394442651"><ele>626.6666666666666</ele><time>2026-04-26T16:25:09Z</time></trkpt><trkpt lat="43.22142901125449" lon="12.141881415928172"><ele>627.0</ele><time>2026-04-26T16:25:11Z</time></trkpt><trkpt lat="43.22134931849152" lon="12.141900351637217"><ele>627.3333333333334</ele><time>2026-04-26T16:25:13Z</time></trkpt><trkpt lat="43.22128958528797" lon="12.141974416456925"><ele>627.6666666666667</ele><time>2026-04-26T16:25:15Z</time></trkpt><trkpt lat="43.221227141026475" lon="12.142043441570603"><ele>628.0</ele><time>2026-04-26T16:25:17Z</time></trkpt><trkpt lat="43.22114394432112" lon="12.1421188520994"><ele>627.3333333333334</ele><time>2026-04-26T16:25:19Z</time></trkpt><trkpt lat="43.22107263533714" lon="12.142173207163308"><ele>626.6666666666667</ele><time>2026-04-26T16:25:20Z</time></trkpt><trkpt lat="43.220985712007916" lon="12.142198190116746"><ele>626.0</ele><time>2026-04-26T16:25:21Z</time></trkpt><trkpt lat="43.220907458550066" lon="12.142198676247752"><ele>625.3333333333334</ele><time>2026-04-26T16:25:22Z</time></trkpt><trkpt lat="43.22083314152958" lon="12.142213034205446"><ele>624.6666666666666</ele><time>2026-04-26T16:25:23Z</time></trkpt><trkpt lat="43.2207733227216" lon="12.142240413909006"><ele>624.0</ele><time>2026-04-26T16:25:24Z</time></trkpt><trkpt lat="43.22069408640157" lon="12.142297024409986"><ele>621.8333333333334</ele><time>2026-04-26T16:25:25Z</time></trkpt><trkpt lat="43.22063575436951" lon="12.142368794766945"><ele>619.6666666666666</ele><time>2026-04-26T16:25:26Z</time></trkpt><trkpt lat="43.22057437842618" lon="12.142437473760847"><ele>617.5</ele><time>2026-04-26T16:25:27Z</time></trkpt><trkpt lat="43.220507266383166" lon="12.142520975833715"><ele>615.3333333333333</ele><time>2026-04-26T16:25:28Z</time></trkpt><trkpt lat="43.22042048567179" lon="12.142585176621248"><ele>613.1666666666666</ele><time>2026-04-26T16:25:29Z</time></trkpt><trkpt lat="43.220340205185245" lon="12.14261565020667"><ele>611.0</ele><time>2026-04-26T16:25:30Z</time></trkpt><trkpt lat="43.22026013108752" lon="12.142595864157835"><ele>611.0</ele><time>2026-04-26T16:25:31Z</time></trkpt><trkpt lat="43.220176177727815" lon="12.142719687861371"><ele>611.0</ele><time>2026-04-26T16:25:32Z</time></trkpt><trkpt lat="43.22007191101736" lon="12.142742536198408"><ele>611.0</ele><time>2026-04-26T16:25:33Z</time></trkpt><trkpt lat="43.2199674669152" lon="12.142699057350955"><ele>611.0</ele><time>2026-04-26T16:25:34Z</time></trkpt><trkpt lat="43.219829032098566" lon="12.1426659567641"><ele>611.5</ele><time>2026-04-26T16:25:35Z</time></trkpt><trkpt lat="43.21969585557323" lon="12.142611832466047"><ele>612.0</ele><time>2026-04-26T16:25:36Z</time></trkpt><trkpt lat="43.219579380194375" lon="12.142569075735484"><ele>612.5</ele><time>2026-04-26T16:25:37Z</time></trkpt><trkpt lat="43.21946341210798" lon="12.1425285527364"><ele>613.0</ele><time>2026-04-26T16:25:38Z</time></trkpt><trkpt lat="43.219355825928766" lon="12.14249211001852"><ele>613.0</ele><time>2026-04-26T16:25:39Z</time></trkpt><trkpt lat="43.21925887793166" lon="12.142460192789498"><ele>613.0</ele><time>2026-04-26T16:25:40Z</time></trkpt><trkpt lat="43.21915624803159" lon="12.142432892151186"><ele>613.0</ele><time>2026-04-26T16:25:41Z</time></trkpt><trkpt lat="43.219039765025066" lon="12.142404944047621"><ele>613.0</ele><time>2026-04-26T16:25:42Z</time></trkpt><trkpt lat="43.218911696704936" lon="12.142379158524163"><ele>610.0</ele><time>2026-04-26T16:25:43Z</time></trkpt><trkpt lat="43.21880516697385" lon="12.142366313771287"><ele>607.0</ele><time>2026-04-26T16:25:44Z</time></trkpt><trkpt lat="43.21869209010647" lon="12.142345362900475"><ele>604.0</ele><time>2026-04-26T16:25:45Z</time></trkpt><trkpt lat="43.21856372629756" lon="12.14232033511183"><ele>601.0</ele><time>2026-04-26T16:25:46Z</time></trkpt><trkpt lat="43.21842824044733" lon="12.142299600078168"><ele>601.0</ele><time>2026-04-26T16:25:47Z</time></trkpt><trkpt lat="43.218303770256746" lon="12.142283148392508"><ele>601.0</ele><time>2026-04-26T16:25:48Z</time></trkpt><trkpt lat="43.218162931382885" lon="12.142264243726206"><ele>601.0</ele><time>2026-04-26T16:25:49Z</time></trkpt><trkpt lat="43.21802641164223" lon="12.142242163062713"><ele>601.0</ele><time>2026-04-26T16:25:50Z</time></trkpt><trkpt lat="43.21789341022205" lon="12.142219598762534"><ele>601.2</ele><time>2026-04-26T16:25:51Z</time></trkpt><trkpt lat="43.2177694917417" lon="12.14219398907138"><ele>601.4000000000001</ele><time>2026-04-26T16:25:52Z</time></trkpt><trkpt lat="43.21765402114046" lon="12.142171005321341"><ele>601.6</ele><time>2026-04-26T16:25:53Z</time></trkpt><trkpt lat="43.21755535084469" lon="12.142148963481468"><ele>601.8000000000001</ele><time>2026-04-26T16:25:54Z</time></trkpt><trkpt lat="43.217452457367386" lon="12.142126606995578"><ele>602.0</ele><time>2026-04-26T16:25:55Z</time></trkpt><trkpt lat="43.21734642936623" lon="12.142109817860183"><ele>602.0</ele><time>2026-04-26T16:25:56Z</time></trkpt><trkpt lat="43.21723595368262" lon="12.142100342406472"><ele>602.0</ele><time>2026-04-26T16:25:57Z</time></trkpt><trkpt lat="43.217123148495595" lon="12.14210745386584"><ele>602.0</ele><time>2026-04-26T16:25:58Z</time></trkpt><trkpt lat="43.21701917893252" lon="12.142112050049967"><ele>602.0</ele><time>2026-04-26T16:25:59Z</time></trkpt><trkpt lat="43.21692494488795" lon="12.142117764495463"><ele>602.0</ele><time>2026-04-26T16:26:00Z</time></trkpt><trkpt lat="43.21683385697114" lon="12.142124587897086"><ele>602.0</ele><time>2026-04-26T16:26:01Z</time></trkpt><trkpt lat="43.216744477298754" lon="12.142136699003723"><ele>602.0</ele><time>2026-04-26T16:26:02Z</time></trkpt><trkpt lat="43.21665236029862" lon="12.142157076136204"><ele>602.0</ele><time>2026-04-26T16:26:03Z</time></trkpt><trkpt lat="43.21654865714043" lon="12.142192946698488"><ele>602.0</ele><time>2026-04-26T16:26:04Z</time></trkpt><trkpt lat="43.21643153863471" lon="12.142245893817423"><ele>602.0</ele><time>2026-04-26T16:26:05Z</time></trkpt><trkpt lat="43.21633516513987" lon="12.142295394091551"><ele>603.0</ele><time>2026-04-26T16:26:06Z</time></trkpt><trkpt lat="43.21624827613464" lon="12.142348473275641"><ele>604.0</ele><time>2026-04-26T16:26:07Z</time></trkpt><trkpt lat="43.216172914271766" lon="12.142414126084416"><ele>605.0</ele><time>2026-04-26T16:26:08Z</time></trkpt><trkpt lat="43.21610330484716" lon="12.142502298887642"><ele>606.0</ele><time>2026-04-26T16:26:09Z</time></trkpt><trkpt lat="43.21602397815086" lon="12.142618450890872"><ele>607.0</ele><time>2026-04-26T16:26:10Z</time></trkpt><trkpt lat="43.21594560321917" lon="12.142744445563359"><ele>607.0</ele><time>2026-04-26T16:26:11Z</time></trkpt><trkpt lat="43.21586955194514" lon="12.142876545226724"><ele>607.0</ele><time>2026-04-26T16:26:12Z</time></trkpt><trkpt lat="43.215805405038395" lon="12.142990823200202"><ele>607.0</ele><time>2026-04-26T16:26:13Z</time></trkpt><trkpt lat="43.215739008550756" lon="12.143107863951666"><ele>607.0</ele><time>2026-04-26T16:26:14Z</time></trkpt><trkpt lat="43.21567061320135" lon="12.143234452329919"><ele>605.6</ele><time>2026-04-26T16:26:15Z</time></trkpt><trkpt lat="43.215608683744975" lon="12.143351285678554"><ele>604.2</ele><time>2026-04-26T16:26:16Z</time></trkpt><trkpt lat="43.21555162973637" lon="12.143465584506231"><ele>602.8</ele><time>2026-04-26T16:26:17Z</time></trkpt><trkpt lat="43.21549579482341" lon="12.143568613590269"><ele>601.4</ele><time>2026-04-26T16:26:18Z</time></trkpt><trkpt lat="43.2154464023774" lon="12.143678426913127"><ele>600.0</ele><time>2026-04-26T16:26:19Z</time></trkpt><trkpt lat="43.215384348460006" lon="12.143781163735591"><ele>600.0</ele><time>2026-04-26T16:26:20Z</time></trkpt><trkpt lat="43.215330835095386" lon="12.143903624870589"><ele>600.0</ele><time>2026-04-26T16:26:21Z</time></trkpt><trkpt lat="43.21527277746554" lon="12.144041463590627"><ele>600.0</ele><time>2026-04-26T16:26:22Z</time></trkpt><trkpt lat="43.21522160142473" lon="12.144168624605022"><ele>600.0</ele><time>2026-04-26T16:26:23Z</time></trkpt><trkpt lat="43.21517796350034" lon="12.144290021235852"><ele>600.0</ele><time>2026-04-26T16:26:24Z</time></trkpt><trkpt lat="43.215134268906134" lon="12.144419705883465"><ele>600.2</ele><time>2026-04-26T16:26:25Z</time></trkpt><trkpt lat="43.215090697671855" lon="12.144554675409369"><ele>600.4</ele><time>2026-04-26T16:26:26Z</time></trkpt><trkpt lat="43.215051517569215" lon="12.14467067567485"><ele>600.6</ele><time>2026-04-26T16:26:27Z</time></trkpt><trkpt lat="43.21501222317419" lon="12.144775769832444"><ele>600.8</ele><time>2026-04-26T16:26:28Z</time></trkpt><trkpt lat="43.21496876327763" lon="12.144883715346404"><ele>601.0</ele><time>2026-04-26T16:26:29Z</time></trkpt><trkpt lat="43.2149361120133" lon="12.145003427139965"><ele>601.3333333333334</ele><time>2026-04-26T16:26:30Z</time></trkpt><trkpt lat="43.21488638135002" lon="12.145107413257795"><ele>601.6666666666667</ele><time>2026-04-26T16:26:31Z</time></trkpt><trkpt lat="43.21484513864968" lon="12.145210210514241"><ele>602.0</ele><time>2026-04-26T16:26:32Z</time></trkpt><trkpt lat="43.21480746805218" lon="12.145309083182754"><ele>602.3333333333334</ele><time>2026-04-26T16:26:33Z</time></trkpt><trkpt lat="43.21476618227072" lon="12.145385242181899"><ele>602.6666666666666</ele><time>2026-04-26T16:26:34Z</time></trkpt><trkpt lat="43.214720012097466" lon="12.145453255709763"><ele>603.0</ele><time>2026-04-26T16:26:35Z</time></trkpt><trkpt lat="43.21466821955173" lon="12.145524389967916"><ele>602.5714285714286</ele><time>2026-04-26T16:26:36Z</time></trkpt><trkpt lat="43.214607586283634" lon="12.145582016512554"><ele>602.1428571428571</ele><time>2026-04-26T16:26:37Z</time></trkpt><trkpt lat="43.21455045370838" lon="12.145625806056032"><ele>601.7142857142857</ele><time>2026-04-26T16:26:38Z</time></trkpt><trkpt lat="43.21448959598642" lon="12.14566643619839"><ele>601.2857142857142</ele><time>2026-04-26T16:26:39Z</time></trkpt><trkpt lat="43.21442926972803" lon="12.145699350431451"><ele>600.8571428571429</ele><time>2026-04-26T16:26:40Z</time></trkpt><trkpt lat="43.214352098395395" lon="12.145724940064886"><ele>600.4285714285713</ele><time>2026-04-26T16:26:41Z</time></trkpt><trkpt lat="43.21427021727421" lon="12.145737833237499"><ele>600.0</ele><time>2026-04-26T16:26:42Z</time></trkpt><trkpt lat="43.214186402796685" lon="12.14575055093867"><ele>600.0</ele><time>2026-04-26T16:26:43Z</time></trkpt><trkpt lat="43.214107553481625" lon="12.145760518051189"><ele>600.0</ele><time>2026-04-26T16:26:44Z</time></trkpt><trkpt lat="43.21402682559409" lon="12.145770694999038"><ele>600.0</ele><time>2026-04-26T16:26:45Z</time></trkpt><trkpt lat="43.21394350217517" lon="12.14579102350967"><ele>600.0</ele><time>2026-04-26T16:26:46Z</time></trkpt><trkpt lat="43.213871576986435" lon="12.145814018432834"><ele>600.0</ele><time>2026-04-26T16:26:47Z</time></trkpt><trkpt lat="43.213798960668484" lon="12.145831365303088"><ele>600.0</ele><time>2026-04-26T16:26:48Z</time></trkpt><trkpt lat="43.21372356786817" lon="12.145854396381745"><ele>599.8571428571428</ele><time>2026-04-26T16:26:49Z</time></trkpt><trkpt lat="43.21366019084805" lon="12.145872155774434"><ele>599.7142857142857</ele><time>2026-04-26T16:26:50Z</time></trkpt><trkpt lat="43.21359562551956" lon="12.145883002918339"><ele>599.5714285714286</ele><time>2026-04-26T16:26:51Z</time></trkpt><trkpt lat="43.21352946034303" lon="12.145889322184127"><ele>599.4285714285713</ele><time>2026-04-26T16:26:52Z</time></trkpt><trkpt lat="43.21345737988849" lon="12.145899063789658"><ele>599.2857142857142</ele><time>2026-04-26T16:26:53Z</time></trkpt><trkpt lat="43.213394750957335" lon="12.14591377632649"><ele>599.1428571428571</ele><time>2026-04-26T16:26:54Z</time></trkpt><trkpt lat="43.2133308638488" lon="12.145936270654555"><ele>599.0</ele><time>2026-04-26T16:26:55Z</time></trkpt><trkpt lat="43.21324230957171" lon="12.14597086632965"><ele>598.4</ele><time>2026-04-26T16:26:57Z</time></trkpt><trkpt lat="43.21312742000498" lon="12.145994762399877"><ele>597.8</ele><time>2026-04-26T16:26:59Z</time></trkpt><trkpt lat="43.21302451772748" lon="12.146020644952248"><ele>597.2</ele><time>2026-04-26T16:27:00Z</time></trkpt><trkpt lat="43.21292335539009" lon="12.146046169016937"><ele>596.6</ele><time>2026-04-26T16:27:01Z</time></trkpt><trkpt lat="43.212836993494626" lon="12.146073403591016"><ele>596.0</ele><time>2026-04-26T16:27:02Z</time></trkpt><trkpt lat="43.21275420396345" lon="12.146110075164994"><ele>596.0</ele><time>2026-04-26T16:27:03Z</time></trkpt><trkpt lat="43.21266427642496" lon="12.14613483418747"><ele>596.0</ele><time>2026-04-26T16:27:04Z</time></trkpt><trkpt lat="43.21257065534284" lon="12.146157325425666"><ele>596.0</ele><time>2026-04-26T16:27:05Z</time></trkpt><trkpt lat="43.21246265919653" lon="12.146158224935478"><ele>596.0</ele><time>2026-04-26T16:27:06Z</time></trkpt><trkpt lat="43.21236319669164" lon="12.146142760295474"><ele>596.0</ele><time>2026-04-26T16:27:07Z</time></trkpt><trkpt lat="43.21227744372396" lon="12.146146230453239"><ele>594.6666666666666</ele><time>2026-04-26T16:27:08Z</time></trkpt><trkpt lat="43.2122029716806" lon="12.146187468496311"><ele>593.3333333333333</ele><time>2026-04-26T16:27:09Z</time></trkpt><trkpt lat="43.212136646386796" lon="12.146255940382567"><ele>592.0</ele><time>2026-04-26T16:27:10Z</time></trkpt><trkpt lat="43.21207378478461" lon="12.146346437228102"><ele>590.6666666666666</ele><time>2026-04-26T16:27:11Z</time></trkpt><trkpt lat="43.21200898973317" lon="12.146410327563444"><ele>589.3333333333334</ele><time>2026-04-26T16:27:12Z</time></trkpt><trkpt lat="43.21192395744453" lon="12.146391663320255"><ele>588.0</ele><time>2026-04-26T16:27:13Z</time></trkpt><trkpt lat="43.21183592224822" lon="12.146397500284246"><ele>588.0</ele><time>2026-04-26T16:27:14Z</time></trkpt><trkpt lat="43.211737959725376" lon="12.14643002681664"><ele>588.0</ele><time>2026-04-26T16:27:15Z</time></trkpt><trkpt lat="43.21164000237677" lon="12.146429005803745"><ele>588.0</ele><time>2026-04-26T16:27:16Z</time></trkpt><trkpt lat="43.211553553666555" lon="12.14643109269352"><ele>588.0</ele><time>2026-04-26T16:27:17Z</time></trkpt><trkpt lat="43.21146938186168" lon="12.146441612187688"><ele>588.0</ele><time>2026-04-26T16:27:18Z</time></trkpt><trkpt lat="43.21138039209023" lon="12.146456501143868"><ele>586.8</ele><time>2026-04-26T16:27:19Z</time></trkpt><trkpt lat="43.211282660465" lon="12.146477395508967"><ele>585.5999999999999</ele><time>2026-04-26T16:27:20Z</time></trkpt><trkpt lat="43.21119147861102" lon="12.146494143516035"><ele>584.4000000000001</ele><time>2026-04-26T16:27:21Z</time></trkpt><trkpt lat="43.21108614678887" lon="12.14651267061364"><ele>583.2</ele><time>2026-04-26T16:27:22Z</time></trkpt><trkpt lat="43.21098245722925" lon="12.146530697780978"><ele>582.0</ele><time>2026-04-26T16:27:23Z</time></trkpt><trkpt lat="43.210884389480675" lon="12.146532610941788"><ele>582.0</ele><time>2026-04-26T16:27:24Z</time></trkpt><trkpt lat="43.210785337339665" lon="12.146515063839265"><ele>582.0</ele><time>2026-04-26T16:27:25Z</time></trkpt><trkpt lat="43.21068185499524" lon="12.14649648449656"><ele>582.0</ele><time>2026-04-26T16:27:26Z</time></trkpt><trkpt lat="43.21057698025495" lon="12.146481642944185"><ele>582.0</ele><time>2026-04-26T16:27:27Z</time></trkpt><trkpt lat="43.21047278569014" lon="12.14647023136911"><ele>582.0</ele><time>2026-04-26T16:27:28Z</time></trkpt><trkpt lat="43.21036766252258" lon="12.146463566481698"><ele>581.2</ele><time>2026-04-26T16:27:29Z</time></trkpt><trkpt lat="43.21026769996696" lon="12.14645310327649"><ele>580.4000000000001</ele><time>2026-04-26T16:27:30Z</time></trkpt><trkpt lat="43.21016955631744" lon="12.146441057928484"><ele>579.5999999999999</ele><time>2026-04-26T16:27:31Z</time></trkpt><trkpt lat="43.21006742448432" lon="12.14642792543037"><ele>578.8</ele><time>2026-04-26T16:27:32Z</time></trkpt><trkpt lat="43.209964750833784" lon="12.146421953988732"><ele>578.0</ele><time>2026-04-26T16:27:33Z</time></trkpt><trkpt lat="43.20984994643502" lon="12.146422529458697"><ele>576.8</ele><time>2026-04-26T16:27:34Z</time></trkpt><trkpt lat="43.20975288207785" lon="12.146424957137587"><ele>575.5999999999999</ele><time>2026-04-26T16:27:35Z</time></trkpt><trkpt lat="43.209658023481964" lon="12.146431147976799"><ele>574.4000000000001</ele><time>2026-04-26T16:27:36Z</time></trkpt><trkpt lat="43.20957074928498" lon="12.146437989983353"><ele>573.2</ele><time>2026-04-26T16:27:37Z</time></trkpt><trkpt lat="43.209470513165236" lon="12.146453555748181"><ele>572.0</ele><time>2026-04-26T16:27:38Z</time></trkpt><trkpt lat="43.20937565443177" lon="12.14647104804031"><ele>572.0</ele><time>2026-04-26T16:27:39Z</time></trkpt><trkpt lat="43.209286341044766" lon="12.14648949219389"><ele>572.0</ele><time>2026-04-26T16:27:40Z</time></trkpt><trkpt lat="43.20919878982288" lon="12.146519448336832"><ele>572.0</ele><time>2026-04-26T16:27:41Z</time></trkpt><trkpt lat="43.20911326133288" lon="12.14654701073401"><ele>572.0</ele><time>2026-04-26T16:27:42Z</time></trkpt><trkpt lat="43.20902342719881" lon="12.14657329181901"><ele>572.0</ele><time>2026-04-26T16:27:43Z</time></trkpt><trkpt lat="43.20894114397802" lon="12.146599409766122"><ele>572.0</ele><time>2026-04-26T16:27:44Z</time></trkpt><trkpt lat="43.208853014744776" lon="12.146632999315012"><ele>570.1666666666666</ele><time>2026-04-26T16:27:45Z</time></trkpt><trkpt lat="43.208768352940595" lon="12.146666496603748"><ele>568.3333333333333</ele><time>2026-04-26T16:27:46Z</time></trkpt><trkpt lat="43.20867951421267" lon="12.146689521992949"><ele>566.5</ele><time>2026-04-26T16:27:47Z</time></trkpt><trkpt lat="43.20858986770994" lon="12.146716364783117"><ele>564.6666666666666</ele><time>2026-04-26T16:27:48Z</time></trkpt><trkpt lat="43.20850624616239" lon="12.146749307676439"><ele>562.8333333333334</ele><time>2026-04-26T16:27:49Z</time></trkpt><trkpt lat="43.20841963217459" lon="12.146785002640994"><ele>561.0</ele><time>2026-04-26T16:27:50Z</time></trkpt><trkpt lat="43.20833116910759" lon="12.146805516896931"><ele>561.0</ele><time>2026-04-26T16:27:51Z</time></trkpt><trkpt lat="43.208240256438955" lon="12.146818984263845"><ele>561.0</ele><time>2026-04-26T16:27:52Z</time></trkpt><trkpt lat="43.20814762051341" lon="12.146786857188353"><ele>561.0</ele><time>2026-04-26T16:27:53Z</time></trkpt><trkpt lat="43.208047393512615" lon="12.14678488257865"><ele>561.0</ele><time>2026-04-26T16:27:54Z</time></trkpt><trkpt lat="43.20794920852194" lon="12.146743666484804"><ele>561.0</ele><time>2026-04-26T16:27:55Z</time></trkpt><trkpt lat="43.20784976688536" lon="12.146695970180168"><ele>558.8</ele><time>2026-04-26T16:27:56Z</time></trkpt><trkpt lat="43.20775394058159" lon="12.14664097339518"><ele>556.6</ele><time>2026-04-26T16:27:57Z</time></trkpt><trkpt lat="43.20765723795599" lon="12.146583025978565"><ele>554.4</ele><time>2026-04-26T16:27:58Z</time></trkpt><trkpt lat="43.20755013013364" lon="12.14652965881874"><ele>552.2</ele><time>2026-04-26T16:27:59Z</time></trkpt><trkpt lat="43.20744393272418" lon="12.14647839314676"><ele>550.0</ele><time>2026-04-26T16:28:00Z</time></trkpt><trkpt lat="43.207333342789596" lon="12.14642496191891"><ele>545.75</ele><time>2026-04-26T16:28:01Z</time></trkpt><trkpt lat="43.20722884180753" lon="12.146364615770732"><ele>541.5</ele><time>2026-04-26T16:28:02Z</time></trkpt><trkpt lat="43.20711722491091" lon="12.146298349979958"><ele>537.25</ele><time>2026-04-26T16:28:03Z</time></trkpt><trkpt lat="43.207009842976255" lon="12.146233361676734"><ele>533.0</ele><time>2026-04-26T16:28:04Z</time></trkpt><trkpt lat="43.20689959966761" lon="12.146167224272364"><ele>533.0</ele><time>2026-04-26T16:28:05Z</time></trkpt><trkpt lat="43.20679702742818" lon="12.14609864517774"><ele>533.0</ele><time>2026-04-26T16:28:06Z</time></trkpt><trkpt lat="43.20670928532142" lon="12.146030099960903"><ele>533.0</ele><time>2026-04-26T16:28:07Z</time></trkpt><trkpt lat="43.20663235175598" lon="12.14595749776048"><ele>533.0</ele><time>2026-04-26T16:28:08Z</time></trkpt><trkpt lat="43.20655946197946" lon="12.145886072299517"><ele>533.0</ele><time>2026-04-26T16:28:09Z</time></trkpt><trkpt lat="43.20648172439702" lon="12.145810409032759"><ele>529.8</ele><time>2026-04-26T16:28:10Z</time></trkpt><trkpt lat="43.20640390176176" lon="12.145741705605573"><ele>526.5999999999999</ele><time>2026-04-26T16:28:11Z</time></trkpt><trkpt lat="43.206330887697085" lon="12.145693439900167"><ele>523.4000000000001</ele><time>2026-04-26T16:28:12Z</time></trkpt><trkpt lat="43.20625338118324" lon="12.145653084025357"><ele>520.2</ele><time>2026-04-26T16:28:14Z</time></trkpt><trkpt lat="43.20633141841364" lon="12.145453803610314"><ele>517.0</ele><time>2026-04-26T16:28:37Z</time></trkpt><trkpt lat="43.20639672894693" lon="12.145426516235892"><ele>516.2</ele><time>2026-04-26T16:28:40Z</time></trkpt><trkpt lat="43.20646352485097" lon="12.145344726055152"><ele>515.4000000000001</ele><time>2026-04-26T16:28:42Z</time></trkpt><trkpt lat="43.206514542999116" lon="12.145202858735322"><ele>514.5999999999999</ele><time>2026-04-26T16:28:44Z</time></trkpt><trkpt lat="43.20658193434675" lon="12.145093236582804"><ele>513.8</ele><time>2026-04-26T16:28:46Z</time></trkpt><trkpt lat="43.20665153831262" lon="12.145010944484786"><ele>513.0</ele><time>2026-04-26T16:28:48Z</time></trkpt><trkpt lat="43.206709109380434" lon="12.144912089917643"><ele>514.4</ele><time>2026-04-26T16:28:50Z</time></trkpt><trkpt lat="43.2067966768411" lon="12.144836470930573"><ele>515.8</ele><time>2026-04-26T16:28:53Z</time></trkpt><trkpt lat="43.20685968937307" lon="12.144758407721158"><ele>517.2</ele><time>2026-04-26T16:28:55Z</time></trkpt><trkpt lat="43.20694855781494" lon="12.144695351364282"><ele>518.6</ele><time>2026-04-26T16:28:57Z</time></trkpt><trkpt lat="43.20702717162093" lon="12.144677948336593"><ele>520.0</ele><time>2026-04-26T16:28:59Z</time></trkpt><trkpt lat="43.20711435177606" lon="12.144673603069998"><ele>520.0</ele><time>2026-04-26T16:29:01Z</time></trkpt><trkpt lat="43.2071889085666" lon="12.144700667487776"><ele>520.0</ele><time>2026-04-26T16:29:03Z</time></trkpt><trkpt lat="43.20724986523026" lon="12.14479014524326"><ele>520.0</ele><time>2026-04-26T16:29:06Z</time></trkpt><trkpt lat="43.20730354874717" lon="12.144893303483299"><ele>520.0</ele><time>2026-04-26T16:29:09Z</time></trkpt><trkpt lat="43.207312603769566" lon="12.145024439454785"><ele>520.0</ele><time>2026-04-26T16:29:12Z</time></trkpt><trkpt lat="43.20734577413139" lon="12.145122751820544"><ele>520.0</ele><time>2026-04-26T16:29:14Z</time></trkpt><trkpt lat="43.20739392664007" lon="12.145200674438614"><ele>524.0</ele><time>2026-04-26T16:29:16Z</time></trkpt><trkpt lat="43.20746757324423" lon="12.145266536190158"><ele>528.0</ele><time>2026-04-26T16:29:18Z</time></trkpt><trkpt lat="43.20754773697836" lon="12.145317648188238"><ele>532.0</ele><time>2026-04-26T16:29:20Z</time></trkpt><trkpt lat="43.20760241011792" lon="12.145422418053613"><ele>536.0</ele><time>2026-04-26T16:29:23Z</time></trkpt><trkpt lat="43.20765220299604" lon="12.145520556749076"><ele>540.0</ele><time>2026-04-26T16:29:25Z</time></trkpt><trkpt lat="43.20769406201407" lon="12.145625562122117"><ele>544.0</ele><time>2026-04-26T16:29:27Z</time></trkpt><trkpt lat="43.20775901805458" lon="12.14567478372"><ele>543.9999999999999</ele><time>2026-04-26T16:29:29Z</time></trkpt><trkpt lat="43.207787920503094" lon="12.145591064957452"><ele>544.0</ele><time>2026-04-26T16:29:34Z</time></trkpt><trkpt lat="43.207748589964346" lon="12.145499913020592"><ele>544.0</ele><time>2026-04-26T16:29:38Z</time></trkpt><trkpt lat="43.207711729829576" lon="12.145418259674871"><ele>544.0</ele><time>2026-04-26T16:29:42Z</time></trkpt><trkpt lat="43.207710823636056" lon="12.145314940533016"><ele>544.0</ele><time>2026-04-26T16:29:50Z</time></trkpt><trkpt lat="43.20762938037727" lon="12.145315043274989"><ele>543.9999999999999</ele><time>2026-04-26T16:29:53Z</time></trkpt><trkpt lat="43.20755463949349" lon="12.145324782487428"><ele>544.0</ele><time>2026-04-26T16:29:56Z</time></trkpt><trkpt lat="43.207482230748155" lon="12.145287942138886"><ele>544.0</ele><time>2026-04-26T16:29:59Z</time></trkpt><trkpt lat="43.20742068743875" lon="12.145230792771283"><ele>544.0</ele><time>2026-04-26T16:30:01Z</time></trkpt><trkpt lat="43.20736240694758" lon="12.14514885922176"><ele>544.0</ele><time>2026-04-26T16:30:03Z</time></trkpt><trkpt lat="43.207320558654686" lon="12.145057597544739"><ele>544.0</ele><time>2026-04-26T16:30:05Z</time></trkpt><trkpt lat="43.20730017310017" lon="12.144967573523074"><ele>544.0</ele><time>2026-04-26T16:30:07Z</time></trkpt><trkpt lat="43.20728567295707" lon="12.144855846154538"><ele>544.0</ele><time>2026-04-26T16:30:09Z</time></trkpt><trkpt lat="43.207241759178146" lon="12.144775740955481"><ele>540.5714285714286</ele><time>2026-04-26T16:30:11Z</time></trkpt><trkpt lat="43.20718707179149" lon="12.144717652461223"><ele>537.1428571428571</ele><time>2026-04-26T16:30:13Z</time></trkpt><trkpt lat="43.20711435308034" lon="12.144693455586738"><ele>533.7142857142858</ele><time>2026-04-26T16:30:15Z</time></trkpt><trkpt lat="43.20704337862956" lon="12.144679660180328"><ele>530.2857142857142</ele><time>2026-04-26T16:30:17Z</time></trkpt><trkpt lat="43.20696954306688" lon="12.14468716644111"><ele>526.8571428571429</ele><time>2026-04-26T16:30:19Z</time></trkpt><trkpt lat="43.20689686658784" lon="12.144732177540098"><ele>523.4285714285714</ele><time>2026-04-26T16:30:21Z</time></trkpt><trkpt lat="43.20683291531786" lon="12.14478846848719"><ele>520.0</ele><time>2026-04-26T16:30:23Z</time></trkpt><trkpt lat="43.20677887703398" lon="12.144875774627412"><ele>518.6</ele><time>2026-04-26T16:30:25Z</time></trkpt><trkpt lat="43.20670802465143" lon="12.14491299832802"><ele>517.2</ele><time>2026-04-26T16:30:27Z</time></trkpt><trkpt lat="43.20665831038254" lon="12.144985736089925"><ele>515.8</ele><time>2026-04-26T16:30:29Z</time></trkpt><trkpt lat="43.206589757564345" lon="12.145122813124603"><ele>514.4</ele><time>2026-04-26T16:30:31Z</time></trkpt><trkpt lat="43.206523055642485" lon="12.145233473235905"><ele>513.0</ele><time>2026-04-26T16:30:33Z</time></trkpt><trkpt lat="43.20645885973115" lon="12.145334861814984"><ele>513.0</ele><time>2026-04-26T16:30:35Z</time></trkpt><trkpt lat="43.20638006158673" lon="12.145422304002803"><ele>513.0</ele><time>2026-04-26T16:30:37Z</time></trkpt><trkpt lat="43.20631903964099" lon="12.145477176755936"><ele>513.0</ele><time>2026-04-26T16:30:39Z</time></trkpt><trkpt lat="43.20625179052399" lon="12.145568173113192"><ele>513.0</ele><time>2026-04-26T16:30:41Z</time></trkpt><trkpt lat="43.20620905577423" lon="12.145651327136598"><ele>513.0</ele><time>2026-04-26T16:30:43Z</time></trkpt><trkpt lat="43.20611256476199" lon="12.14560725861607"><ele>513.0</ele><time>2026-04-26T16:30:46Z</time></trkpt><trkpt lat="43.206042388739576" lon="12.145601600693201"><ele>513.0</ele><time>2026-04-26T16:30:48Z</time></trkpt><trkpt lat="43.20597543667049" lon="12.145596202645988"><ele>513.0</ele><time>2026-04-26T16:30:50Z</time></trkpt><trkpt lat="43.20583114946572" lon="12.145604273640636"><ele>513.0</ele><time>2026-04-26T16:30:52Z</time></trkpt><trkpt lat="43.2057383032794" lon="12.145586109117199"><ele>513.0</ele><time>2026-04-26T16:30:53Z</time></trkpt><trkpt lat="43.20564612985842" lon="12.145578360381956"><ele>513.0</ele><time>2026-04-26T16:30:54Z</time></trkpt><trkpt lat="43.20555243463608" lon="12.145576223018647"><ele>511.79999999999995</ele><time>2026-04-26T16:30:55Z</time></trkpt><trkpt lat="43.20545921919903" lon="12.145570749807193"><ele>510.59999999999997</ele><time>2026-04-26T16:30:56Z</time></trkpt><trkpt lat="43.20536506184561" lon="12.145559873234152"><ele>509.40000000000003</ele><time>2026-04-26T16:30:57Z</time></trkpt><trkpt lat="43.20526453732633" lon="12.145555011150076"><ele>508.20000000000005</ele><time>2026-04-26T16:30:58Z</time></trkpt><trkpt lat="43.205147250277676" lon="12.14556370557171"><ele>507.0</ele><time>2026-04-26T16:30:59Z</time></trkpt><trkpt lat="43.20503279256047" lon="12.145588487199182"><ele>507.0</ele><time>2026-04-26T16:31:00Z</time></trkpt><trkpt lat="43.20493293930893" lon="12.145610270098105"><ele>507.0</ele><time>2026-04-26T16:31:01Z</time></trkpt><trkpt lat="43.204839806469835" lon="12.145624682532448"><ele>507.0</ele><time>2026-04-26T16:31:02Z</time></trkpt><trkpt lat="43.20475460202899" lon="12.145635628177729"><ele>507.0</ele><time>2026-04-26T16:31:03Z</time></trkpt><trkpt lat="43.20467282521856" lon="12.145646304909"><ele>507.0</ele><time>2026-04-26T16:31:04Z</time></trkpt><trkpt lat="43.20460021403592" lon="12.145652996586835"><ele>507.0</ele><time>2026-04-26T16:31:05Z</time></trkpt><trkpt lat="43.204485154917045" lon="12.145649001267468"><ele>507.0</ele><time>2026-04-26T16:31:07Z</time></trkpt><trkpt lat="43.2043770176025" lon="12.145602361573395"><ele>507.0</ele><time>2026-04-26T16:31:09Z</time></trkpt><trkpt lat="43.204265439708934" lon="12.145568911386459"><ele>507.0</ele><time>2026-04-26T16:31:11Z</time></trkpt><trkpt lat="43.20415829812227" lon="12.145638264321125"><ele>507.0</ele><time>2026-04-26T16:31:13Z</time></trkpt><trkpt lat="43.204070725670086" lon="12.145744690198475"><ele>509.8333333333333</ele><time>2026-04-26T16:31:15Z</time></trkpt><trkpt lat="43.20399335283427" lon="12.145850578837349"><ele>512.6666666666666</ele><time>2026-04-26T16:31:17Z</time></trkpt><trkpt lat="43.203935353649584" lon="12.145943029223211"><ele>515.5</ele><time>2026-04-26T16:31:19Z</time></trkpt><trkpt lat="43.20388502175692" lon="12.1460174998823"><ele>518.3333333333333</ele><time>2026-04-26T16:31:21Z</time></trkpt><trkpt lat="43.20383866679409" lon="12.146080068820963"><ele>521.1666666666666</ele><time>2026-04-26T16:31:23Z</time></trkpt><trkpt lat="43.20379831697245" lon="12.146167748566933"><ele>524.0</ele><time>2026-04-26T16:31:25Z</time></trkpt><trkpt lat="43.20377511996971" lon="12.146271746068289"><ele>524.0</ele><time>2026-04-26T16:31:26Z</time></trkpt><trkpt lat="43.2037311662658" lon="12.14637932740751"><ele>524.0</ele><time>2026-04-26T16:31:27Z</time></trkpt><trkpt lat="43.20368908860959" lon="12.146490549345982"><ele>524.0</ele><time>2026-04-26T16:31:28Z</time></trkpt><trkpt lat="43.20365808662408" lon="12.146602797142945"><ele>524.0</ele><time>2026-04-26T16:31:29Z</time></trkpt><trkpt lat="43.20362314700879" lon="12.146711783555451"><ele>524.0</ele><time>2026-04-26T16:31:30Z</time></trkpt><trkpt lat="43.203588594809915" lon="12.146791057651784"><ele>524.0</ele><time>2026-04-26T16:31:31Z</time></trkpt><trkpt lat="43.20355096253071" lon="12.146923550662978"><ele>524.0</ele><time>2026-04-26T16:31:32Z</time></trkpt><trkpt lat="43.20350226090953" lon="12.147004769262631"><ele>524.0</ele><time>2026-04-26T16:31:33Z</time></trkpt><trkpt lat="43.20343190655367" lon="12.147069048525768"><ele>524.0</ele><time>2026-04-26T16:31:34Z</time></trkpt><trkpt lat="43.2033432639991" lon="12.147117733264897"><ele>524.0</ele><time>2026-04-26T16:31:35Z</time></trkpt><trkpt lat="43.20325317300377" lon="12.147145687413671"><ele>524.0</ele><time>2026-04-26T16:31:36Z</time></trkpt><trkpt lat="43.203175774897844" lon="12.147180190023834"><ele>524.0</ele><time>2026-04-26T16:31:37Z</time></trkpt><trkpt lat="43.20311522295121" lon="12.147212582776389"><ele>524.0</ele><time>2026-04-26T16:31:38Z</time></trkpt><trkpt lat="43.20301931158901" lon="12.147265299755515"><ele>524.0</ele><time>2026-04-26T16:31:40Z</time></trkpt><trkpt lat="43.202958211771666" lon="12.147323103726405"><ele>524.0</ele><time>2026-04-26T16:31:42Z</time></trkpt><trkpt lat="43.202901420514294" lon="12.147365878465548"><ele>524.0</ele><time>2026-04-26T16:31:44Z</time></trkpt><trkpt lat="43.20284486832876" lon="12.147448612907333"><ele>524.0</ele><time>2026-04-26T16:31:47Z</time></trkpt><trkpt lat="43.20277589925785" lon="12.147549915361843"><ele>524.0</ele><time>2026-04-26T16:31:49Z</time></trkpt><trkpt lat="43.20269824568266" lon="12.147654389567586"><ele>524.6</ele><time>2026-04-26T16:31:51Z</time></trkpt><trkpt lat="43.202653673009905" lon="12.147731658474392"><ele>525.2</ele><time>2026-04-26T16:31:52Z</time></trkpt><trkpt lat="43.20261421658485" lon="12.1478000579445"><ele>525.8000000000001</ele><time>2026-04-26T16:31:53Z</time></trkpt><trkpt lat="43.202534076622776" lon="12.147963547203808"><ele>526.4</ele><time>2026-04-26T16:31:55Z</time></trkpt><trkpt lat="43.20246981245998" lon="12.14804497096615"><ele>527.0</ele><time>2026-04-26T16:31:56Z</time></trkpt><trkpt lat="43.20242882539249" lon="12.148147611263303"><ele>527.6</ele><time>2026-04-26T16:31:57Z</time></trkpt><trkpt lat="43.20237235341052" lon="12.148236015229543"><ele>528.2</ele><time>2026-04-26T16:31:58Z</time></trkpt><trkpt lat="43.20231065059628" lon="12.148327421671958"><ele>528.8</ele><time>2026-04-26T16:31:59Z</time></trkpt><trkpt lat="43.20224589423058" lon="12.14842697912667"><ele>529.4</ele><time>2026-04-26T16:32:00Z</time></trkpt><trkpt lat="43.20218251242908" lon="12.148526989622628"><ele>530.0</ele><time>2026-04-26T16:32:01Z</time></trkpt><trkpt lat="43.20212120247472" lon="12.148621617180794"><ele>530.0</ele><time>2026-04-26T16:32:02Z</time></trkpt><trkpt lat="43.20205883218838" lon="12.148711560634954"><ele>530.0</ele><time>2026-04-26T16:32:03Z</time></trkpt><trkpt lat="43.20199274739357" lon="12.148807838559893"><ele>530.0</ele><time>2026-04-26T16:32:04Z</time></trkpt><trkpt lat="43.20192080224127" lon="12.148902013270876"><ele>530.0</ele><time>2026-04-26T16:32:05Z</time></trkpt><trkpt lat="43.20184646175824" lon="12.148994588197048"><ele>530.0</ele><time>2026-04-26T16:32:06Z</time></trkpt><trkpt lat="43.20178372161243" lon="12.149074471716363"><ele>532.4</ele><time>2026-04-26T16:32:07Z</time></trkpt><trkpt lat="43.201729685128655" lon="12.149153023871442"><ele>534.8</ele><time>2026-04-26T16:32:08Z</time></trkpt><trkpt lat="43.2016919002191" lon="12.149255028610348"><ele>537.2</ele><time>2026-04-26T16:32:09Z</time></trkpt><trkpt lat="43.20165959959013" lon="12.149380110037976"><ele>539.6</ele><time>2026-04-26T16:32:10Z</time></trkpt><trkpt lat="43.201622529530916" lon="12.14952376470609"><ele>542.0</ele><time>2026-04-26T16:32:11Z</time></trkpt><trkpt lat="43.20158939415031" lon="12.149671105675834"><ele>542.0</ele><time>2026-04-26T16:32:12Z</time></trkpt><trkpt lat="43.20154858447815" lon="12.149812061846493"><ele>542.0</ele><time>2026-04-26T16:32:13Z</time></trkpt><trkpt lat="43.20152755400652" lon="12.149962617839687"><ele>542.0</ele><time>2026-04-26T16:32:14Z</time></trkpt><trkpt lat="43.201513299171715" lon="12.150108507477961"><ele>542.0</ele><time>2026-04-26T16:32:15Z</time></trkpt><trkpt lat="43.2015161741474" lon="12.150239544047615"><ele>542.0</ele><time>2026-04-26T16:32:16Z</time></trkpt><trkpt lat="43.20149772393305" lon="12.150356217066667"><ele>540.5</ele><time>2026-04-26T16:32:17Z</time></trkpt><trkpt lat="43.20148157017194" lon="12.150470917511651"><ele>539.0</ele><time>2026-04-26T16:32:18Z</time></trkpt><trkpt lat="43.201471686319444" lon="12.15056172647768"><ele>537.5</ele><time>2026-04-26T16:32:19Z</time></trkpt><trkpt lat="43.201454530166096" lon="12.150671374003439"><ele>536.0</ele><time>2026-04-26T16:32:20Z</time></trkpt><trkpt lat="43.201438985257234" lon="12.150776048701177"><ele>534.5</ele><time>2026-04-26T16:32:21Z</time></trkpt><trkpt lat="43.20139710452519" lon="12.150855528568"><ele>533.0</ele><time>2026-04-26T16:32:22Z</time></trkpt><trkpt lat="43.2013288629261" lon="12.150979841434001"><ele>533.0</ele><time>2026-04-26T16:32:24Z</time></trkpt><trkpt lat="43.20134463682019" lon="12.15108280306213"><ele>533.0</ele><time>2026-04-26T16:32:25Z</time></trkpt><trkpt lat="43.201292810292394" lon="12.151256280773639"><ele>533.0</ele><time>2026-04-26T16:32:27Z</time></trkpt><trkpt lat="43.20124347932671" lon="12.15133329955481"><ele>533.0</ele><time>2026-04-26T16:32:28Z</time></trkpt><trkpt lat="43.2012052785998" lon="12.151423765564529"><ele>533.0</ele><time>2026-04-26T16:32:29Z</time></trkpt><trkpt lat="43.20116153318799" lon="12.151527362430533"><ele>535.5</ele><time>2026-04-26T16:32:30Z</time></trkpt><trkpt lat="43.201130055390344" lon="12.151634843284622"><ele>538.0</ele><time>2026-04-26T16:32:31Z</time></trkpt><trkpt lat="43.20108543087404" lon="12.151718007845455"><ele>540.5</ele><time>2026-04-26T16:32:32Z</time></trkpt><trkpt lat="43.201043628168996" lon="12.151804542517569"><ele>543.0</ele><time>2026-04-26T16:32:33Z</time></trkpt><trkpt lat="43.20100159851005" lon="12.151884158638731"><ele>545.5</ele><time>2026-04-26T16:32:34Z</time></trkpt><trkpt lat="43.20096036396042" lon="12.151971409904332"><ele>548.0</ele><time>2026-04-26T16:32:35Z</time></trkpt><trkpt lat="43.20091600359488" lon="12.152057386758504"><ele>548.0</ele><time>2026-04-26T16:32:36Z</time></trkpt><trkpt lat="43.20086918939031" lon="12.152148754783513"><ele>548.0</ele><time>2026-04-26T16:32:37Z</time></trkpt><trkpt lat="43.200835078379264" lon="12.152262398883416"><ele>548.0</ele><time>2026-04-26T16:32:38Z</time></trkpt><trkpt lat="43.200831949989144" lon="12.1523579047832"><ele>548.0</ele><time>2026-04-26T16:32:39Z</time></trkpt><trkpt lat="43.200822372451796" lon="12.152537147129117"><ele>548.0</ele><time>2026-04-26T16:32:41Z</time></trkpt><trkpt lat="43.200839482999896" lon="12.15265152618117"><ele>551.25</ele><time>2026-04-26T16:32:42Z</time></trkpt><trkpt lat="43.2008811436051" lon="12.152780475908694"><ele>554.5</ele><time>2026-04-26T16:32:43Z</time></trkpt><trkpt lat="43.20091899638709" lon="12.152944563924958"><ele>557.75</ele><time>2026-04-26T16:32:44Z</time></trkpt><trkpt lat="43.2009676939341" lon="12.153094399106582"><ele>561.0</ele><time>2026-04-26T16:32:45Z</time></trkpt><trkpt lat="43.20102137130993" lon="12.153235701114305"><ele>562.5</ele><time>2026-04-26T16:32:46Z</time></trkpt><trkpt lat="43.201047091785824" lon="12.153380189505357"><ele>564.0</ele><time>2026-04-26T16:32:47Z</time></trkpt><trkpt lat="43.20103961000007" lon="12.153536639012657"><ele>565.5</ele><time>2026-04-26T16:32:48Z</time></trkpt><trkpt lat="43.20103914933072" lon="12.15371284412143"><ele>567.0</ele><time>2026-04-26T16:32:49Z</time></trkpt><trkpt lat="43.2010526420345" lon="12.15390589635744"><ele>567.0</ele><time>2026-04-26T16:32:50Z</time></trkpt><trkpt lat="43.20105141826501" lon="12.154061145819792"><ele>567.0</ele><time>2026-04-26T16:32:51Z</time></trkpt><trkpt lat="43.20106839029949" lon="12.154202986127858"><ele>567.0</ele><time>2026-04-26T16:32:52Z</time></trkpt><trkpt lat="43.20108592965317" lon="12.154334072518047"><ele>567.0</ele><time>2026-04-26T16:32:53Z</time></trkpt><trkpt lat="43.20110682214182" lon="12.154460015019435"><ele>567.0</ele><time>2026-04-26T16:32:54Z</time></trkpt><trkpt lat="43.20113731533288" lon="12.15457171808665"><ele>567.0</ele><time>2026-04-26T16:32:55Z</time></trkpt><trkpt lat="43.201177677861516" lon="12.154666240015239"><ele>567.0</ele><time>2026-04-26T16:32:56Z</time></trkpt><trkpt lat="43.20122690197866" lon="12.154737162983725"><ele>567.0</ele><time>2026-04-26T16:32:57Z</time></trkpt><trkpt lat="43.20130347726778" lon="12.154807279740705"><ele>567.0</ele><time>2026-04-26T16:32:58Z</time></trkpt><trkpt lat="43.20139102847361" lon="12.154883977022438"><ele>567.0</ele><time>2026-04-26T16:32:59Z</time></trkpt><trkpt lat="43.201461664678085" lon="12.154950403590886"><ele>567.0</ele><time>2026-04-26T16:33:00Z</time></trkpt><trkpt lat="43.201528043775674" lon="12.155019954542004"><ele>566.2</ele><time>2026-04-26T16:33:01Z</time></trkpt><trkpt lat="43.20157305542926" lon="12.15512048538059"><ele>565.4000000000001</ele><time>2026-04-26T16:33:02Z</time></trkpt><trkpt lat="43.20162932805143" lon="12.155234871093544"><ele>564.5999999999999</ele><time>2026-04-26T16:33:03Z</time></trkpt><trkpt lat="43.201691351532304" lon="12.155374376498077"><ele>563.8</ele><time>2026-04-26T16:33:04Z</time></trkpt><trkpt lat="43.20174350988993" lon="12.155501855146904"><ele>563.0</ele><time>2026-04-26T16:33:05Z</time></trkpt><trkpt lat="43.201793702655046" lon="12.15560383992683"><ele>563.0</ele><time>2026-04-26T16:33:06Z</time></trkpt><trkpt lat="43.20183758091934" lon="12.155704741333315"><ele>563.0</ele><time>2026-04-26T16:33:07Z</time></trkpt><trkpt lat="43.20187519489747" lon="12.155799105551113"><ele>563.0</ele><time>2026-04-26T16:33:08Z</time></trkpt><trkpt lat="43.201938181459" lon="12.1559378447511"><ele>563.0</ele><time>2026-04-26T16:33:10Z</time></trkpt><trkpt lat="43.20201009962782" lon="12.156008272994843"><ele>563.0</ele><time>2026-04-26T16:33:12Z</time></trkpt><trkpt lat="43.20209148127765" lon="12.156051512235313"><ele>563.0</ele><time>2026-04-26T16:33:14Z</time></trkpt><trkpt lat="43.20217821666248" lon="12.156112627018766"><ele>563.0</ele><time>2026-04-26T16:33:16Z</time></trkpt><trkpt lat="43.20228193497905" lon="12.156185717047773"><ele>563.0</ele><time>2026-04-26T16:33:18Z</time></trkpt><trkpt lat="43.20233921971765" lon="12.156228683681006"><ele>563.0</ele><time>2026-04-26T16:33:19Z</time></trkpt><trkpt lat="43.20239593716352" lon="12.156269764843382"><ele>563.0</ele><time>2026-04-26T16:33:20Z</time></trkpt><trkpt lat="43.20245444069696" lon="12.15631503540485"><ele>563.0</ele><time>2026-04-26T16:33:21Z</time></trkpt><trkpt lat="43.20252666783722" lon="12.156369156976446"><ele>562.1666666666666</ele><time>2026-04-26T16:33:23Z</time></trkpt><trkpt lat="43.202589479698744" lon="12.156428946912273"><ele>561.3333333333333</ele><time>2026-04-26T16:33:27Z</time></trkpt><trkpt lat="43.202645737729966" lon="12.156481002988604"><ele>560.5</ele><time>2026-04-26T16:33:32Z</time></trkpt><trkpt lat="43.20269589656003" lon="12.156545357284859"><ele>559.6666666666666</ele><time>2026-04-26T16:34:36Z</time></trkpt><trkpt lat="43.20266980100886" lon="12.156656183724614"><ele>558.8333333333334</ele><time>2026-04-26T16:34:39Z</time></trkpt><trkpt lat="43.20261767392366" lon="12.156769199010974"><ele>558.0</ele><time>2026-04-26T16:34:41Z</time></trkpt><trkpt lat="43.20251367717139" lon="12.1568526775644"><ele>556.8333333333334</ele><time>2026-04-26T16:34:43Z</time></trkpt><trkpt lat="43.20246107590224" lon="12.156913692615401"><ele>555.6666666666666</ele><time>2026-04-26T16:34:44Z</time></trkpt><trkpt lat="43.20236798892238" lon="12.15698103917539"><ele>554.5</ele><time>2026-04-26T16:34:46Z</time></trkpt><trkpt lat="43.20230976398782" lon="12.157045152438501"><ele>553.3333333333333</ele><time>2026-04-26T16:34:48Z</time></trkpt><trkpt lat="43.202265489925836" lon="12.157139843141042"><ele>552.1666666666666</ele><time>2026-04-26T16:34:51Z</time></trkpt><trkpt lat="43.20224564927024" lon="12.157242942062076"><ele>551.0</ele><time>2026-04-26T16:34:53Z</time></trkpt><trkpt lat="43.202297342999785" lon="12.157362067527329"><ele>549.3333333333333</ele><time>2026-04-26T16:34:55Z</time></trkpt><trkpt lat="43.20232662681106" lon="12.157443547810379"><ele>547.6666666666666</ele><time>2026-04-26T16:34:56Z</time></trkpt><trkpt lat="43.20236465432569" lon="12.157537917848261"><ele>546.0</ele><time>2026-04-26T16:34:57Z</time></trkpt><trkpt lat="43.20240604996464" lon="12.157643362640048"><ele>544.3333333333334</ele><time>2026-04-26T16:34:58Z</time></trkpt><trkpt lat="43.20243727136037" lon="12.157784482115135"><ele>542.6666666666667</ele><time>2026-04-26T16:34:59Z</time></trkpt><trkpt lat="43.2024815409679" lon="12.157916441857463"><ele>541.0</ele><time>2026-04-26T16:35:00Z</time></trkpt><trkpt lat="43.20253150177507" lon="12.158029476159193"><ele>541.0</ele><time>2026-04-26T16:35:01Z</time></trkpt><trkpt lat="43.20256299318912" lon="12.158128566369914"><ele>541.0</ele><time>2026-04-26T16:35:02Z</time></trkpt><trkpt lat="43.20259577871186" lon="12.158226790836641"><ele>541.0</ele><time>2026-04-26T16:35:03Z</time></trkpt><trkpt lat="43.20263476191482" lon="12.158319382641446"><ele>541.0</ele><time>2026-04-26T16:35:04Z</time></trkpt><trkpt lat="43.202669995154" lon="12.15839381624765"><ele>541.0</ele><time>2026-04-26T16:35:05Z</time></trkpt><trkpt lat="43.20271617028361" lon="12.158483624108303"><ele>541.0</ele><time>2026-04-26T16:35:06Z</time></trkpt><trkpt lat="43.20275610490831" lon="12.158575700162515"><ele>540.2857142857143</ele><time>2026-04-26T16:35:07Z</time></trkpt><trkpt lat="43.20278544714868" lon="12.1586635484091"><ele>539.5714285714286</ele><time>2026-04-26T16:35:08Z</time></trkpt><trkpt lat="43.202806641949316" lon="12.158748671290828"><ele>538.8571428571429</ele><time>2026-04-26T16:35:09Z</time></trkpt><trkpt lat="43.20282179664635" lon="12.158844206719248"><ele>538.1428571428571</ele><time>2026-04-26T16:35:10Z</time></trkpt><trkpt lat="43.202826354499535" lon="12.15895228815192"><ele>537.4285714285714</ele><time>2026-04-26T16:35:11Z</time></trkpt><trkpt lat="43.20282048533656" lon="12.15905901887976"><ele>536.7142857142858</ele><time>2026-04-26T16:35:12Z</time></trkpt><trkpt lat="43.202811081474174" lon="12.159160255700058"><ele>536.0</ele><time>2026-04-26T16:35:13Z</time></trkpt><trkpt lat="43.202797957361554" lon="12.159266120144908"><ele>534.6</ele><time>2026-04-26T16:35:14Z</time></trkpt><trkpt lat="43.20277265349479" lon="12.159391682979154"><ele>533.2</ele><time>2026-04-26T16:35:15Z</time></trkpt><trkpt lat="43.20274506336994" lon="12.159518674114421"><ele>531.8</ele><time>2026-04-26T16:35:16Z</time></trkpt><trkpt lat="43.20270863946885" lon="12.15965561239758"><ele>530.4</ele><time>2026-04-26T16:35:17Z</time></trkpt><trkpt lat="43.20266432973496" lon="12.15981237949858"><ele>529.0</ele><time>2026-04-26T16:35:18Z</time></trkpt><trkpt lat="43.20261607434466" lon="12.159970697508811"><ele>528.8</ele><time>2026-04-26T16:35:19Z</time></trkpt><trkpt lat="43.20256802249899" lon="12.160108320690451"><ele>528.5999999999999</ele><time>2026-04-26T16:35:20Z</time></trkpt><trkpt lat="43.202519013459714" lon="12.160226341397541"><ele>528.4</ele><time>2026-04-26T16:35:21Z</time></trkpt><trkpt lat="43.20246774168611" lon="12.160333277058115"><ele>528.1999999999999</ele><time>2026-04-26T16:35:22Z</time></trkpt><trkpt lat="43.20241519070479" lon="12.160427058132031"><ele>528.0</ele><time>2026-04-26T16:35:23Z</time></trkpt><trkpt lat="43.20236708156047" lon="12.160506380526435"><ele>528.6</ele><time>2026-04-26T16:35:24Z</time></trkpt><trkpt lat="43.202307267452575" lon="12.16059625285382"><ele>529.1999999999999</ele><time>2026-04-26T16:35:25Z</time></trkpt><trkpt lat="43.202239355422165" lon="12.160697612973298"><ele>529.8</ele><time>2026-04-26T16:35:26Z</time></trkpt><trkpt lat="43.20217090592597" lon="12.160801102281011"><ele>530.4</ele><time>2026-04-26T16:35:27Z</time></trkpt><trkpt lat="43.2020823018436" lon="12.160885469560881"><ele>531.0</ele><time>2026-04-26T16:35:28Z</time></trkpt><trkpt lat="43.20200582178906" lon="12.160975058163585"><ele>531.0</ele><time>2026-04-26T16:35:29Z</time></trkpt><trkpt lat="43.2019224175405" lon="12.161063538793314"><ele>531.0</ele><time>2026-04-26T16:35:30Z</time></trkpt><trkpt lat="43.201835384710975" lon="12.16114361911703"><ele>531.0</ele><time>2026-04-26T16:35:31Z</time></trkpt><trkpt lat="43.20176133730861" lon="12.16123840096769"><ele>531.0</ele><time>2026-04-26T16:35:32Z</time></trkpt><trkpt lat="43.2016734559978" lon="12.161312486709965"><ele>531.0</ele><time>2026-04-26T16:35:33Z</time></trkpt><trkpt lat="43.20159296156455" lon="12.161386026640063"><ele>531.0</ele><time>2026-04-26T16:35:34Z</time></trkpt><trkpt lat="43.20151801954035" lon="12.161453595327739"><ele>531.0</ele><time>2026-04-26T16:35:35Z</time></trkpt><trkpt lat="43.20144526654872" lon="12.161526847401248"><ele>531.0</ele><time>2026-04-26T16:35:36Z</time></trkpt><trkpt lat="43.20137579230789" lon="12.161600671985381"><ele>531.0</ele><time>2026-04-26T16:35:37Z</time></trkpt><trkpt lat="43.2013065941188" lon="12.161682257340162"><ele>531.0</ele><time>2026-04-26T16:35:38Z</time></trkpt><trkpt lat="43.20124348792136" lon="12.161758022142575"><ele>531.0</ele><time>2026-04-26T16:35:39Z</time></trkpt><trkpt lat="43.201185881852616" lon="12.16183311924155"><ele>531.2</ele><time>2026-04-26T16:35:40Z</time></trkpt><trkpt lat="43.20112415170941" lon="12.16192296930047"><ele>531.4000000000001</ele><time>2026-04-26T16:35:41Z</time></trkpt><trkpt lat="43.20105635346658" lon="12.162016809824125"><ele>531.6</ele><time>2026-04-26T16:35:42Z</time></trkpt><trkpt lat="43.20097978003471" lon="12.162119770620734"><ele>531.8000000000001</ele><time>2026-04-26T16:35:43Z</time></trkpt><trkpt lat="43.200894174823176" lon="12.16222765934509"><ele>532.0</ele><time>2026-04-26T16:35:44Z</time></trkpt><trkpt lat="43.20081374389814" lon="12.162340328104461"><ele>532.0</ele><time>2026-04-26T16:35:45Z</time></trkpt><trkpt lat="43.200719813124714" lon="12.162464873138058"><ele>532.0</ele><time>2026-04-26T16:35:46Z</time></trkpt><trkpt lat="43.20061276932229" lon="12.162593354620704"><ele>532.0</ele><time>2026-04-26T16:35:47Z</time></trkpt><trkpt lat="43.20052167373117" lon="12.162710571725862"><ele>532.0</ele><time>2026-04-26T16:35:48Z</time></trkpt><trkpt lat="43.200449345737745" lon="12.162805028351729"><ele>532.0</ele><time>2026-04-26T16:35:49Z</time></trkpt><trkpt lat="43.20039005493525" lon="12.162882243493753"><ele>532.0</ele><time>2026-04-26T16:35:50Z</time></trkpt><trkpt lat="43.200327009300246" lon="12.162961348224531"><ele>532.0</ele><time>2026-04-26T16:35:51Z</time></trkpt><trkpt lat="43.20027781430866" lon="12.163051943084087"><ele>532.0</ele><time>2026-04-26T16:35:52Z</time></trkpt><trkpt lat="43.200248748675286" lon="12.163149485679675"><ele>532.0</ele><time>2026-04-26T16:35:53Z</time></trkpt><trkpt lat="43.200236236247406" lon="12.163257177306283"><ele>532.0</ele><time>2026-04-26T16:35:54Z</time></trkpt><trkpt lat="43.20023541022091" lon="12.163373965504944"><ele>534.6</ele><time>2026-04-26T16:35:55Z</time></trkpt><trkpt lat="43.20023857292656" lon="12.163524808602084"><ele>537.2</ele><time>2026-04-26T16:35:56Z</time></trkpt><trkpt lat="43.20024448000086" lon="12.163681663699235"><ele>539.8</ele><time>2026-04-26T16:35:57Z</time></trkpt><trkpt lat="43.200255099897134" lon="12.163815426477298"><ele>542.4</ele><time>2026-04-26T16:35:58Z</time></trkpt><trkpt lat="43.20027287621335" lon="12.163952429617803"><ele>545.0</ele><time>2026-04-26T16:35:59Z</time></trkpt><trkpt lat="43.200288202623746" lon="12.164068701022684"><ele>545.3333333333333</ele><time>2026-04-26T16:36:00Z</time></trkpt><trkpt lat="43.20030339474761" lon="12.164160964972156"><ele>545.6666666666666</ele><time>2026-04-26T16:36:01Z</time></trkpt><trkpt lat="43.20032001867748" lon="12.164245813392336"><ele>546.0</ele><time>2026-04-26T16:36:02Z</time></trkpt><trkpt lat="43.20036690045175" lon="12.164412098124984"><ele>546.3333333333334</ele><time>2026-04-26T16:36:04Z</time></trkpt><trkpt lat="43.20039131788002" lon="12.164523225248645"><ele>546.6666666666667</ele><time>2026-04-26T16:36:05Z</time></trkpt><trkpt lat="43.20042731999991" lon="12.164649317069555"><ele>547.0</ele><time>2026-04-26T16:36:06Z</time></trkpt><trkpt lat="43.200461364875316" lon="12.164792306001981"><ele>548.0</ele><time>2026-04-26T16:36:07Z</time></trkpt><trkpt lat="43.200481032509735" lon="12.16490841893929"><ele>549.0</ele><time>2026-04-26T16:36:08Z</time></trkpt><trkpt lat="43.20048775760521" lon="12.165041350408924"><ele>550.0</ele><time>2026-04-26T16:36:09Z</time></trkpt><trkpt lat="43.20049085379003" lon="12.165154471893436"><ele>551.0</ele><time>2026-04-26T16:36:10Z</time></trkpt><trkpt lat="43.20048257522144" lon="12.165250119506508"><ele>552.0</ele><time>2026-04-26T16:36:11Z</time></trkpt><trkpt lat="43.20046074607857" lon="12.16536715194681"><ele>553.0</ele><time>2026-04-26T16:36:12Z</time></trkpt><trkpt lat="43.20043082151544" lon="12.165512684034843"><ele>553.0</ele><time>2026-04-26T16:36:13Z</time></trkpt><trkpt lat="43.20038812533175" lon="12.16563059881878"><ele>553.0</ele><time>2026-04-26T16:36:14Z</time></trkpt><trkpt lat="43.20035430238351" lon="12.165731351640309"><ele>553.0</ele><time>2026-04-26T16:36:15Z</time></trkpt><trkpt lat="43.20030243853462" lon="12.165835983559342"><ele>553.0</ele><time>2026-04-26T16:36:16Z</time></trkpt><trkpt lat="43.20026410438168" lon="12.165961342162412"><ele>553.0</ele><time>2026-04-26T16:36:17Z</time></trkpt><trkpt lat="43.200252205897996" lon="12.166083444337103"><ele>554.4</ele><time>2026-04-26T16:36:18Z</time></trkpt><trkpt lat="43.20023463641303" lon="12.166192705151607"><ele>555.8</ele><time>2026-04-26T16:36:19Z</time></trkpt><trkpt lat="43.20023222661994" lon="12.166322307881536"><ele>557.2</ele><time>2026-04-26T16:36:20Z</time></trkpt><trkpt lat="43.20024851003142" lon="12.166449764174608"><ele>558.6</ele><time>2026-04-26T16:36:21Z</time></trkpt><trkpt lat="43.200260265218645" lon="12.166583474489483"><ele>560.0</ele><time>2026-04-26T16:36:22Z</time></trkpt><trkpt lat="43.20028271033776" lon="12.166709491199507"><ele>561.4</ele><time>2026-04-26T16:36:23Z</time></trkpt><trkpt lat="43.20030609322367" lon="12.166827731387105"><ele>562.8</ele><time>2026-04-26T16:36:24Z</time></trkpt><trkpt lat="43.200331633225375" lon="12.166953590136695"><ele>564.2</ele><time>2026-04-26T16:36:25Z</time></trkpt><trkpt lat="43.20036893558935" lon="12.167080596263562"><ele>565.6</ele><time>2026-04-26T16:36:26Z</time></trkpt><trkpt lat="43.200396908720684" lon="12.167207326871882"><ele>567.0</ele><time>2026-04-26T16:36:27Z</time></trkpt><trkpt lat="43.200426906237254" lon="12.167326851245376"><ele>568.0</ele><time>2026-04-26T16:36:28Z</time></trkpt><trkpt lat="43.20045542451437" lon="12.167452756790858"><ele>569.0</ele><time>2026-04-26T16:36:29Z</time></trkpt><trkpt lat="43.200486170591695" lon="12.167586543019322"><ele>570.0</ele><time>2026-04-26T16:36:30Z</time></trkpt><trkpt lat="43.20051932658243" lon="12.167719060472503"><ele>571.0</ele><time>2026-04-26T16:36:31Z</time></trkpt><trkpt lat="43.20056106567611" lon="12.167852611542001"><ele>572.0</ele><time>2026-04-26T16:36:32Z</time></trkpt><trkpt lat="43.20061582010682" lon="12.168005155568157"><ele>570.6</ele><time>2026-04-26T16:36:33Z</time></trkpt><trkpt lat="43.20067667247604" lon="12.168145593137389"><ele>569.2</ele><time>2026-04-26T16:36:34Z</time></trkpt><trkpt lat="43.20073972367847" lon="12.168277715556503"><ele>567.8</ele><time>2026-04-26T16:36:35Z</time></trkpt><trkpt lat="43.20080097500443" lon="12.168396630181478"><ele>566.4</ele><time>2026-04-26T16:36:36Z</time></trkpt><trkpt lat="43.200853227360675" lon="12.168515796233446"><ele>565.0</ele><time>2026-04-26T16:36:37Z</time></trkpt><trkpt lat="43.20090437764679" lon="12.16865373003329"><ele>565.0</ele><time>2026-04-26T16:36:38Z</time></trkpt><trkpt lat="43.20094643030807" lon="12.168788438628058"><ele>565.0</ele><time>2026-04-26T16:36:39Z</time></trkpt><trkpt lat="43.200983901986866" lon="12.168912213674224"><ele>565.0</ele><time>2026-04-26T16:36:40Z</time></trkpt><trkpt lat="43.20102254820674" lon="12.16902032306746"><ele>565.0</ele><time>2026-04-26T16:36:41Z</time></trkpt><trkpt lat="43.201056272482546" lon="12.169126228759074"><ele>565.0</ele><time>2026-04-26T16:36:42Z</time></trkpt><trkpt lat="43.20108996630149" lon="12.169234804311944"><ele>565.8</ele><time>2026-04-26T16:36:43Z</time></trkpt><trkpt lat="43.2011167416144" lon="12.169353286084313"><ele>566.6</ele><time>2026-04-26T16:36:44Z</time></trkpt><trkpt lat="43.20112660315191" lon="12.169480202391167"><ele>567.4</ele><time>2026-04-26T16:36:45Z</time></trkpt><trkpt lat="43.20110078840063" lon="12.169602643545625"><ele>568.2</ele><time>2026-04-26T16:36:46Z</time></trkpt><trkpt lat="43.20108063151727" lon="12.169731230866752"><ele>569.0</ele><time>2026-04-26T16:36:47Z</time></trkpt><trkpt lat="43.20107940296174" lon="12.169857771693582"><ele>569.6666666666666</ele><time>2026-04-26T16:36:48Z</time></trkpt><trkpt lat="43.201063522836506" lon="12.169964692095787"><ele>570.3333333333333</ele><time>2026-04-26T16:36:49Z</time></trkpt><trkpt lat="43.20106107485064" lon="12.170063174490098"><ele>571.0</ele><time>2026-04-26T16:36:50Z</time></trkpt><trkpt lat="43.201072370971424" lon="12.17015825066777"><ele>571.6666666666666</ele><time>2026-04-26T16:36:51Z</time></trkpt><trkpt lat="43.20110147387995" lon="12.17025462662723"><ele>572.3333333333334</ele><time>2026-04-26T16:36:52Z</time></trkpt><trkpt lat="43.201154949585685" lon="12.17034472568739"><ele>573.0</ele><time>2026-04-26T16:36:53Z</time></trkpt><trkpt lat="43.20122884745804" lon="12.170436296422531"><ele>573.0</ele><time>2026-04-26T16:36:54Z</time></trkpt><trkpt lat="43.20131472800314" lon="12.170524255146528"><ele>573.0</ele><time>2026-04-26T16:36:55Z</time></trkpt><trkpt lat="43.20140353440511" lon="12.170615652694172"><ele>573.0</ele><time>2026-04-26T16:36:56Z</time></trkpt><trkpt lat="43.20149432009587" lon="12.170712712453266"><ele>573.0</ele><time>2026-04-26T16:36:57Z</time></trkpt><trkpt lat="43.20159552351771" lon="12.170824571520123"><ele>571.0</ele><time>2026-04-26T16:36:58Z</time></trkpt><trkpt lat="43.20170488614627" lon="12.170934253543313"><ele>569.0</ele><time>2026-04-26T16:36:59Z</time></trkpt><trkpt lat="43.20181392035326" lon="12.171035974123527"><ele>567.0</ele><time>2026-04-26T16:37:00Z</time></trkpt><trkpt lat="43.201904354088605" lon="12.171128413660611"><ele>565.0</ele><time>2026-04-26T16:37:01Z</time></trkpt><trkpt lat="43.201989916686244" lon="12.17121355660953"><ele>565.0</ele><time>2026-04-26T16:37:02Z</time></trkpt><trkpt lat="43.2020795587373" lon="12.171302211684154"><ele>565.0</ele><time>2026-04-26T16:37:03Z</time></trkpt><trkpt lat="43.20217350662107" lon="12.171398627409847"><ele>565.0</ele><time>2026-04-26T16:37:04Z</time></trkpt><trkpt lat="43.20226756105239" lon="12.171490174039528"><ele>565.0</ele><time>2026-04-26T16:37:05Z</time></trkpt><trkpt lat="43.202366129494685" lon="12.171588462622532"><ele>565.6</ele><time>2026-04-26T16:37:06Z</time></trkpt><trkpt lat="43.20245433312775" lon="12.171689678198124"><ele>566.2</ele><time>2026-04-26T16:37:07Z</time></trkpt><trkpt lat="43.202533697536325" lon="12.17177967210375"><ele>566.8</ele><time>2026-04-26T16:37:08Z</time></trkpt><trkpt lat="43.20259825766728" lon="12.171865367748518"><ele>567.4</ele><time>2026-04-26T16:37:09Z</time></trkpt><trkpt lat="43.2026311723153" lon="12.171954506966307"><ele>568.0</ele><time>2026-04-26T16:37:10Z</time></trkpt><trkpt lat="43.20266043038219" lon="12.172088559192028"><ele>568.0</ele><time>2026-04-26T16:37:12Z</time></trkpt><trkpt lat="43.20266659402893" lon="12.172178043178894"><ele>568.0</ele><time>2026-04-26T16:37:13Z</time></trkpt><trkpt lat="43.20269256816801" lon="12.172259153493743"><ele>568.0</ele><time>2026-04-26T16:37:14Z</time></trkpt><trkpt lat="43.20273653541928" lon="12.172361639042254"><ele>568.0</ele><time>2026-04-26T16:37:16Z</time></trkpt><trkpt lat="43.20279613371939" lon="12.172500559764575"><ele>568.0</ele><time>2026-04-26T16:37:20Z</time></trkpt><trkpt lat="43.20284737344309" lon="12.172619997038938"><ele>568.0</ele><time>2026-04-26T16:37:22Z</time></trkpt><trkpt lat="43.20312762247119" lon="12.172608302781315"><ele>567.1666666666667</ele><time>2026-04-26T16:37:25Z</time></trkpt><trkpt lat="43.203189467555" lon="12.17265762508082"><ele>566.3333333333334</ele><time>2026-04-26T16:37:26Z</time></trkpt><trkpt lat="43.20323950493148" lon="12.17273442889492"><ele>565.5</ele><time>2026-04-26T16:37:29Z</time></trkpt><trkpt lat="43.203310626153225" lon="12.172826087576487"><ele>564.6666666666666</ele><time>2026-04-26T16:37:32Z</time></trkpt><trkpt lat="43.20336833780235" lon="12.172926497744994"><ele>563.8333333333333</ele><time>2026-04-26T16:37:33Z</time></trkpt><trkpt lat="43.20342763271076" lon="12.173034977354101"><ele>563.0</ele><time>2026-04-26T16:37:34Z</time></trkpt><trkpt lat="43.20348087552484" lon="12.173122040602449"><ele>563.4</ele><time>2026-04-26T16:37:35Z</time></trkpt><trkpt lat="43.203554835462526" lon="12.17322508191187"><ele>563.8</ele><time>2026-04-26T16:37:36Z</time></trkpt><trkpt lat="43.20363536274369" lon="12.173363167491729"><ele>564.2</ele><time>2026-04-26T16:37:37Z</time></trkpt><trkpt lat="43.2037054786583" lon="12.173470106675968"><ele>564.6</ele><time>2026-04-26T16:37:38Z</time></trkpt><trkpt lat="43.20377897463342" lon="12.173565159070622"><ele>565.0</ele><time>2026-04-26T16:37:39Z</time></trkpt><trkpt lat="43.203836078302686" lon="12.17366118554701"><ele>565.0</ele><time>2026-04-26T16:37:40Z</time></trkpt><trkpt lat="43.20388919537473" lon="12.173751226617819"><ele>565.0</ele><time>2026-04-26T16:37:41Z</time></trkpt><trkpt lat="43.20393883207045" lon="12.173840150493968"><ele>565.0</ele><time>2026-04-26T16:37:42Z</time></trkpt><trkpt lat="43.204003057627006" lon="12.173930362084407"><ele>565.0</ele><time>2026-04-26T16:37:43Z</time></trkpt><trkpt lat="43.20407549164154" lon="12.174037144073178"><ele>565.0</ele><time>2026-04-26T16:37:44Z</time></trkpt><trkpt lat="43.204131496526" lon="12.174141934300877"><ele>564.3333333333334</ele><time>2026-04-26T16:37:45Z</time></trkpt><trkpt lat="43.20418409361282" lon="12.174230961888718"><ele>563.6666666666667</ele><time>2026-04-26T16:37:46Z</time></trkpt><trkpt lat="43.20422512215827" lon="12.174297116150976"><ele>563.0</ele><time>2026-04-26T16:37:47Z</time></trkpt><trkpt lat="43.20427964137234" lon="12.17437812072178"><ele>562.3333333333334</ele><time>2026-04-26T16:37:48Z</time></trkpt><trkpt lat="43.204323803184934" lon="12.174457240916391"><ele>561.6666666666666</ele><time>2026-04-26T16:37:49Z</time></trkpt><trkpt lat="43.20439433958106" lon="12.174533991747612"><ele>561.0</ele><time>2026-04-26T16:37:50Z</time></trkpt><trkpt lat="43.204457764570286" lon="12.174586947293072"><ele>561.0</ele><time>2026-04-26T16:37:51Z</time></trkpt><trkpt lat="43.204512419000665" lon="12.174735857221005"><ele>561.0</ele><time>2026-04-26T16:37:53Z</time></trkpt><trkpt lat="43.204586420707244" lon="12.174853054814514"><ele>561.0</ele><time>2026-04-26T16:37:55Z</time></trkpt><trkpt lat="43.2046302298195" lon="12.174917215082568"><ele>561.0</ele><time>2026-04-26T16:37:56Z</time></trkpt><trkpt lat="43.204714922083106" lon="12.175015110924393"><ele>561.0</ele><time>2026-04-26T16:37:58Z</time></trkpt><trkpt lat="43.2047878397404" lon="12.175094414140906"><ele>560.4</ele><time>2026-04-26T16:38:00Z</time></trkpt><trkpt lat="43.2048464567496" lon="12.175191334909952"><ele>559.8</ele><time>2026-04-26T16:38:02Z</time></trkpt><trkpt lat="43.20494953480472" lon="12.175329244810147"><ele>559.1999999999999</ele><time>2026-04-26T16:38:04Z</time></trkpt><trkpt lat="43.20500532596808" lon="12.17542159287172"><ele>558.6</ele><time>2026-04-26T16:38:05Z</time></trkpt><trkpt lat="43.20510737420636" lon="12.175506715576919"><ele>558.0</ele><time>2026-04-26T16:38:07Z</time></trkpt><trkpt lat="43.20518736183747" lon="12.175542454886143"><ele>558.0</ele><time>2026-04-26T16:38:08Z</time></trkpt><trkpt lat="43.20526028896834" lon="12.17558037037393"><ele>558.0</ele><time>2026-04-26T16:38:09Z</time></trkpt><trkpt lat="43.205351082247354" lon="12.175688310720636"><ele>558.0</ele><time>2026-04-26T16:38:11Z</time></trkpt><trkpt lat="43.20540512126159" lon="12.175749339383078"><ele>558.0</ele><time>2026-04-26T16:38:12Z</time></trkpt><trkpt lat="43.205486666569406" lon="12.175851304209308"><ele>558.0</ele><time>2026-04-26T16:38:14Z</time></trkpt><trkpt lat="43.20560793043109" lon="12.175889300165231"><ele>556.3333333333334</ele><time>2026-04-26T16:38:16Z</time></trkpt><trkpt lat="43.20571848123024" lon="12.175971994868698"><ele>554.6666666666666</ele><time>2026-04-26T16:38:18Z</time></trkpt><trkpt lat="43.20577791737037" lon="12.17601491256832"><ele>553.0</ele><time>2026-04-26T16:38:19Z</time></trkpt><trkpt lat="43.205839038721436" lon="12.176040249661288"><ele>551.3333333333333</ele><time>2026-04-26T16:38:20Z</time></trkpt><trkpt lat="43.205898120501196" lon="12.17607138807715"><ele>549.6666666666666</ele><time>2026-04-26T16:38:21Z</time></trkpt><trkpt lat="43.20595386715537" lon="12.176113032805846"><ele>548.0</ele><time>2026-04-26T16:38:22Z</time></trkpt><trkpt lat="43.20605878800552" lon="12.176198717210209"><ele>548.0</ele><time>2026-04-26T16:38:24Z</time></trkpt><trkpt lat="43.206108729306045" lon="12.176260290015342"><ele>548.0</ele><time>2026-04-26T16:38:25Z</time></trkpt><trkpt lat="43.206194412496465" lon="12.176355615154607"><ele>548.0</ele><time>2026-04-26T16:38:27Z</time></trkpt><trkpt lat="43.206174115905995" lon="12.176503317835701"><ele>548.0</ele><time>2026-04-26T16:38:29Z</time></trkpt><trkpt lat="43.2061990245479" lon="12.176622294624767"><ele>548.0</ele><time>2026-04-26T16:38:31Z</time></trkpt><trkpt lat="43.2062340072449" lon="12.176697059006921"><ele>548.0</ele><time>2026-04-26T16:38:32Z</time></trkpt><trkpt lat="43.20625307225103" lon="12.176794016844807"><ele>546.8</ele><time>2026-04-26T16:38:33Z</time></trkpt><trkpt lat="43.20623424005422" lon="12.176932554934988"><ele>545.5999999999999</ele><time>2026-04-26T16:38:35Z</time></trkpt><trkpt lat="43.20621920531467" lon="12.177086016111847"><ele>544.4000000000001</ele><time>2026-04-26T16:38:37Z</time></trkpt><trkpt lat="43.206280222294744" lon="12.177216888847875"><ele>543.2</ele><time>2026-04-26T16:38:39Z</time></trkpt><trkpt lat="43.206360419067536" lon="12.177334225417068"><ele>542.0</ele><time>2026-04-26T16:38:41Z</time></trkpt><trkpt lat="43.20637832015512" lon="12.177421146675494"><ele>541.0</ele><time>2026-04-26T16:38:42Z</time></trkpt><trkpt lat="43.2064391971636" lon="12.177529596658408"><ele>540.0</ele><time>2026-04-26T16:38:44Z</time></trkpt><trkpt lat="43.206491458052554" lon="12.177588443117928"><ele>539.0</ele><time>2026-04-26T16:38:45Z</time></trkpt><trkpt lat="43.206587720254575" lon="12.177690281168482"><ele>538.0</ele><time>2026-04-26T16:38:47Z</time></trkpt><trkpt lat="43.2066562224548" lon="12.177820377943224"><ele>537.0</ele><time>2026-04-26T16:38:49Z</time></trkpt><trkpt lat="43.20669741660508" lon="12.177889378496623"><ele>537.0</ele><time>2026-04-26T16:38:50Z</time></trkpt><trkpt lat="43.206731316042685" lon="12.17797406258223"><ele>537.0</ele><time>2026-04-26T16:38:51Z</time></trkpt><trkpt lat="43.206806223237905" lon="12.178088235950769"><ele>537.0</ele><time>2026-04-26T16:38:53Z</time></trkpt><trkpt lat="43.206867106740155" lon="12.178192054488031"><ele>537.0</ele><time>2026-04-26T16:38:55Z</time></trkpt><trkpt lat="43.20689625257927" lon="12.178291849533247"><ele>537.0</ele><time>2026-04-26T16:38:57Z</time></trkpt><trkpt lat="43.20679889468662" lon="12.178336106180012"><ele>537.0</ele><time>2026-04-26T16:38:59Z</time></trkpt><trkpt lat="43.20668305303954" lon="12.17825280053184"><ele>537.0</ele><time>2026-04-26T16:39:01Z</time></trkpt><trkpt lat="43.20662454866264" lon="12.178204213701067"><ele>537.0</ele><time>2026-04-26T16:39:02Z</time></trkpt><trkpt lat="43.206525122181695" lon="12.178134112825864"><ele>537.0</ele><time>2026-04-26T16:39:04Z</time></trkpt><trkpt lat="43.20642397370599" lon="12.178066669477532"><ele>537.0</ele><time>2026-04-26T16:39:06Z</time></trkpt><trkpt lat="43.206308028289655" lon="12.178024102532083"><ele>535.8000000000001</ele><time>2026-04-26T16:39:08Z</time></trkpt><trkpt lat="43.206254826615364" lon="12.177972794331184"><ele>534.6</ele><time>2026-04-26T16:39:09Z</time></trkpt><trkpt lat="43.206185133158584" lon="12.17788643814347"><ele>533.4000000000001</ele><time>2026-04-26T16:39:11Z</time></trkpt><trkpt lat="43.20611042106334" lon="12.177816126903998"><ele>532.2</ele><time>2026-04-26T16:39:13Z</time></trkpt><trkpt lat="43.20603546891932" lon="12.177729118692321"><ele>531.0</ele><time>2026-04-26T16:39:15Z</time></trkpt><trkpt lat="43.205916497339864" lon="12.177658623153684"><ele>531.0</ele><time>2026-04-26T16:39:17Z</time></trkpt><trkpt lat="43.20582329552573" lon="12.177596706151048"><ele>531.0</ele><time>2026-04-26T16:39:19Z</time></trkpt><trkpt lat="43.20572690653126" lon="12.177612458936412"><ele>531.0</ele><time>2026-04-26T16:39:21Z</time></trkpt><trkpt lat="43.20572063521226" lon="12.177743299664494"><ele>531.0</ele><time>2026-04-26T16:39:23Z</time></trkpt><trkpt lat="43.20579885030669" lon="12.177838797923139"><ele>531.0</ele><time>2026-04-26T16:39:25Z</time></trkpt><trkpt lat="43.20584720535659" lon="12.177907431849475"><ele>531.0</ele><time>2026-04-26T16:39:26Z</time></trkpt><trkpt lat="43.205882030613644" lon="12.17798082165831"><ele>531.0</ele><time>2026-04-26T16:39:27Z</time></trkpt><trkpt lat="43.20594857788873" lon="12.178079779167332"><ele>531.0</ele><time>2026-04-26T16:39:29Z</time></trkpt><trkpt lat="43.20598710061725" lon="12.178183757761284"><ele>531.0</ele><time>2026-04-26T16:39:31Z</time></trkpt><trkpt lat="43.20604565806599" lon="12.178330619740482"><ele>531.0</ele><time>2026-04-26T16:39:33Z</time></trkpt><trkpt lat="43.20608871011689" lon="12.17842076492276"><ele>531.0</ele><time>2026-04-26T16:39:34Z</time></trkpt><trkpt lat="43.20612703528449" lon="12.17853022352666"><ele>528.4</ele><time>2026-04-26T16:39:36Z</time></trkpt><trkpt lat="43.206202307778646" lon="12.178628533293406"><ele>525.8</ele><time>2026-04-26T16:39:38Z</time></trkpt><trkpt lat="43.20625840486483" lon="12.178748201574955"><ele>523.1999999999999</ele><time>2026-04-26T16:39:40Z</time></trkpt><trkpt lat="43.20630014273992" lon="12.178879329363253"><ele>520.6</ele><time>2026-04-26T16:39:42Z</time></trkpt><trkpt lat="43.20633894087174" lon="12.179005649971044"><ele>518.0</ele><time>2026-04-26T16:39:44Z</time></trkpt><trkpt lat="43.20633647505002" lon="12.1791589205114"><ele>514.6</ele><time>2026-04-26T16:39:46Z</time></trkpt><trkpt lat="43.20626280963032" lon="12.17928883781052"><ele>511.19999999999993</ele><time>2026-04-26T16:39:48Z</time></trkpt><trkpt lat="43.20622099056041" lon="12.179369776501032"><ele>507.8</ele><time>2026-04-26T16:39:49Z</time></trkpt><trkpt lat="43.206213135583184" lon="12.179536816134872"><ele>504.4</ele><time>2026-04-26T16:39:51Z</time></trkpt><trkpt lat="43.206283009587885" lon="12.179638969663081"><ele>501.0</ele><time>2026-04-26T16:39:53Z</time></trkpt><trkpt lat="43.206357136883845" lon="12.179686350615986"><ele>501.0</ele><time>2026-04-26T16:39:55Z</time></trkpt><trkpt lat="43.20642410369774" lon="12.179732078383518"><ele>501.0</ele><time>2026-04-26T16:39:56Z</time></trkpt><trkpt lat="43.20648973547978" lon="12.179783355636339"><ele>501.0</ele><time>2026-04-26T16:39:57Z</time></trkpt><trkpt lat="43.20658246330133" lon="12.17986112693947"><ele>501.0</ele><time>2026-04-26T16:39:59Z</time></trkpt><trkpt lat="43.2066922044763" lon="12.179891814644883"><ele>501.0</ele><time>2026-04-26T16:40:01Z</time></trkpt><trkpt lat="43.20676604854152" lon="12.17988937789175"><ele>501.0</ele><time>2026-04-26T16:40:02Z</time></trkpt><trkpt lat="43.20683725403807" lon="12.179873425126562"><ele>501.0</ele><time>2026-04-26T16:40:03Z</time></trkpt><trkpt lat="43.20691777872619" lon="12.179871487830578"><ele>501.0</ele><time>2026-04-26T16:40:04Z</time></trkpt><trkpt lat="43.20702694601539" lon="12.179881953212691"><ele>501.0</ele><time>2026-04-26T16:40:06Z</time></trkpt><trkpt lat="43.20709084156441" lon="12.179894907590601"><ele>501.0</ele><time>2026-04-26T16:40:07Z</time></trkpt><trkpt lat="43.20720011087936" lon="12.179914144333562"><ele>501.0</ele><time>2026-04-26T16:40:09Z</time></trkpt><trkpt lat="43.20728289918984" lon="12.179867436150886"><ele>499.8</ele><time>2026-04-26T16:40:11Z</time></trkpt><trkpt lat="43.20734044622626" lon="12.180001846864267"><ele>498.6</ele><time>2026-04-26T16:40:14Z</time></trkpt><trkpt lat="43.20736111370328" lon="12.180088297674438"><ele>497.4</ele><time>2026-04-26T16:40:16Z</time></trkpt><trkpt lat="43.20734616250713" lon="12.180203349897376"><ele>496.2</ele><time>2026-04-26T16:40:18Z</time></trkpt><trkpt lat="43.20734047708431" lon="12.180335923976752"><ele>495.0</ele><time>2026-04-26T16:40:20Z</time></trkpt><trkpt lat="43.20740404391471" lon="12.180469651096937"><ele>495.0</ele><time>2026-04-26T16:40:22Z</time></trkpt><trkpt lat="43.207460826925825" lon="12.18052371963627"><ele>495.0</ele><time>2026-04-26T16:40:24Z</time></trkpt><trkpt lat="43.20751715768779" lon="12.180612505531922"><ele>495.0</ele><time>2026-04-26T16:40:27Z</time></trkpt><trkpt lat="43.20756461829462" lon="12.18068088766046"><ele>495.0</ele><time>2026-04-26T16:40:29Z</time></trkpt><trkpt lat="43.20761434567324" lon="12.18078360865126"><ele>495.0</ele><time>2026-04-26T16:40:31Z</time></trkpt><trkpt lat="43.20772494087753" lon="12.180826182130616"><ele>495.0</ele><time>2026-04-26T16:40:33Z</time></trkpt><trkpt lat="43.20781896586495" lon="12.18084450177308"><ele>493.0</ele><time>2026-04-26T16:40:35Z</time></trkpt><trkpt lat="43.20788580002396" lon="12.180944878629031"><ele>491.0</ele><time>2026-04-26T16:40:37Z</time></trkpt><trkpt lat="43.20783758361953" lon="12.18108444365026"><ele>489.0</ele><time>2026-04-26T16:40:39Z</time></trkpt><trkpt lat="43.20776085115115" lon="12.181214849780575"><ele>487.0</ele><time>2026-04-26T16:40:41Z</time></trkpt><trkpt lat="43.207666400943616" lon="12.181286278576138"><ele>485.0</ele><time>2026-04-26T16:40:43Z</time></trkpt><trkpt lat="43.20754812385264" lon="12.18126530358805"><ele>485.0</ele><time>2026-04-26T16:40:45Z</time></trkpt><trkpt lat="43.207437956692225" lon="12.181224350913528"><ele>485.0</ele><time>2026-04-26T16:40:47Z</time></trkpt><trkpt lat="43.20731674360962" lon="12.181197229823011"><ele>485.0</ele><time>2026-04-26T16:40:49Z</time></trkpt><trkpt lat="43.207256574067145" lon="12.18117089989858"><ele>485.0</ele><time>2026-04-26T16:40:50Z</time></trkpt><trkpt lat="43.207132214723636" lon="12.181146494684402"><ele>485.0</ele><time>2026-04-26T16:40:52Z</time></trkpt><trkpt lat="43.207067433462214" lon="12.181134224195965"><ele>484.8</ele><time>2026-04-26T16:40:53Z</time></trkpt><trkpt lat="43.20699446661469" lon="12.181107053711784"><ele>484.6</ele><time>2026-04-26T16:40:54Z</time></trkpt><trkpt lat="43.206876926629896" lon="12.18105617763654"><ele>484.4</ele><time>2026-04-26T16:40:56Z</time></trkpt><trkpt lat="43.206760523057945" lon="12.181029368290229"><ele>484.2</ele><time>2026-04-26T16:40:58Z</time></trkpt><trkpt lat="43.20669104622143" lon="12.180996838546532"><ele>484.0</ele><time>2026-04-26T16:41:00Z</time></trkpt><trkpt lat="43.20670012471996" lon="12.181154151655752"><ele>484.00000000000006</ele><time>2026-04-26T16:41:03Z</time></trkpt><trkpt lat="43.206758925666016" lon="12.181190568507295"><ele>484.0</ele><time>2026-04-26T16:41:04Z</time></trkpt><trkpt lat="43.20680940997211" lon="12.181279638079237"><ele>484.0</ele><time>2026-04-26T16:41:06Z</time></trkpt><trkpt lat="43.20684950550923" lon="12.18136094869545"><ele>484.0</ele><time>2026-04-26T16:41:07Z</time></trkpt><trkpt lat="43.20687773320279" lon="12.181438328192847"><ele>484.00000000000006</ele><time>2026-04-26T16:41:08Z</time></trkpt><trkpt lat="43.20693534387639" lon="12.18156333786911"><ele>484.0</ele><time>2026-04-26T16:41:10Z</time></trkpt><trkpt lat="43.20698338751162" lon="12.181680424195076"><ele>480.6666666666667</ele><time>2026-04-26T16:41:12Z</time></trkpt><trkpt lat="43.20705705060602" lon="12.181763590880115"><ele>477.33333333333337</ele><time>2026-04-26T16:41:14Z</time></trkpt><trkpt lat="43.20708179023081" lon="12.181865176410424"><ele>474.0</ele><time>2026-04-26T16:41:17Z</time></trkpt><trkpt lat="43.20710849727465" lon="12.181961114181984"><ele>470.66666666666663</ele><time>2026-04-26T16:41:20Z</time></trkpt><trkpt lat="43.20716790802841" lon="12.182040562742246"><ele>467.3333333333333</ele><time>2026-04-26T16:41:27Z</time></trkpt><trkpt lat="43.20721826656025" lon="12.182100306189328"><ele>464.0</ele><time>2026-04-26T16:41:30Z</time></trkpt><trkpt lat="43.20727639096415" lon="12.18219033440151"><ele>462.66666666666663</ele><time>2026-04-26T16:41:33Z</time></trkpt><trkpt lat="43.20733533905755" lon="12.182279842145583"><ele>461.3333333333333</ele><time>2026-04-26T16:41:36Z</time></trkpt><trkpt lat="43.20738527353812" lon="12.182376418594265"><ele>460.0</ele><time>2026-04-26T16:41:39Z</time></trkpt><trkpt lat="43.20741747754972" lon="12.18246882953662"><ele>458.66666666666663</ele><time>2026-04-26T16:41:41Z</time></trkpt><trkpt lat="43.207460406132604" lon="12.182555093586307"><ele>457.3333333333333</ele><time>2026-04-26T16:41:43Z</time></trkpt><trkpt lat="43.20754009985902" lon="12.182654379915439"><ele>456.0</ele><time>2026-04-26T16:41:46Z</time></trkpt><trkpt lat="43.20758007812376" lon="12.182743980942114"><ele>456.0</ele><time>2026-04-26T16:41:48Z</time></trkpt><trkpt lat="43.20765568820489" lon="12.18285193799441"><ele>456.0</ele><time>2026-04-26T16:41:50Z</time></trkpt><trkpt lat="43.2077068230566" lon="12.182970984925124"><ele>456.0</ele><time>2026-04-26T16:41:52Z</time></trkpt><trkpt lat="43.207789363775845" lon="12.183079157111296"><ele>456.0</ele><time>2026-04-26T16:41:54Z</time></trkpt><trkpt lat="43.20785415207392" lon="12.183144505884258"><ele>456.0</ele><time>2026-04-26T16:41:55Z</time></trkpt><trkpt lat="43.20790751830816" lon="12.183200333951662"><ele>440.0</ele><time>2026-04-26T16:41:56Z</time></trkpt><trkpt lat="43.207985893245045" lon="12.183283379890764"><ele>440.0</ele><time>2026-04-26T16:41:58Z</time></trkpt></trkseg></trk></gpx>